[[{"header":{"parameterUnit":"m.s-1","parameterCategory":1,"la1":31.0,"la2":29.5877,"lo1":-88.7671,"lo2":-86.6584,"dy":0.0162,"dx":0.0185,"nx":115,"ny":88,"refTime":"2023-07-12T06:00:00:Z","depth":0,"parameterNumber":2,"parameterNumberName":"U-component_of_WINDS"},"data":[0.0,0.0,0.0,0.0,0.0,0.0,0.0,0.0,0.0,0.0,0.0,0.0,0.0,0.0,0.0,0.0,0.0,0.0,0.0,0.0,0.0,0.0,0.0,0.0,0.0,0.0,0.0,0.0,0.0,0.0,0.0,0.0,0.0,0.0,0.0,0.0,0.0,0.0,0.0,0.0,0.0,0.0,0.0,0.0,0.0,0.0,0.0,0.0,0.0,0.0,0.0,0.0,0.0,0.0,0.0,0.0,0.0,0.0,0.0,0.0,0.0,0.0,0.0,0.0,0.0,0.0,0.0,0.0,0.0,0.0,0.0,0.0,0.0,0.0,0.0,0.0,0.0,0.0,0.0,0.0,0.0,0.0,0.0,0.0,0.0,0.0,0.0,0.0,0.0,0.0,0.0,0.0,0.0,0.0,0.0,0.0,0.0,0.0,0.0,0.0,0.0,0.0,0.0,0.0,0.0,0.0,0.0,0.0,0.0,0.0,0.0,0.0,0.0,0.0,0.0,0.0,0.0,0.0,0.0,0.0,0.0,0.0,0.0,0.0,0.0,0.0,0.0,0.0,0.0,0.0,0.0,0.0,0.0,0.0,0.0,0.0,0.0,0.0,0.0,0.0,0.0,0.0,0.0,0.0,0.0,0.0,0.0,0.0,0.0,0.0,0.0,0.0,0.0,0.0,0.0,0.0,0.0,0.0,0.0,0.0,0.0,0.0,0.0,0.0,0.0,0.0,0.0,0.0,0.0,0.0,0.0,0.0,0.0,0.0,0.0,0.0,0.0,0.0,0.0,0.0,0.0,0.0,0.0,0.0,0.0,0.0,0.0,0.0,0.0,0.0,0.0,0.0,0.0,0.0,0.0,0.0,0.0,0.0,0.0,0.0,0.0,0.0,0.0,0.0,0.0,0.0,0.0,0.0,0.0,0.0,0.0,0.0,0.0,0.0,0.0,0.0,0.0,0.0,0.0,0.0,0.0,0.0,0.0,0.0,0.0,0.0,0.0,0.0,0.0,0.0,0.0,0.0,0.0,0.0,0.0,0.0,0.0,0.0,0.0,0.0,0.0,0.0,0.0,0.0,0.0,0.0,0.0,0.0,0.0,0.0,0.0,0.0,0.0,0.0,0.0,0.0,0.0,0.0,0.0,0.0,0.0,0.0,0.0,0.0,0.0,0.0,0.0,0.0,0.0,0.0,0.0,0.0,0.0,0.0,0.0,0.0,0.0,0.0,0.0,0.0,0.0,0.0,0.0,0.0,0.0,0.0,0.0,0.0,0.0,0.0,0.0,0.0,0.0,0.0,0.0,0.0,0.0,0.0,0.0,0.0,0.0,0.0,0.0,0.0,0.0,0.0,0.0,0.0,0.0,0.0,0.0,0.0,0.0,0.0,0.0,0.0,0.0,0.0,0.0,0.0,0.0,0.0,0.0,0.0,0.0,0.0,0.0,0.0,0.0,0.0,0.0,0.0,0.0,0.0,0.0,0.0,0.0,0.0,0.0,0.0,0.0,0.0,0.0,0.0,0.0,0.0,0.0,0.0,0.0,0.0,0.0,0.0,0.0,0.0,0.0,0.0,0.0,0.0,0.0,0.0,0.0,0.0,0.0,0.0,0.0,0.0,0.0,0.0,0.0,0.0,0.0,0.0,0.0,0.0,0.0,0.0,0.0,0.0,0.0,0.0,0.0,0.0,0.0,0.0,0.0,0.0,0.0,0.0,0.0,0.0,0.0,0.0,0.0,0.0,0.0,0.0,0.0,0.0,0.0,0.0,0.0,0.0,0.0,0.0,0.0,0.0,0.0,0.0,0.0,0.0,0.0,0.0,0.0,0.0,0.0,0.0,0.0,0.0,0.0,0.0,0.0,0.0,0.0,0.0,0.0,0.0,0.0,0.0,0.0,0.0,0.0,0.0,0.0,0.0,0.0,0.0,0.0,0.0,0.0,0.0,0.0,0.0,0.0,0.0,0.0,0.0,0.0,0.0,0.0,0.0,0.0,0.0,0.0,0.0,0.0,0.0,0.0,0.0,0.0,0.0,0.0,0.0,0.0,0.0,0.0,0.0,0.0,0.0,0.0,0.0,0.0,0.0,0.0,0.0,0.0,0.0,0.0,0.0,0.0,0.0,0.0,0.0,0.0,0.0,0.0,0.0,0.0,0.0,0.0,0.0,0.0,0.0,0.0,0.0,0.0,0.0,0.0,0.0,0.0,0.0,0.0,0.0,0.0,0.0,0.0,0.0,0.0,0.0,0.0,0.0,0.0,0.0,0.0,0.0,0.0,0.0,0.0,0.0,0.0,0.0,0.0,0.0,0.0,0.0,0.0,0.0,0.0,0.0,0.0,0.0,0.0,0.0,0.0,0.0,0.0,0.0,0.0,0.0,0.0,0.0,0.0,0.0,0.0,0.0,0.0,0.0,0.0,0.0,0.0,0.0,0.0,0.0,0.0,0.0,0.0,0.0,0.0,0.0,0.0,0.0,0.0,0.0,0.0,0.0,0.0,0.0,0.0,0.0,0.0,0.0,0.0,0.0,0.0,0.0,0.0,0.0,0.0,0.0,0.0,0.0,0.0,0.0,0.0,0.0,0.0,0.0,0.0,0.0,0.0,0.0,0.0,0.0,0.0,0.0,0.0,0.0,0.0,0.0,0.0,0.0,0.0,0.0,0.0,0.0,0.0,0.0,0.0,0.0,0.0,0.0,0.0,0.0,0.0,0.0,0.0,0.0,0.0,0.0,0.0,0.0,0.0,0.0,0.0,0.0,0.0,0.0,0.0,0.0,0.0,0.0,0.0,0.0,0.0,0.0,0.0,0.0,0.0,0.0,0.0,0.0,0.0,0.0,0.0,0.0,0.0,0.0,0.0,0.0,0.0,0.0,0.0,0.0,0.0,0.0,0.0,0.0,0.0,0.0,0.0,0.0,0.0,0.0,0.0,0.0,0.0,0.0,0.0,0.0,0.0,0.0,0.0,0.0,0.0,0.0,0.0,0.0,0.0,0.0,0.0,0.0,0.0,0.0,0.0,0.0,0.0,0.0,0.0,0.0,0.0,0.0,0.0,0.0,0.0,0.0,0.0,0.0,0.0,0.0,0.0,0.0,0.0,0.0,0.0,0.0,0.0,0.0,0.0,0.0,0.0,0.0,0.0,0.0,0.0,0.0,0.0,0.0,0.0,0.0,0.0,0.0,0.0,0.0,0.0,0.0,0.0,0.0,0.0,0.0,0.0,0.0,0.0,0.0,0.0,0.0,0.0,0.0,0.0,0.0,0.0,0.0,0.0,0.0,0.0,0.0,0.0,0.0,0.0,0.0,0.0,0.0,0.0,0.0,0.0,0.0,0.0,0.0,0.0,0.0,0.0,0.0,0.0,0.0,0.0,0.0,0.0,0.0,0.0,0.0,0.0,0.0,0.0,0.0,0.0,0.0,0.0,0.0,0.0,0.0,0.0,0.0,0.0,0.0,0.0,0.0,0.0,0.0,0.0,0.0,0.0,0.0,0.0,0.0,0.0,0.0,0.0,0.0,0.0,0.0,0.0,0.0,0.0,0.0,0.0,0.0,0.0,0.0,0.0,0.0,0.0,0.0,0.0,0.0,0.0,0.0,0.0,0.0,0.0,0.0,0.0,0.0,0.0,0.0,0.0,0.0,0.0,0.0,0.0,0.0,0.0,0.0,0.0,0.0,0.0,0.0,0.0,0.0,0.0,0.0,0.0,0.0,0.0,0.0,0.0,0.0,0.0,0.0,0.0,0.0,0.0,0.0,0.0,0.0,0.0,0.0,0.0,0.0,0.0,0.0,0.0,0.0,0.0,0.0,0.0,0.0,0.0,0.0,0.0,0.0,0.0,0.0,0.0,0.0,0.0,0.0,0.0,0.0,0.0,0.0,0.0,0.0,0.0,0.0,0.0,0.0,0.0,0.0,0.0,0.0,0.0,0.0,0.0,0.0,0.0,0.0,0.0,0.0,0.0,0.0,0.0,0.0,0.0,0.0,0.0,0.0,0.0,0.0,0.0,0.0,0.0,0.0,0.0,0.0,0.0,0.0,0.0,0.0,0.0,0.0,0.0,0.0,0.0,0.0,0.0,0.0,0.0,0.0,0.0,0.0,0.0,0.0,0.0,0.0,0.0,0.0,0.0,0.0,0.0,0.0,0.0,0.0,0.0,0.0,0.0,0.0,0.0,0.0,0.0,0.0,0.0,0.0,0.0,0.0,0.0,0.0,0.0,0.0,0.0,0.0,0.0,0.0,0.0,0.0,0.0,0.0,0.0,0.0,-1.4891,0.0,0.0,0.0,0.0,0.0,0.0,0.0,0.0,0.0,0.0,0.0,0.0,0.0,0.0,0.0,0.0,0.0,0.0,0.0,0.0,0.0,0.0,0.0,0.0,0.0,0.0,0.0,0.0,0.0,0.0,0.0,0.0,0.0,0.0,0.0,0.0,0.0,0.0,0.0,0.0,0.0,0.0,0.0,0.0,0.0,0.0,0.0,0.0,0.0,0.0,0.0,0.0,0.0,0.0,0.0,0.0,0.0,0.0,0.0,0.0,0.0,0.0,0.0,0.0,0.0,0.0,0.0,0.0,0.0,0.0,0.0,0.0,0.0,0.0,0.0,0.0,0.0,0.0,0.0,0.0,0.0,0.0,0.0,0.0,0.0,0.0,0.0,0.0,0.0,0.0,0.0,0.0,0.0,0.0,0.0,0.0,0.0,0.0,0.0,0.0,0.0,0.0,0.0,0.0,0.0,0.0,0.0,0.0,0.0,0.0,-1.5648,-1.5165,-1.5823,-1.5858,-1.5131,0.0,0.0,0.0,0.0,0.0,0.0,0.0,0.0,0.0,0.0,0.0,0.0,0.0,0.0,0.0,0.0,0.0,0.0,0.0,0.0,0.0,0.0,0.0,0.0,0.0,0.0,0.0,0.0,0.0,0.0,0.0,0.0,0.0,0.0,0.0,0.0,0.0,0.0,0.0,0.0,0.0,0.0,0.0,0.0,0.0,0.0,0.0,0.0,0.0,0.0,0.0,0.0,0.0,0.0,0.0,0.0,0.0,0.0,0.0,0.0,0.0,0.0,0.0,0.0,0.0,0.0,0.0,0.0,0.0,0.0,0.0,0.0,0.0,0.0,0.0,0.0,0.0,0.0,0.0,0.0,0.0,0.0,0.0,0.0,0.0,0.0,0.0,0.0,0.0,0.0,0.0,0.0,0.0,0.0,0.0,0.0,0.0,0.0,0.0,0.0,0.0,0.0,0.0,0.0,0.0,0.0,0.0,0.0,0.0,0.0,0.0,0.0,-1.6596,-1.6373,-1.5718,0.0,0.0,0.0,0.0,0.0,0.0,0.0,0.0,0.0,0.0,0.0,0.0,0.0,0.0,0.0,0.0,0.0,0.0,0.0,0.0,0.0,0.0,0.0,0.0,0.0,0.0,0.0,0.0,0.0,0.0,0.0,0.0,0.0,0.0,0.0,0.0,0.0,0.0,0.0,0.0,0.0,0.0,0.0,0.0,0.0,0.0,0.0,0.0,0.0,0.0,0.0,0.0,0.0,0.0,0.0,0.0,0.0,0.0,0.0,0.0,0.0,0.0,0.0,0.0,0.0,0.0,0.0,0.0,0.0,0.0,0.0,0.0,0.0,0.0,0.0,0.0,0.0,0.0,0.0,0.0,0.0,0.0,0.0,0.0,0.0,0.0,0.0,0.0,0.0,0.0,0.0,0.0,0.0,0.0,0.0,0.0,0.0,0.0,0.0,0.0,0.0,0.0,0.0,0.0,0.0,0.0,0.0,0.0,0.0,0.0,-1.6788,-1.8376,-1.7861,0.0,-1.6953,0.0,0.0,0.0,0.0,0.0,0.0,0.0,0.0,0.0,0.0,0.0,0.0,0.0,0.0,0.0,0.0,0.0,0.0,0.0,0.0,0.0,0.0,0.0,0.0,0.0,0.0,0.0,0.0,0.0,0.0,0.0,0.0,0.0,0.0,0.0,0.0,0.0,0.0,0.0,0.0,0.0,0.0,0.0,0.0,0.0,0.0,0.0,0.0,0.0,0.0,0.0,0.0,0.0,0.0,0.0,0.0,0.0,0.0,0.0,0.0,0.0,0.0,0.0,0.0,0.0,0.0,0.0,0.0,0.0,0.0,0.0,0.0,0.0,0.0,0.0,0.0,0.0,0.0,0.0,0.0,0.0,0.0,0.0,0.0,0.0,0.0,0.0,0.0,0.0,0.0,0.0,0.0,0.0,0.0,0.0,0.0,0.0,0.0,0.0,0.0,0.0,0.0,0.0,0.0,0.0,0.0,0.0,0.0,0.0,0.0,-1.7684,-1.8772,-1.8068,-1.7399,0.0,0.0,0.0,0.0,0.0,0.0,0.0,0.0,0.0,0.0,0.0,0.0,0.0,0.0,0.0,0.0,0.0,0.0,0.0,0.0,0.0,0.0,0.0,0.0,0.0,0.0,0.0,0.0,0.0,0.0,0.0,0.0,0.0,0.0,0.0,0.0,0.0,0.0,0.0,0.0,0.0,0.0,0.0,0.0,0.0,0.0,0.0,0.0,0.0,0.0,0.0,0.0,0.0,0.0,0.0,0.0,0.0,0.0,0.0,0.0,0.0,0.0,0.0,0.0,0.0,0.0,0.0,0.0,0.0,0.0,0.0,0.0,0.0,0.0,0.0,0.0,0.0,0.0,0.0,0.0,0.0,0.0,0.0,0.0,0.0,0.0,0.0,0.0,0.0,0.0,0.0,0.0,0.0,0.0,0.0,0.0,0.0,0.0,0.0,0.0,0.0,0.0,0.0,0.0,0.0,0.0,0.0,0.0,0.0,0.0,-1.8687,-1.8948,-1.9746,-1.898,-1.8102,-1.7229,0.0,0.0,0.0,0.0,0.0,0.0,0.0,0.0,0.0,0.0,0.0,0.0,0.0,0.0,0.0,0.0,0.0,0.0,0.0,0.0,0.0,0.0,0.0,0.0,0.0,0.0,0.0,0.0,0.0,0.0,0.0,0.0,0.0,0.0,0.0,0.0,0.0,0.0,0.0,0.0,0.0,0.0,0.0,0.0,0.0,0.0,0.0,0.0,0.0,0.0,0.0,0.0,0.0,0.0,0.0,0.0,0.0,0.0,0.0,0.0,0.0,0.0,0.0,0.0,0.0,0.0,0.0,0.0,0.0,0.0,0.0,0.0,0.0,0.0,0.0,0.0,0.0,0.0,0.0,0.0,0.0,0.0,0.0,0.0,0.0,0.0,0.0,0.0,0.0,0.0,0.0,0.0,0.0,0.0,0.0,0.0,0.0,0.0,0.0,0.0,0.0,0.0,0.0,0.0,0.0,0.0,0.0,0.0,-2.1262,-2.0514,-2.0668,-2.1988,-2.1057,-2.0047,0.0,0.0,0.0,0.0,0.0,0.0,0.0,0.0,0.0,0.0,0.0,0.0,0.0,0.0,0.0,0.0,0.0,0.0,0.0,0.0,0.0,0.0,0.0,0.0,0.0,0.0,0.0,0.0,0.0,0.0,0.0,0.0,0.0,0.0,0.0,0.0,0.0,0.0,0.0,0.0,0.0,0.0,0.0,0.0,0.0,0.0,0.0,0.0,0.0,0.0,0.0,0.0,0.0,0.0,0.0,0.0,0.0,0.0,0.0,0.0,0.0,0.0,0.0,0.0,0.0,0.0,0.0,0.0,0.0,0.0,0.0,0.0,0.0,0.0,0.0,0.0,0.0,0.0,0.0,0.0,0.0,0.0,0.0,0.0,0.0,0.0,0.0,0.0,0.0,0.0,0.0,0.0,0.0,0.0,0.0,0.0,0.0,0.0,0.0,0.0,0.0,0.0,0.0,0.0,0.0,0.0,0.0,0.0,0.0,-2.1159,-2.1591,-2.2013,-2.2346,-2.1024,-1.9978,0.0,0.0,0.0,0.0,0.0,0.0,0.0,0.0,0.0,0.0,0.0,0.0,0.0,0.0,0.0,0.0,0.0,0.0,0.0,0.0,0.0,0.0,0.0,0.0,0.0,0.0,0.0,0.0,0.0,0.0,0.0,0.0,0.0,0.0,0.0,0.0,0.0,0.0,0.0,0.0,0.0,0.0,0.0,0.0,0.0,0.0,0.0,0.0,0.0,0.0,0.0,0.0,0.0,0.0,0.0,0.0,0.0,0.0,0.0,0.0,0.0,0.0,0.0,0.0,0.0,0.0,0.0,0.0,0.0,0.0,0.0,0.0,0.0,0.0,0.0,0.0,0.0,0.0,0.0,0.0,0.0,0.0,0.0,0.0,0.0,0.0,0.0,0.0,0.0,0.0,0.0,0.0,0.0,0.0,0.0,0.0,0.0,0.0,0.0,0.0,0.0,0.0,0.0,0.0,0.0,0.0,0.0,0.0,0.0,-2.2283,0.0,-2.3857,-2.3385,-2.1959,-2.0617,0.0,0.0,0.0,0.0,0.0,0.0,0.0,0.0,0.0,0.0,0.0,0.0,0.0,0.0,0.0,0.0,0.0,0.0,0.0,0.0,0.0,0.0,0.0,0.0,0.0,0.0,0.0,0.0,0.0,0.0,0.0,0.0,0.0,0.0,0.0,0.0,0.0,0.0,0.0,0.0,0.0,0.0,0.0,0.0,0.0,0.0,0.0,0.0,0.0,0.0,0.0,0.0,0.0,0.0,0.0,0.0,0.0,0.0,0.0,0.0,0.0,0.0,0.0,0.0,0.0,0.0,0.0,0.0,0.0,0.0,0.0,0.0,0.0,0.0,0.0,0.0,0.0,0.0,0.0,0.0,0.0,0.0,0.0,0.0,0.0,0.0,0.0,0.0,0.0,0.0,0.0,0.0,0.0,0.0,0.0,0.0,0.0,0.0,0.0,0.0,0.0,0.0,0.0,0.0,0.0,0.0,0.0,0.0,-2.2588,-2.4849,-2.6072,-2.6165,-2.5328,-2.4043,-2.2249,0.0,0.0,0.0,0.0,0.0,0.0,0.0,0.0,0.0,0.0,0.0,0.0,0.0,0.0,0.0,0.0,0.0,0.0,0.0,0.0,0.0,0.0,0.0,0.0,0.0,0.0,0.0,0.0,0.0,0.0,0.0,0.0,0.0,0.0,0.0,0.0,0.0,0.0,0.0,0.0,0.0,0.0,0.0,0.0,0.0,0.0,0.0,0.0,0.0,0.0,0.0,0.0,0.0,0.0,0.0,0.0,0.0,0.0,0.0,0.0,0.0,0.0,0.0,0.0,0.0,0.0,0.0,0.0,0.0,0.0,0.0,0.0,0.0,0.0,0.0,0.0,0.0,0.0,0.0,0.0,0.0,0.0,0.0,0.0,0.0,0.0,0.0,0.0,0.0,0.0,0.0,0.0,0.0,0.0,0.0,0.0,0.0,0.0,0.0,0.0,0.0,0.0,0.0,0.0,0.0,0.0,0.0,0.0,0.0,-2.4759,-2.5741,-2.6449,-2.6773,-2.4414,-2.2726,0.0,0.0,0.0,0.0,0.0,0.0,0.0,0.0,0.0,0.0,0.0,0.0,0.0,0.0,0.0,0.0,0.0,0.0,0.0,0.0,0.0,0.0,0.0,0.0,0.0,0.0,0.0,0.0,0.0,0.0,0.0,0.0,0.0,0.0,0.0,0.0,0.0,0.0,0.0,0.0,0.0,0.0,0.0,0.0,0.0,0.0,0.0,0.0,0.0,0.0,0.0,0.0,0.0,0.0,0.0,0.0,0.0,0.0,0.0,0.0,0.0,0.0,0.0,0.0,0.0,0.0,0.0,0.0,0.0,0.0,0.0,0.0,0.0,0.0,0.0,0.0,0.0,0.0,0.0,0.0,0.0,0.0,0.0,0.0,0.0,0.0,0.0,0.0,0.0,0.0,0.0,0.0,0.0,0.0,0.0,0.0,0.0,0.0,0.0,0.0,0.0,0.0,0.0,0.0,0.0,0.0,0.0,0.0,0.0,-2.5969,-2.6551,-2.705,-2.7418,-2.5144,-2.3557,-2.2724,0.0,0.0,0.0,0.0,0.0,0.0,0.0,0.0,0.0,0.0,0.0,0.0,0.0,0.0,0.0,0.0,0.0,0.0,0.0,0.0,0.0,0.0,0.0,0.0,0.0,0.0,0.0,0.0,0.0,0.0,0.0,0.0,0.0,0.0,0.0,0.0,0.0,0.0,0.0,0.0,0.0,0.0,0.0,0.0,0.0,0.0,0.0,0.0,0.0,0.0,0.0,0.0,0.0,0.0,0.0,0.0,0.0,0.0,0.0,0.0,0.0,0.0,0.0,0.0,0.0,0.0,0.0,0.0,0.0,0.0,0.0,0.0,0.0,0.0,0.0,0.0,0.0,0.0,0.0,0.0,0.0,0.0,0.0,0.0,0.0,0.0,0.0,0.0,0.0,0.0,0.0,0.0,0.0,0.0,0.0,0.0,0.0,0.0,0.0,0.0,0.0,0.0,0.0,0.0,0.0,0.0,0.0,0.0,-2.8218,-2.842,-2.8181,-2.7394,-2.621,-2.4616,0.0,0.0,0.0,0.0,0.0,0.0,0.0,0.0,0.0,0.0,0.0,0.0,0.0,0.0,0.0,0.0,0.0,0.0,0.0,0.0,0.0,0.0,0.0,0.0,0.0,0.0,0.0,0.0,0.0,0.0,0.0,0.0,0.0,0.0,0.0,0.0,0.0,0.0,0.0,0.0,0.0,0.0,0.0,0.0,0.0,0.0,0.0,0.0,0.0,0.0,0.0,0.0,0.0,0.0,0.0,0.0,0.0,0.0,0.0,0.0,0.0,0.0,0.0,0.0,0.0,0.0,0.0,0.0,0.0,0.0,0.0,0.0,0.0,0.0,0.0,0.0,0.0,0.0,0.0,0.0,0.0,0.0,0.0,0.0,0.0,0.0,0.0,0.0,0.0,0.0,0.0,0.0,0.0,0.0,0.0,0.0,0.0,0.0,0.0,0.0,0.0,0.0,0.0,0.0,0.0,0.0,0.0,0.0,0.0,-2.9173,-3.0022,-2.9918,-2.8858,-2.7008,-2.542,0.0,0.0,0.0,0.0,0.0,0.0,0.0,0.0,0.0,0.0,0.0,0.0,0.0,0.0,0.0,0.0,0.0,0.0,0.0,0.0,0.0,0.0,0.0,0.0,0.0,0.0,0.0,0.0,0.0,0.0,0.0,0.0,0.0,0.0,0.0,0.0,0.0,0.0,0.0,0.0,0.0,0.0,0.0,0.0,0.0,0.0,0.0,0.0,0.0,0.0,0.0,0.0,0.0,0.0,0.0,0.0,0.0,0.0,0.0,0.0,0.0,0.0,0.0,0.0,0.0,0.0,0.0,0.0,0.0,0.0,0.0,0.0,0.0,0.0,0.0,0.0,0.0,0.0,0.0,0.0,0.0,0.0,0.0,0.0,0.0,0.0,0.0,0.0,0.0,0.0,0.0,0.0,0.0,0.0,0.0,0.0,0.0,0.0,0.0,0.0,0.0,0.0,0.0,0.0,0.0,0.0,0.0,0.0,-3.0467,-3.0087,-3.1006,-3.0908,-2.9759,-2.8028,-2.6512,0.0,0.0,0.0,0.0,0.0,0.0,0.0,0.0,0.0,0.0,0.0,0.0,0.0,0.0,0.0,0.0,0.0,0.0,0.0,0.0,0.0,0.0,0.0,0.0,0.0,0.0,0.0,0.0,0.0,0.0,0.0,0.0,0.0,0.0,0.0,0.0,0.0,0.0,0.0,0.0,0.0,0.0,0.0,0.0,0.0,0.0,0.0,0.0,0.0,0.0,0.0,0.0,0.0,0.0,0.0,0.0,0.0,0.0,0.0,0.0,0.0,0.0,0.0,0.0,0.0,0.0,0.0,0.0,0.0,0.0,0.0,0.0,0.0,0.0,0.0,0.0,0.0,0.0,0.0,0.0,0.0,0.0,0.0,0.0,0.0,0.0,0.0,0.0,0.0,0.0,0.0,0.0,0.0,0.0,0.0,0.0,0.0,0.0,0.0,0.0,0.0,0.0,0.0,0.0,0.0,0.0,0.0,0.0,-3.1843,-3.1073,-3.1691,-3.1518,-3.0449,-2.9074,-2.7519,0.0,0.0,0.0,0.0,0.0,0.0,0.0,0.0,0.0,0.0,0.0,0.0,0.0,0.0,0.0,0.0,0.0,0.0,0.0,0.0,0.0,0.0,0.0,0.0,0.0,0.0,0.0,0.0,0.0,0.0,0.0,0.0,0.0,0.0,0.0,0.0,0.0,0.0,0.0,0.0,0.0,0.0,0.0,0.0,0.0,0.0,0.0,0.0,0.0,0.0,0.0,0.0,0.0,0.0,0.0,0.0,0.0,0.0,0.0,0.0,0.0,0.0,0.0,0.0,0.0,0.0,0.0,0.0,0.0,0.0,0.0,0.0,0.0,0.0,0.0,0.0,0.0,0.0,0.0,0.0,0.0,0.0,0.0,0.0,0.0,0.0,0.0,0.0,0.0,0.0,0.0,0.0,0.0,0.0,0.0,0.0,0.0,0.0,0.0,0.0,0.0,0.0,0.0,0.0,0.0,0.0,0.0,0.0,-3.2118,-3.1941,-3.2902,-3.3026,-3.2024,-2.9218,-2.69,0.0,0.0,0.0,0.0,0.0,0.0,0.0,0.0,0.0,0.0,0.0,0.0,0.0,0.0,0.0,0.0,0.0,0.0,0.0,0.0,0.0,0.0,0.0,0.0,0.0,0.0,0.0,0.0,0.0,0.0,0.0,0.0,0.0,0.0,0.0,0.0,0.0,0.0,0.0,0.0,0.0,0.0,0.0,0.0,0.0,0.0,0.0,0.0,-2.3149,0.0,0.0,0.0,0.0,0.0,0.0,0.0,0.0,0.0,0.0,0.0,0.0,0.0,0.0,0.0,0.0,0.0,0.0,0.0,0.0,0.0,0.0,0.0,0.0,0.0,0.0,0.0,0.0,0.0,0.0,0.0,0.0,0.0,0.0,0.0,0.0,0.0,0.0,0.0,0.0,0.0,0.0,0.0,0.0,0.0,0.0,0.0,0.0,0.0,0.0,0.0,0.0,0.0,0.0,0.0,0.0,0.0,0.0,0.0,-3.2128,-3.1818,-3.2578,-3.2563,-3.1565,-2.9257,-2.7387,0.0,0.0,0.0,0.0,0.0,0.0,0.0,0.0,0.0,0.0,0.0,0.0,0.0,0.0,0.0,0.0,0.0,0.0,0.0,0.0,0.0,0.0,0.0,0.0,0.0,0.0,0.0,0.0,0.0,0.0,0.0,0.0,0.0,0.0,0.0,0.0,0.0,0.0,0.0,0.0,0.0,0.0,0.0,0.0,0.0,0.0,0.0,0.0,0.0,0.0,0.0,0.0,0.0,0.0,0.0,0.0,0.0,0.0,0.0,0.0,0.0,0.0,0.0,0.0,0.0,0.0,0.0,0.0,0.0,0.0,0.0,0.0,0.0,0.0,0.0,0.0,0.0,0.0,0.0,0.0,0.0,0.0,0.0,0.0,0.0,0.0,0.0,0.0,0.0,0.0,0.0,0.0,0.0,0.0,0.0,0.0,0.0,0.0,0.0,0.0,0.0,0.0,0.0,0.0,0.0,0.0,0.0,-3.1166,-3.186,-3.1455,-3.1795,-3.1547,-3.075,-2.9489,-2.8286,-2.7166,0.0,0.0,0.0,0.0,0.0,0.0,0.0,0.0,0.0,0.0,0.0,0.0,0.0,0.0,0.0,0.0,0.0,0.0,0.0,0.0,0.0,0.0,0.0,0.0,0.0,0.0,0.0,0.0,0.0,0.0,0.0,0.0,0.0,0.0,0.0,0.0,0.0,0.0,-2.3371,-2.4132,0.0,0.0,0.0,0.0,0.0,0.0,0.0,0.0,-2.5159,0.0,0.0,0.0,0.0,0.0,0.0,0.0,0.0,0.0,0.0,0.0,0.0,0.0,0.0,0.0,0.0,0.0,0.0,0.0,0.0,0.0,0.0,0.0,0.0,0.0,0.0,0.0,0.0,0.0,0.0,0.0,0.0,0.0,0.0,0.0,0.0,0.0,0.0,0.0,0.0,0.0,0.0,0.0,0.0,0.0,0.0,0.0,0.0,0.0,0.0,0.0,0.0,0.0,0.0,0.0,0.0,-3.0051,-3.0369,-3.1046,-3.2033,-3.1915,-3.1614,-3.1293,-3.0335,-2.917,-2.7774,0.0,0.0,0.0,0.0,0.0,0.0,0.0,0.0,0.0,0.0,0.0,0.0,0.0,0.0,0.0,0.0,0.0,0.0,0.0,0.0,0.0,0.0,0.0,0.0,0.0,0.0,0.0,0.0,0.0,0.0,0.0,0.0,0.0,0.0,0.0,0.0,0.0,0.0,0.0,-2.4593,-2.5177,0.0,0.0,0.0,0.0,0.0,0.0,0.0,0.0,-2.6608,0.0,0.0,0.0,0.0,0.0,0.0,0.0,0.0,0.0,0.0,0.0,0.0,0.0,0.0,0.0,0.0,0.0,0.0,0.0,0.0,0.0,0.0,0.0,0.0,0.0,0.0,0.0,0.0,0.0,0.0,0.0,0.0,0.0,0.0,0.0,0.0,0.0,0.0,0.0,0.0,0.0,0.0,0.0,0.0,0.0,0.0,0.0,0.0,0.0,0.0,0.0,0.0,0.0,0.0,0.0,-3.0189,-3.0898,-3.1528,-3.2089,-3.2304,-3.1999,-3.1322,-3.0164,-2.8985,0.0,0.0,0.0,0.0,0.0,0.0,0.0,0.0,0.0,0.0,0.0,0.0,0.0,0.0,0.0,0.0,0.0,0.0,0.0,0.0,0.0,0.0,0.0,0.0,0.0,0.0,0.0,0.0,0.0,0.0,0.0,0.0,0.0,0.0,0.0,0.0,0.0,0.0,0.0,0.0,-2.5474,-2.6252,-2.7025,0.0,0.0,0.0,0.0,0.0,0.0,-2.7544,-2.7553,0.0,0.0,0.0,0.0,0.0,0.0,0.0,0.0,0.0,0.0,0.0,0.0,0.0,0.0,0.0,0.0,0.0,0.0,0.0,0.0,0.0,0.0,0.0,0.0,0.0,0.0,0.0,0.0,0.0,0.0,0.0,0.0,0.0,0.0,0.0,0.0,0.0,0.0,0.0,0.0,0.0,0.0,0.0,0.0,0.0,0.0,0.0,0.0,0.0,0.0,0.0,0.0,0.0,0.0,0.0,-3.0391,-3.1385,-3.2024,-3.2159,-3.2402,-3.2139,-3.1212,-2.987,-2.8796,0.0,0.0,0.0,0.0,0.0,0.0,0.0,0.0,0.0,0.0,0.0,0.0,0.0,0.0,0.0,0.0,0.0,0.0,0.0,0.0,0.0,0.0,0.0,0.0,0.0,0.0,0.0,0.0,0.0,0.0,0.0,0.0,0.0,0.0,0.0,0.0,0.0,0.0,0.0,0.0,0.0,-2.7597,-2.7842,-2.9325,0.0,0.0,0.0,0.0,-2.898,-2.8785,0.0,0.0,0.0,0.0,0.0,0.0,0.0,0.0,0.0,0.0,0.0,0.0,0.0,0.0,0.0,0.0,0.0,0.0,0.0,0.0,0.0,0.0,0.0,0.0,0.0,0.0,0.0,0.0,0.0,0.0,0.0,0.0,0.0,0.0,0.0,0.0,0.0,0.0,0.0,0.0,0.0,0.0,0.0,0.0,0.0,0.0,0.0,0.0,0.0,0.0,0.0,0.0,0.0,0.0,0.0,0.0,-3.0945,-3.1005,-3.1609,-3.2611,-3.1835,-3.1369,-3.1281,-3.0342,-2.9245,0.0,0.0,0.0,0.0,0.0,0.0,0.0,0.0,0.0,0.0,0.0,0.0,0.0,0.0,0.0,0.0,0.0,0.0,0.0,0.0,0.0,0.0,0.0,0.0,0.0,0.0,0.0,0.0,0.0,0.0,0.0,0.0,0.0,0.0,0.0,0.0,0.0,0.0,0.0,0.0,0.0,-2.8681,-2.8424,-2.9726,-3.0616,0.0,0.0,-2.9824,-2.9824,-2.9928,0.0,0.0,0.0,0.0,0.0,0.0,0.0,0.0,0.0,0.0,0.0,0.0,0.0,0.0,0.0,0.0,0.0,0.0,0.0,0.0,0.0,0.0,0.0,0.0,0.0,0.0,0.0,0.0,0.0,0.0,0.0,0.0,0.0,0.0,0.0,0.0,0.0,0.0,0.0,0.0,0.0,0.0,0.0,0.0,0.0,0.0,0.0,0.0,0.0,0.0,0.0,0.0,0.0,0.0,0.0,-2.9722,-3.0991,-3.1112,-3.1691,-3.2724,-3.2002,-3.152,-3.144,-2.9778,-2.8641,0.0,0.0,0.0,0.0,0.0,0.0,0.0,0.0,0.0,0.0,0.0,0.0,0.0,0.0,0.0,0.0,0.0,0.0,0.0,0.0,0.0,0.0,0.0,0.0,0.0,0.0,0.0,0.0,0.0,0.0,0.0,0.0,0.0,0.0,0.0,0.0,0.0,0.0,0.0,0.0,0.0,0.0,-2.9549,-3.1175,0.0,0.0,0.0,-3.1382,-3.1161,0.0,0.0,0.0,0.0,0.0,0.0,0.0,0.0,0.0,0.0,0.0,0.0,0.0,0.0,0.0,0.0,0.0,0.0,0.0,0.0,0.0,0.0,0.0,0.0,0.0,0.0,0.0,0.0,0.0,0.0,0.0,0.0,0.0,0.0,0.0,0.0,0.0,0.0,0.0,0.0,0.0,0.0,0.0,0.0,0.0,0.0,0.0,0.0,0.0,0.0,0.0,0.0,0.0,0.0,0.0,0.0,0.0,-3.1025,-3.138,-3.1859,-3.254,-3.2074,-3.1622,-3.116,-2.9435,0.0,0.0,0.0,0.0,0.0,0.0,0.0,0.0,0.0,0.0,0.0,0.0,0.0,0.0,0.0,0.0,0.0,0.0,0.0,0.0,0.0,0.0,0.0,0.0,0.0,0.0,0.0,-2.0824,0.0,0.0,0.0,0.0,0.0,0.0,0.0,0.0,0.0,0.0,0.0,0.0,0.0,0.0,-3.0477,-3.0707,-3.2298,-3.3391,0.0,0.0,-3.2617,-3.197,-3.1973,-3.1685,0.0,0.0,0.0,0.0,0.0,0.0,0.0,0.0,0.0,0.0,0.0,0.0,0.0,0.0,0.0,0.0,0.0,0.0,0.0,0.0,0.0,0.0,0.0,0.0,0.0,0.0,0.0,0.0,0.0,0.0,0.0,0.0,0.0,0.0,0.0,0.0,0.0,0.0,0.0,0.0,0.0,0.0,0.0,0.0,0.0,0.0,0.0,0.0,0.0,0.0,0.0,0.0,0.0,0.0,-2.9827,-3.1221,-3.1787,-3.2013,-3.1931,-3.1694,-3.1175,-3.0389,-2.9742,-2.8586,0.0,0.0,0.0,0.0,0.0,0.0,0.0,0.0,0.0,0.0,0.0,0.0,0.0,0.0,0.0,0.0,0.0,0.0,0.0,0.0,0.0,0.0,0.0,0.0,0.0,0.0,0.0,0.0,0.0,0.0,0.0,0.0,0.0,0.0,0.0,0.0,0.0,0.0,0.0,0.0,0.0,-3.1219,-3.1684,-3.2456,-3.3181,0.0,-3.3532,-3.2756,-3.1737,-3.2542,-3.2716,-3.0933,0.0,0.0,0.0,0.0,0.0,0.0,0.0,0.0,0.0,0.0,0.0,0.0,0.0,0.0,0.0,0.0,0.0,0.0,0.0,0.0,0.0,0.0,0.0,0.0,0.0,0.0,0.0,0.0,0.0,0.0,0.0,0.0,0.0,0.0,0.0,0.0,0.0,0.0,0.0,0.0,0.0,0.0,0.0,0.0,0.0,0.0,0.0,0.0,0.0,0.0,0.0,0.0,0.0,-2.8975,-2.9933,-3.0526,-3.094,-3.1028,-3.0206,-2.9743,-2.956,-2.8449,-2.7414,0.0,0.0,0.0,0.0,0.0,0.0,0.0,0.0,0.0,0.0,0.0,0.0,0.0,0.0,0.0,0.0,0.0,0.0,0.0,0.0,0.0,0.0,0.0,0.0,0.0,0.0,0.0,0.0,-2.2155,-2.2195,-2.3171,0.0,0.0,0.0,0.0,0.0,0.0,0.0,0.0,0.0,0.0,-3.1483,-3.2125,-3.3025,0.0,0.0,-3.3942,-3.3554,-3.2824,-3.3137,-3.3079,-3.1946,-3.1975,0.0,0.0,0.0,0.0,0.0,0.0,0.0,0.0,0.0,0.0,0.0,0.0,0.0,0.0,0.0,0.0,0.0,0.0,0.0,0.0,0.0,0.0,0.0,0.0,0.0,0.0,0.0,0.0,0.0,0.0,0.0,0.0,0.0,0.0,0.0,0.0,0.0,0.0,0.0,0.0,0.0,0.0,0.0,0.0,0.0,0.0,0.0,0.0,0.0,0.0,0.0,0.0,-2.8612,-2.9246,-2.97,-3.0021,-3.0162,-2.9153,-2.8725,-2.8903,-2.7645,-2.6701,0.0,0.0,0.0,0.0,0.0,0.0,0.0,0.0,0.0,0.0,0.0,0.0,0.0,0.0,0.0,0.0,0.0,0.0,0.0,0.0,0.0,0.0,0.0,0.0,0.0,0.0,0.0,0.0,-2.3528,-2.3597,-2.4308,0.0,0.0,0.0,0.0,0.0,0.0,0.0,0.0,0.0,0.0,-3.1786,-3.2454,-3.3293,-3.3973,-3.4327,-3.4113,-3.3818,-3.3522,-3.3536,-3.3253,-3.2614,0.0,0.0,0.0,0.0,0.0,0.0,0.0,0.0,0.0,0.0,0.0,0.0,0.0,0.0,0.0,0.0,0.0,0.0,0.0,0.0,0.0,0.0,0.0,0.0,0.0,0.0,0.0,0.0,0.0,0.0,-2.3078,0.0,0.0,0.0,0.0,0.0,0.0,0.0,0.0,0.0,0.0,0.0,0.0,0.0,0.0,0.0,0.0,0.0,0.0,0.0,0.0,0.0,0.0,-2.89,-2.9518,-2.956,-2.9526,-2.9282,-2.8711,-2.845,-2.8546,-2.7786,-2.6867,-2.5861,0.0,0.0,0.0,0.0,0.0,0.0,0.0,0.0,0.0,0.0,0.0,0.0,0.0,0.0,0.0,0.0,0.0,0.0,0.0,0.0,0.0,0.0,0.0,0.0,0.0,0.0,-2.5166,-2.5482,-2.5511,0.0,0.0,0.0,0.0,0.0,0.0,0.0,0.0,0.0,0.0,-3.1469,-3.2241,-3.2463,-3.2934,-3.357,-3.4327,-3.3877,-3.3551,-3.3551,-3.3551,-3.3253,0.0,0.0,0.0,0.0,0.0,0.0,0.0,0.0,0.0,0.0,0.0,0.0,0.0,0.0,0.0,0.0,0.0,0.0,0.0,0.0,0.0,0.0,0.0,0.0,0.0,0.0,0.0,-2.4482,-2.4519,0.0,0.0,0.0,0.0,0.0,0.0,0.0,0.0,0.0,0.0,0.0,-2.5925,-2.6345,0.0,0.0,0.0,0.0,0.0,0.0,0.0,0.0,0.0,0.0,0.0,0.0,-2.7917,-2.82,-2.8934,-2.9099,-2.8817,-2.8255,-2.7963,-2.8039,-2.726,-2.6373,-2.537,0.0,0.0,0.0,0.0,0.0,0.0,0.0,0.0,0.0,0.0,0.0,0.0,0.0,0.0,0.0,0.0,0.0,0.0,0.0,0.0,0.0,0.0,0.0,0.0,0.0,-2.5384,0.0,0.0,0.0,0.0,0.0,0.0,0.0,0.0,0.0,0.0,0.0,-3.0991,-3.1204,-3.2328,-3.3086,-3.3151,-3.3636,-3.41,0.0,0.0,0.0,0.0,0.0,0.0,0.0,0.0,0.0,0.0,0.0,0.0,0.0,0.0,-3.3774,-3.3275,-3.299,-3.2753,-3.2393,0.0,0.0,0.0,0.0,0.0,0.0,0.0,0.0,0.0,0.0,0.0,0.0,0.0,0.0,-2.4903,0.0,-2.4855,0.0,0.0,0.0,0.0,0.0,0.0,0.0,0.0,-2.6077,-2.6396,-2.6533,-2.6829,-2.6754,0.0,-2.6371,-2.6447,0.0,0.0,0.0,0.0,0.0,0.0,0.0,0.0,-2.7619,-2.7755,-2.837,-2.8587,-2.83,-2.7736,-2.7466,-2.7617,-2.6622,-2.5627,-2.4773,-2.3803,-2.3257,0.0,0.0,0.0,0.0,0.0,0.0,0.0,0.0,0.0,0.0,0.0,0.0,0.0,0.0,0.0,0.0,0.0,0.0,0.0,0.0,0.0,0.0,0.0,-2.6061,0.0,0.0,0.0,0.0,0.0,0.0,0.0,0.0,0.0,-2.9942,-3.0752,-3.1419,-3.1763,-3.2639,-3.3264,-3.3561,0.0,0.0,0.0,0.0,0.0,0.0,0.0,-3.4929,-3.4874,-3.522,-3.5337,-3.4768,-3.4885,-3.4843,-3.4339,0.0,0.0,-3.3197,-3.293,-3.2633,-3.2303,-3.2444,-3.2653,-3.2834,-3.2527,-3.218,0.0,0.0,0.0,0.0,0.0,0.0,0.0,0.0,-2.462,-2.519,0.0,-2.545,0.0,0.0,0.0,0.0,0.0,-2.5501,0.0,0.0,-2.6002,-2.6308,-2.6527,-2.654,-2.6653,-2.6746,-2.7284,-2.7398,-2.6998,-2.6246,0.0,0.0,0.0,0.0,0.0,0.0,-2.8052,-2.8012,-2.8052,-2.8,-2.7762,-2.7248,-2.7026,-2.7217,-2.5844,-2.4747,-2.4079,-2.3754,-2.3269,-2.2481,-2.3188,0.0,0.0,0.0,0.0,0.0,0.0,0.0,0.0,0.0,0.0,0.0,0.0,0.0,0.0,0.0,0.0,0.0,0.0,0.0,0.0,-2.6464,0.0,0.0,0.0,0.0,0.0,0.0,0.0,0.0,0.0,0.0,-3.0057,-3.0556,-3.1184,-3.2192,0.0,0.0,0.0,0.0,-3.4264,-3.4725,-3.4938,-3.5209,-3.5481,-3.5697,-3.5755,-3.5567,0.0,0.0,-3.4133,-3.4382,-3.4394,-3.3213,-3.2989,-3.3159,-3.3696,-3.3397,-3.3143,-3.3069,-3.2791,-3.2646,-3.2618,-3.2448,-3.2341,-2.8627,0.0,0.0,0.0,0.0,-2.7226,-2.6943,-2.667,-2.667,-2.6609,-2.6535,-2.6162,0.0,0.0,0.0,0.0,0.0,0.0,-2.581,-2.61,-2.6414,-2.69,-2.7391,-2.7404,-2.7548,-2.7691,-2.7452,-2.7417,-2.7392,-2.6748,-2.6438,-2.6387,0.0,0.0,0.0,0.0,-2.7104,-2.7273,-2.7525,-2.7603,-2.7469,-2.73,-2.71,-2.685,-2.5557,-2.472,-2.4453,-2.338,-2.2811,-2.2802,-2.2325,0.0,0.0,0.0,0.0,0.0,0.0,0.0,0.0,0.0,0.0,0.0,0.0,0.0,0.0,0.0,0.0,0.0,0.0,0.0,-2.7344,-2.7163,-2.7246,0.0,0.0,0.0,0.0,0.0,0.0,0.0,0.0,0.0,-3.0711,-3.1194,-3.1712,0.0,0.0,-3.3046,-3.3138,-3.3918,-3.4405,-3.4167,-3.4183,0.0,-3.3845,-3.3489,-3.3187,-3.3128,-3.3696,-3.4203,-3.4322,-3.4433,-3.4083,-3.2817,-3.2319,-3.1914,-3.119,-3.1814,-3.2125,-3.1457,-3.1413,-3.1455,-3.1158,-3.1097,-3.1044,-2.9176,-2.934,-2.8456,-2.7974,-2.7626,-2.742,-2.7286,-2.7042,-2.7042,-2.6981,-2.6846,-2.6274,-2.5876,-2.5767,-2.5467,0.0,0.0,0.0,-2.5705,-2.6104,-2.6455,-2.6881,-2.7335,-2.7545,-2.7692,-2.7638,-2.7313,-2.718,-2.7164,-2.6835,-2.6676,-2.6764,0.0,0.0,-2.6388,-2.6635,-2.6907,-2.7261,-2.7271,-2.7304,-2.7413,-2.7126,-2.6659,-2.5866,-2.5146,-2.4514,-2.4045,-2.314,-2.279,-2.3191,-2.232,-2.1861,0.0,0.0,0.0,0.0,0.0,0.0,0.0,0.0,0.0,0.0,0.0,-2.5479,-2.5755,0.0,0.0,0.0,-2.6751,-2.7092,-2.7431,-2.7513,0.0,0.0,0.0,0.0,0.0,0.0,0.0,-3.0885,-3.1044,-3.1174,-3.1098,-3.1572,-3.1985,-3.2256,-3.256,-3.2853,-3.3006,0.0,-3.3772,-3.3588,-3.3532,-3.3413,-3.3202,-3.288,-3.2732,-3.2658,-3.2858,-3.3105,-3.3264,-3.3143,-3.2568,-3.1637,-3.1156,-3.0716,-2.9905,-3.0583,-3.1009,-3.0444,-3.057,-3.0722,-3.0432,-3.0368,-3.0444,-2.9282,-2.908,-2.7617,-2.689,-2.6832,-2.6723,-2.6626,-2.6469,-2.6408,-2.6724,-2.7053,-2.5877,-2.5612,-2.6009,-2.5528,0.0,-2.5301,-2.5301,-2.542,-2.561,-2.6094,-2.6396,-2.6651,-2.7066,-2.7213,-2.6929,-2.688,-2.6763,-2.6469,-2.6477,-2.6702,-2.7092,-2.705,-2.7016,-2.7084,-2.7084,-2.7314,-2.7787,-2.7288,-2.7169,-2.7487,-2.6798,-2.592,-2.4747,-2.4595,-2.4128,-2.324,-2.2963,-2.2947,-2.3187,-2.2604,-2.1845,-2.1062,0.0,0.0,0.0,0.0,0.0,0.0,0.0,0.0,0.0,0.0,0.0,0.0,0.0,0.0,0.0,-2.6644,0.0,-2.6728,-2.7797,0.0,0.0,0.0,-3.0556,-2.9999,-3.0576,-3.0963,-3.0698,0.0,0.0,-3.1137,-3.1586,-3.1873,-3.1977,-3.2106,-3.2369,-3.3078,-3.2874,-3.2778,-3.3114,-3.2921,-3.2823,-3.2911,-3.3031,-3.2991,-3.2773,-3.2633,-3.2083,-3.1681,-3.121,-3.0574,-3.0133,-2.988,-2.9854,-2.9817,-2.9856,-2.9869,-3.0088,-3.0228,-3.0355,-3.0292,-3.0292,-3.0292,-2.794,-2.7866,-2.6944,-2.7017,-2.7663,-2.7261,-2.6942,-2.6817,-2.6743,-2.6649,-2.6347,-2.6021,-2.5685,-2.529,-2.504,-2.5134,-2.5415,-2.5133,-2.5194,-2.5541,-2.5341,-2.5386,-2.5551,-2.5666,-2.6016,-2.6403,-2.6042,-2.5984,-2.6294,-2.5931,-2.5803,-2.5983,-2.6414,-2.7103,-2.802,-2.7948,-2.7999,-2.8282,-2.7594,-2.7094,-2.6735,-2.6471,-2.6077,-2.5598,-2.4611,-2.3845,-2.3293,-2.2446,-2.1721,-2.1217,-2.0787,-2.046,-2.0286,-2.0364,0.0,0.0,0.0,0.0,0.0,0.0,0.0,0.0,0.0,-2.566,-2.5742,0.0,-2.6858,0.0,-2.7401,-2.8059,-2.8925,-2.9049,0.0,0.0,-3.0701,-3.1035,-3.0894,-3.0997,-3.0997,-3.0496,-3.0573,-3.065,-3.0573,-3.0534,-3.056,-3.0612,-3.1608,-3.2311,-3.1937,-3.2626,-3.275,-3.2098,-3.1888,-3.1756,-3.1341,-3.0984,-3.0804,-3.0636,-3.0836,-3.0985,-3.0858,-3.1027,-3.1035,-3.0545,-3.0419,-3.0256,-2.9867,-2.9779,-2.9779,-2.9856,-2.9946,-2.9934,-2.9934,-2.9934,-3.0011,-2.8056,-2.8008,-2.7182,-2.7239,-2.7633,-2.7025,-2.6624,-2.645,-2.6752,-2.6605,-2.6146,-2.5908,-2.5539,-2.4945,-2.4711,-2.4819,-2.501,-2.4698,-2.4714,-2.4971,-2.5104,-2.5193,-2.5284,-2.5655,-2.595,-2.6143,-2.587,-2.5768,-2.588,-2.5629,-2.5607,-2.589,-2.6213,-2.6884,-2.7791,-2.7505,-2.7544,-2.7927,-2.7016,-2.6251,-2.5732,-2.542,-2.5204,-2.4951,-2.3804,-2.3213,-2.3432,-2.1998,-2.1396,-2.1826,-2.0828,-2.0352,-2.0751,-2.0372,-2.0232,0.0,0.0,0.0,0.0,0.0,0.0,0.0,0.0,0.0,0.0,0.0,-2.6919,-2.7385,-2.7977,-2.8662,-2.9537,-2.949,-2.9706,-3.0325,-3.061,-3.0687,-3.0687,-3.0752,-3.0714,-3.033,-3.0432,-3.0496,-3.0203,-3.0428,-3.0552,-3.0337,-3.1309,-3.1744,-3.1266,-3.1635,-3.1826,-3.1238,-3.0918,-3.065,-3.0305,-2.9998,-2.9779,-2.9817,-3.0043,-3.0244,-3.0256,-3.0482,-3.057,-3.0319,-3.0244,-3.0156,-2.9854,-2.9779,-2.9779,-2.9779,-2.9779,-2.9779,-2.9779,-2.9779,-2.9869,-2.8518,-2.847,-2.7633,-2.7287,-2.7216,-2.645,-2.6055,-2.5894,-2.6581,-2.6609,-2.6118,-2.5749,-2.5253,-2.4722,-2.4607,-2.452,-2.4457,-2.4222,-2.4201,-2.4287,-2.487,-2.5229,-2.5251,-2.5832,-2.6035,-2.5694,-2.5764,-2.5632,-2.5385,-2.5374,-2.5588,-2.5994,-2.6097,-2.63,-2.6755,-2.6445,-2.6487,-2.7084,-2.6155,-2.5429,-2.4797,-2.4333,-2.4054,-2.3921,-2.2706,-2.2441,-2.328,-2.1523,-2.1274,-2.2842,-2.1301,-2.0617,-2.1344,-2.0349,-1.9713,0.0,-1.9773,0.0,0.0,0.0,0.0,0.0,0.0,0.0,0.0,-2.6653,-2.6793,-2.8025,-2.8482,-2.8833,-2.9303,-2.9611,-2.9817,-2.9892,-3.0035,-3.0189,-3.0189,-3.033,-3.0305,-3.0075,-3.0506,-3.0464,-2.9982,-3.067,-3.1085,-3.0628,-3.0979,-3.1154,-3.0653,-3.0658,-3.0645,-3.0465,-3.0027,-2.9752,-2.9702,-2.9714,-2.9702,-2.9714,-2.9739,-2.9702,-2.9739,-2.9752,-2.9739,-2.9727,-2.9752,-2.9727,-2.9702,-2.9702,-2.9714,-2.9702,-2.9624,-2.9702,-2.9779,-2.9779,-2.9779,-2.7136,-2.6983,-2.68,-2.6688,-2.65,-2.6311,-2.6229,-2.624,-2.6335,-2.6065,-2.5515,-2.5754,-2.5267,-2.4248,-2.447,-2.4566,-2.4363,-2.4072,-2.4075,-2.4409,-2.4163,-2.4129,-2.4139,-2.4221,-2.4296,-2.4214,-2.447,-2.4523,-2.444,-2.444,-2.4482,-2.4565,-2.4967,-2.5157,-2.521,0.0,0.0,0.0,-2.6083,-2.5678,-2.4786,-2.4505,-2.4363,-2.4123,-2.2595,0.0,-2.1596,-2.0432,-1.9909,-2.0078,-1.9594,0.0,0.0,0.0,0.0,0.0,0.0,0.0,0.0,0.0,0.0,0.0,-2.5234,-2.597,-2.647,-2.7043,-2.7746,-2.8585,-2.8893,-2.9086,-2.9118,-2.9353,-2.9696,-3.0144,-3.0365,-3.0536,-3.0536,-3.0524,-3.0372,-2.9919,-2.9957,-2.9995,-2.9867,-3.0173,-3.0338,-3.0276,-3.0642,-3.0577,-3.0084,-3.0343,-3.0365,-2.9758,-2.944,-2.9209,-2.9209,-2.9221,-2.93,-2.9221,-2.9221,-2.9221,-2.93,-2.93,-2.9221,-2.9221,-2.9209,-2.9221,-2.9221,-2.9221,-2.93,-2.9209,-2.9221,-2.9378,-2.9702,-2.9779,-2.9779,-2.7472,0.0,-2.7136,-2.698,0.0,-2.6416,-2.6257,-2.6246,-2.623,-2.5712,-2.4999,-2.517,-2.4719,-2.3887,-2.4019,-2.4008,-2.3909,-2.3568,-2.3619,-2.382,-2.3667,-2.3557,-2.3358,-2.3433,-2.3493,-2.3375,-2.3598,-2.3785,-2.388,-2.3912,-2.4024,-2.4024,-2.4176,-2.4337,-2.4317,-2.398,-2.4008,-2.4421,-2.4421,-2.4138,-2.3599,-2.3253,-2.3155,-2.3298,0.0,0.0,0.0,0.0,0.0,0.0,0.0,0.0,0.0,0.0,0.0,-1.9525,-1.9812,-2.0178,-2.0644,-2.1551,-2.2514,-2.3443,-2.4727,-2.5795,-2.6586,-2.7489,-2.8131,-2.845,-2.8724,-2.8961,-2.8973,-2.9118,-2.9386,-2.967,-2.9799,-2.9878,-2.9878,-2.9878,-2.9766,-2.953,-2.9468,-2.9456,-2.9456,-2.9576,-2.9683,-2.9695,-2.9838,-2.98,-2.9635,-2.9942,-2.9985,-2.9374,-2.9197,-2.9143,-2.9143,-2.9143,-2.9143,-2.9143,-2.9143,-2.9143,-2.9143,-2.9143,-2.9143,-2.9143,-2.9143,-2.9143,-2.9143,-2.9143,-2.9143,-2.9143,-2.9143,-2.9143,-2.939,-2.9468,-2.9468,-2.8179,-2.8007,-2.751,-2.7267,-2.7185,-2.6362,-2.5891,-2.5699,0.0,0.0,0.0,-2.4541,-2.4228,-2.3585,-2.3524,-2.3436,-2.3307,-2.3142,-2.3144,-2.3135,-2.325,-2.311,-2.2869,-2.2854,-2.2842,-2.2848,-2.3026,-2.3197,-2.3375,-2.3629,-2.3714,-2.3654,-2.3617,-2.3587,-2.3503,-2.3092,-2.2817,-2.2806,-2.2649,-2.2463,-2.2366,-2.1855,-2.1727,-2.2252,-2.0667,-2.0381,-2.1308,-1.9707,-1.9286,-2.0544,-1.9736,-1.9592,-2.0372,-2.001,-1.9784,-1.9784,-1.9784,-1.9813,-1.9976,-2.0598,-2.1497,-2.2573,-2.4116,-2.5532,-2.6691,-2.745,-2.7926,-2.7914,-2.8407,-2.8645,-2.8657,-2.8816,-2.8973,-2.8973,-2.9052,-2.9052,-2.9143,-2.9143,-2.9155,-2.9143,-2.9131,-2.9143,-2.9143,-2.9162,-2.9187,-2.9224,-2.9352,-2.9206,-2.9169,-2.9493,-2.9518,-2.9138,-2.8973,-2.8973,-2.8986,-2.8986,-2.8973,-2.8973,-2.8973,-2.8973,-2.8973,-2.8973,-2.8973,-2.8907,-2.8986,-2.8895,-2.8895,-2.8895,-2.8973,-2.8961,-2.8961,-2.8973,-2.8973,-2.8973,-2.9131,-2.7926,-2.7522,-2.694,-2.6528,-2.6362,-2.5611,-2.4714,-2.3772,-2.485,-2.4692,-2.3753,-2.4661,-2.4374,-2.3219,-2.3786,-2.372,-2.3134,-2.3115,-2.3144,0.0,-2.2601,-2.2407,-2.249,-2.2035,-2.2026,-2.2571,-2.2829,-2.2954,-2.2993,-2.3371,-2.3411,-2.3037,-2.3132,-2.2945,-2.2403,-2.1765,-2.1491,-2.1494,-2.2261,-2.231,-2.1942,-2.1666,-2.1557,-2.1548,-2.0365,-1.9725,-1.9924,-1.9125,-1.8938,-1.9459,-1.9221,-1.9226,-1.9687,-1.9539,-1.9381,-1.9381,-1.9381,-1.9617,-2.022,-2.0386,-2.1236,-2.2912,-2.387,-2.4713,-2.5659,-2.6307,-2.6846,-2.6987,-2.7603,-2.803,-2.803,-2.8179,-2.8339,-2.8578,-2.8736,-2.8882,-2.8973,-2.8986,-2.8973,-2.8973,-2.9143,-2.9052,-2.8998,-2.9236,-2.9294,-2.9509,-2.9362,-2.9699,-2.9124,-2.9076,-2.8925,-2.8828,-2.8657,-2.859,-2.859,-2.8602,-2.8614,-2.859,-2.8602,-2.8626,-2.859,-2.859,-2.851,-2.8339,-2.8419,-2.8339,-2.8339,-2.8339,-2.8419,-2.859,-2.859,-2.859,-2.859,-2.8578,-2.8736,-2.7185,-2.6846,-2.6102,-2.5768,-2.5611,-2.4744,-2.374,-2.2719,-2.3371,-2.3182,-2.2394,-2.3509,-2.3441,-2.2476,-2.3201,-2.3396,-2.2969,-2.3047,-2.3144,-2.3038,-2.2862,-2.2648,-2.248,-2.1987,-2.1763,-2.1807,-2.1807,-2.1807,-2.1846,-2.2152,-2.2386,-2.2539,-2.293,-2.2502,-2.1428,-2.137,-2.106,-2.0528,-2.1283,-2.1519,-2.1272,-2.1065,-2.0918,-2.0867,-1.9985,-1.958,-1.9589,-1.9247,-1.9084,-1.926,-1.9201,-1.9275,-1.946,-1.9301,-1.9402,-1.9613,-1.943,-1.9485,-2.007,-2.0383,-2.1258,-2.2658,-2.3008,-2.3377,-2.379,-2.5147,-2.5997,-2.6069,-2.661,-2.7115,-2.7267,-2.7267,-2.7441,-2.7765,-2.7661,-2.758,-2.7661,-2.7661,-2.7661,-2.7661,-2.7661,-2.7672,-2.7672,-2.779,-2.8011,-2.821,-2.8433,-2.8374,-2.7905,-2.7673,-2.7822,-2.8315,-2.8271,-2.8203,-2.8215,-2.836,-2.8383,-2.825,-2.836,-2.8383,-2.8286,-2.8203,-2.8122,-2.803,-2.803,-2.8042,-2.803,-2.803,-2.8122,-2.8122,-2.8203,-2.8203,-2.8203,-2.8351,-2.8657,-2.6202,-2.5948,-2.5114,-2.4608,-2.4374,-2.3856,-2.2967,-2.2141,-2.2349,-2.1881,-2.1259,-2.2323,-2.2515,-2.2006,-2.2553,-2.2795,-2.2794,-2.2969,-2.296,-2.294,-2.2766,-2.2494,-2.2165,-2.168,-2.1283,-2.106,-2.0889,-2.0809,-2.0857,-2.1056,-2.1493,-2.2083,-2.2592,-2.2101,-2.0818,-2.1081,-2.0833,-1.9989,-2.0323,-2.0634,-2.0634,-2.0333,-2.0108,-2.0108,-1.9715,-1.9557,-1.9557,-1.9311,-1.9222,-1.9222,-1.9231,-1.9231,-1.9222,-1.9301,-1.9439,-1.9723,-1.9496,-1.9542,-1.9953,-2.0597,-2.1352,-2.2145,-2.2296,-2.2441,-2.252,-2.3877,-2.4904,-2.5147,-2.5579,-2.6008,-2.634,-2.634,-2.6351,-2.6764,-2.661,-2.6434,-2.6351,-2.6445,-2.6445,-2.6362,-2.6351,-2.6434,-2.6445,-2.6445,-2.6622,-2.7056,-2.701,-2.6775,-2.6517,-2.6362,-2.6682,-2.7267,-2.7615,-2.7545,-2.7661,-2.7988,-2.7964,-2.7661,-2.7906,-2.8,-2.7789,-2.7719,-2.7638,-2.7545,-2.7545,-2.7545,-2.7638,-2.7545,-2.7626,-2.78,-2.7869,-2.7788,-2.7962,-2.8122,-2.8419,-2.5247,-2.4573,-2.3815,-2.2879,-2.2265,-2.2708,-2.236,-2.172,-2.2164,-2.1708,-2.0819,-2.1513,-2.2082,-2.2299,-2.2044,-2.211,-2.2432,-2.2715,-2.2696,-2.2416,-2.1731,-2.136,-2.1284,-2.031,-2.0094,-2.0609,-2.0638,-2.0609,-2.0557,-2.0974,-2.139,-2.1788,-2.1873,-2.1722,-2.1125,-2.0794,-2.0415,-1.9882,-1.9794,-1.9794,-1.9942,-1.9794,-1.9636,-1.9645,-1.9469,-1.9301,-1.9301,-1.9152,-1.8993,-1.8993,-1.9002,-1.8993,-1.9073,-1.9231,-1.932,-1.9393,-1.9525,-1.9732,-2.0205,-2.1013,-2.1521,-2.1614,-2.2067,-2.2353,-2.2344,-2.2608,-2.3028,-2.38,-2.4563,-2.5009,-2.5263,-2.5285,-2.5359,-2.5663,-2.5757,-2.5935,-2.5841,-2.6102,-2.6102,-2.5913,-2.5779,-2.5924,-2.6074,-2.6157,-2.629,-2.6279,-2.6268,-2.6185,-2.6019,-2.5768,-2.5579,-2.583,-2.6174,-2.6528,-2.6633,-2.7044,-2.7053,-2.6738,-2.7067,-2.7195,-2.7161,-2.6869,-2.6704,-2.6891,-2.6715,-2.6622,-2.6798,-2.6715,-2.6775,-2.7383,-2.7464,-2.736,-2.7708,-2.7881,-2.803,-2.4065,-2.3659,-2.2914,-2.2184,-2.1523,-2.1892,-2.1795,-2.1596,-2.1822,-2.1715,-2.1245,-2.1336,-2.1479,-2.1618,-2.1973,-2.2202,-2.2264,-2.2441,-2.2397,-2.2072,-2.1722,-2.1428,-2.1135,-2.0523,-2.0263,-2.0376,-2.017,-1.9958,-1.999,-2.0604,-2.0782,-2.0531,-2.1485,-2.1438,-2.0251,-2.0529,-2.037,-1.9566,-1.9469,-1.9469,-1.9539,-1.9469,-1.939,-1.9399,-1.9222,-1.9161,-1.9073,-1.8922,-1.886,-1.8851,-1.8851,-1.8851,-1.9002,-1.9073,-1.9252,-1.9488,-1.9815,-2.0129,-2.0517,-2.1034,-2.1392,-2.1632,-2.1808,-2.1998,-2.1998,-2.1998,-2.2255,-2.2775,-2.3299,-2.3734,-2.4155,-2.4079,-2.4155,-2.4573,-2.4594,-2.4509,-2.4584,-2.4754,-2.4754,-2.468,-2.4823,-2.5076,-2.5259,-2.5422,-2.5391,-2.5105,-2.502,-2.5211,-2.4861,-2.4594,-2.4498,-2.4498,-2.4754,-2.5094,-2.5633,-2.6114,-2.6187,-2.5994,-2.6271,-2.6572,-2.624,-2.6207,-2.6229,-2.6313,-2.6135,-2.6052,-2.6229,-2.6229,-2.6218,-2.6727,-2.6727,-2.6539,-2.6869,-2.6869,-2.7033,-2.2802,-2.2472,-2.199,-2.1389,-2.0902,-2.1203,-2.1295,-2.1265,-2.1471,-2.1566,-2.1548,-2.1355,-2.1273,-2.131,-2.1836,-2.2054,-2.1989,-2.2176,-2.2048,-2.1586,-2.1541,-2.1259,-2.0754,-2.0423,-2.0164,-1.9956,-1.9626,-1.9329,-1.9234,-2.0162,-2.0218,-1.9742,-2.1109,-2.109,-1.9668,-2.0255,-2.0181,-1.9225,-1.9152,-1.9152,-1.9152,-1.9152,-1.9152,-1.9143,-1.8993,-1.8922,-1.8922,-1.8692,-1.862,-1.862,-1.8612,-1.8692,-1.8843,-1.8931,-1.9102,-1.9397,-1.9799,-2.0193,-2.0577,-2.0869,-2.1225,-2.1507,-2.1544,-2.1553,-2.1562,-2.1651,-2.1741,-2.1998,-2.2264,-2.2706,-2.3125,-2.3038,-2.3125,-2.3647,-2.3396,-2.3319,-2.3396,-2.3493,-2.3493,-2.3436,-2.384,-2.4207,-2.4386,-2.4755,-2.49,-2.4391,-2.4277,-2.4262,-2.3894,-2.3757,-2.3667,-2.357,-2.358,-2.3927,-2.4625,-2.521,-2.5219,-2.5146,-2.537,-2.5658,-2.5338,-2.5486,-2.5644,-2.5633,-2.5559,-2.5559,-2.5633,-2.5633,-2.5644,-2.5717,-2.5801,-2.5884,-2.6207,-2.6124,-2.6207,-2.1211,-2.0742,-2.0723,-2.0398,-1.998,-2.0634,-2.0801,-2.0576,-2.0961,-2.1135,-2.119,-2.1423,-2.1686,-2.1551,-2.1337,-2.1365,-2.1704,-2.198,-2.1651,-2.0907,-2.0911,-2.0504,-1.9679,-1.9441,-1.9356,-1.9402,-1.9234,-1.9047,-1.8834,-1.9616,-1.9852,-1.9661,-2.056,-2.0532,-1.9725,-1.9825,-1.9579,-1.8905,-1.8772,-1.878,-1.8772,-1.8772,-1.8851,-1.8922,-1.8851,-1.87,-1.8692,-1.8523,-1.8442,-1.8362,-1.8442,-1.8442,-1.8442,-1.8612,-1.8788,-1.9003,-1.9463,-1.9936,-2.0149,-2.066,-2.1051,-2.1078,-2.1087,-2.1186,-2.1383,-2.1392,-2.1472,-2.1741,-2.1741,-2.1998,-2.2441,-2.2441,-2.2432,-2.2608,-2.2706,-2.2715,-2.253,-2.2784,-2.2706,-2.2675,-2.3009,-2.353,-2.3996,-2.4394,-2.4621,-2.4493,-2.4336,-2.4108,-2.3979,-2.3526,-2.3281,-2.3154,-2.3125,-2.3067,-2.3764,-2.4171,-2.4237,-2.4206,-2.4313,-2.4657,-2.4721,-2.47,-2.4871,-2.4956,-2.4882,-2.4871,-2.5031,-2.5031,-2.4956,-2.5126,-2.5464,-2.5717,-2.5633,-2.5812,-2.5812,-2.0709,-2.0395,-1.9962,-1.9691,-1.9567,-2.0053,-2.0136,-1.9998,-2.0313,-2.0485,-2.0454,-2.0736,-2.0916,-2.0916,-2.1015,-2.1309,-2.1606,-2.1377,-2.0953,-2.0418,-2.0425,-1.9933,-1.9111,-1.93,-1.9218,-1.8976,-1.9255,-1.9372,-1.9344,-1.9869,-1.9714,-1.9236,-1.9868,-1.9868,-1.9209,-1.9389,-1.9245,-1.8745,-1.8709,-1.8709,-1.87,-1.8612,-1.8523,-1.8603,-1.8523,-1.8523,-1.8531,-1.8273,-1.8112,-1.8121,-1.8121,-1.8193,-1.8353,-1.8442,-1.8617,-1.8911,-1.9379,-1.9764,-2.0158,-2.0704,-2.0997,-2.0997,-2.0997,-2.1006,-2.1096,-2.1186,-2.1284,-2.1482,-2.1482,-2.1651,-2.183,-2.1909,-2.1998,-2.2185,-2.2274,-2.2362,-2.2451,-2.253,-2.253,-2.2545,-2.3,-2.3615,-2.406,-2.4382,-2.4361,-2.4111,-2.3938,-2.3861,-2.3832,-2.3606,-2.3482,-2.3372,-2.32,-2.3009,-2.3188,-2.3105,-2.3135,-2.3232,-2.3416,-2.3764,-2.3841,-2.41,-2.4272,-2.454,-2.4368,-2.4454,-2.47,-2.4786,-2.4625,-2.4711,-2.5137,-2.5221,-2.4977,-2.5221,-2.5137,-2.0127,-1.9928,-1.943,-1.9222,-1.9259,-1.9452,-1.9408,-1.9371,-1.974,-1.9826,-1.9813,-2.0161,-2.033,-2.0401,-2.0731,-2.0908,-2.1083,-2.0833,-2.0548,-2.022,-2.018,-1.9737,-1.9179,-1.9404,-1.9486,-1.9226,-1.9569,-1.9778,-1.9713,-2.0057,-1.982,-1.9317,-1.9698,-1.9596,-1.917,-1.9132,-1.8962,-1.8742,-1.8512,-1.846,-1.8451,-1.8353,-1.8282,-1.8282,-1.8282,-1.8282,-1.8273,-1.8112,-1.8031,-1.8031,-1.8031,-1.8031,-1.8282,-1.8282,-1.8386,-1.8581,-1.8927,-1.9401,-1.9791,-2.0342,-2.0604,-2.0718,-2.0826,-2.0826,-2.0907,-2.0907,-2.1006,-2.1195,-2.1293,-2.1374,-2.1454,-2.1454,-2.1642,-2.1919,-2.2008,-2.1998,-2.2176,-2.2176,-2.2316,-2.2616,-2.3046,-2.3598,-2.4094,-2.4303,-2.4305,-2.3946,-2.3919,-2.3918,-2.3909,-2.3786,-2.372,-2.3672,-2.3202,-2.2975,-2.2834,-2.2669,-2.2725,-2.2882,-2.2979,-2.3154,-2.3406,-2.358,-2.3841,-2.411,-2.4196,-2.4282,-2.4378,-2.4464,-2.455,-2.455,-2.4625,-2.4796,-2.4636,-2.455,-2.4625,-1.932,-1.925,-1.9073,-1.9002,-1.9011,-1.8887,-1.8718,-1.8807,-1.9108,-1.9259,-1.923,-1.9667,-1.9835,-1.9915,-2.0261,-2.0234,-2.0125,-2.0503,-2.041,-1.9983,-2.0072,-1.9885,-1.9295,-1.9516,-1.9662,-1.9653,-2.0005,-2.0023,-1.9938,-2.0068,-2.0117,-2.0081,-1.98,-1.9724,-1.9724,-1.923,-1.888,-1.8611,-1.8361,-1.8091,-1.804,-1.8049,-1.8031,-1.8031,-1.8031,-1.804,-1.804,-1.8031,-1.8031,-1.8031,-1.8031,-1.8031,-1.8031,-1.8031,-1.804,-1.8126,-1.8408,-1.8776,-1.9144,-1.9513,-1.997,-2.0185,-2.0331,-2.0404,-2.0567,-2.0628,-2.0744,-2.0997,-2.0997,-2.0988,-2.0997,-2.1087,-2.1266,-2.1651,-2.1731,-2.1741,-2.1741,-2.1741,-2.2034,-2.263,-2.2868,-2.3281,-2.3956,-2.4235,-2.4221,-2.4156,-2.4075,-2.406,-2.3908,-2.3692,-2.3645,-2.3551,-2.3093,-2.2712,-2.2453,-2.2286,-2.2396,-2.2539,-2.2715,-2.2891,-2.3232,-2.3493,-2.3667,-2.3851,-2.4206,-2.4292,-2.4464,-2.455,-2.455,-2.455,-2.455,-2.455,-2.455,-2.455,-2.455,-1.8843,-1.8843,-1.8851,-1.8772,-1.878,-1.8692,-1.8612,-1.854,-1.8663,-1.8617,-1.8525,-1.8846,-1.901,-1.9106,-1.9427,-1.9531,-1.9436,-1.9712,-1.9718,-1.9449,-1.9604,-1.9318,-1.8719,-1.9016,-1.9344,-1.9606,-1.9964,-2.0087,-2.0087,-2.0087,-1.9964,-1.9565,-1.9444,-1.9436,-1.9462,-1.9221,-1.9084,-1.8948,-1.8605,-1.8417,-1.8391,-1.816,-1.804,-1.8031,-1.8031,-1.7951,-1.7789,-1.7951,-1.8031,-1.8031,-1.8031,-1.8031,-1.8031,-1.8031,-1.8031,-1.8066,-1.8382,-1.8614,-1.8776,-1.9127,-1.941,-1.9564,-1.9769,-1.9898,-2.0038,-2.0253,-2.0555,-2.0736,-2.0826,-2.0826,-2.0997,-2.0997,-2.1087,-2.1472,-2.1482,-2.1562,-2.1651,-2.1642,-2.1979,-2.2392,-2.252,-2.2777,-2.318,-2.345,-2.3487,-2.3487,-2.3435,-2.3361,-2.3315,-2.3354,-2.3148,-2.3111,-2.2686,-2.2419,-2.2308,-2.2124,-2.2082,-2.2274,-2.2451,-2.2627,-2.2969,-2.3319,-2.3416,-2.3764,-2.4034,-2.4292,-2.4464,-2.455,-2.455,-2.455,-2.455,-2.455,-2.455,-2.455,-2.455,-1.8709,-1.87,-1.8612,-1.8612,-1.8612,-1.8451,-1.8371,-1.8282,-1.8282,-1.821,-1.81,-1.8271,-1.8374,-1.8377,-1.8785,-1.8862,-1.8701,-1.9177,-1.9141,-1.8802,-1.9286,-1.9184,-1.8691,-1.9074,-1.9401,-1.9748,-2.0122,-2.0394,-2.0474,-2.0377,-2.0175,-1.9887,-1.9669,-1.9686,-1.9739,-1.954,-1.9384,-1.9333,-1.8999,-1.8733,-1.8505,-1.8201,-1.8023,-1.7814,-1.7797,-1.7716,-1.7627,-1.7716,-1.7789,-1.7797,-1.7797,-1.7797,-1.787,-1.7789,-1.7797,-1.7921,-1.8155,-1.8343,-1.8596,-1.8982,-1.9247,-1.941,-1.9735,-1.9949,-1.9992,-2.0198,-2.0374,-2.0473,-2.0564,-2.0645,-2.0736,-2.0727,-2.0826,-2.1114,-2.1203,-2.1284,-2.1463,-2.1562,-2.1744,-2.2053,-2.2263,-2.2446,-2.2729,-2.2866,-2.2866,-2.2866,-2.2866,-2.2866,-2.2866,-2.2875,-2.2838,-2.2841,-2.2575,-2.2392,-2.23,-2.2071,-2.1866,-2.2008,-2.2274,-2.2451,-2.2706,-2.2969,-2.3144,-2.3677,-2.4024,-2.4282,-2.4454,-2.4464,-2.455,-2.455,-2.455,-2.455,-2.455,-2.455,-2.4509,-1.87,-1.8612,-1.8442,-1.8362,-1.8353,-1.8121,-1.804,-1.804,-1.8031,-1.804,-1.8049,-1.7993,-1.7904,-1.7882,-1.8269,-1.8243,-1.7966,-1.8608,-1.8776,-1.8468,-1.8935,-1.929,-1.9256,-1.9341,-1.9497,-1.9826,-2.0271,-2.0569,-2.0464,-2.0401,-2.0674,-2.0482,-2.0133,-2.0305,-2.0231,-1.9978,-1.9769,-1.9727,-1.9401,-1.8956,-1.849,-1.8347,-1.8029,-1.7548,-1.7498,-1.7392,-1.7392,-1.7392,-1.7392,-1.7392,-1.7473,-1.7546,-1.7627,-1.7554,-1.7554,-1.7759,-1.7742,-1.8076,-1.8539,-1.8973,-1.929,-1.9581,-1.9915,-2.0266,-2.0172,-2.0215,-2.0292,-2.0292,-2.0292,-2.0382,-2.0382,-2.0382,-2.0473,-2.0645,-2.0916,-2.0997,-2.0997,-2.1195,-2.1536,-2.1898,-2.2126,-2.2318,-2.2628,-2.2683,-2.2692,-2.2692,-2.2674,-2.2637,-2.2637,-2.2583,-2.2729,-2.2648,-2.2327,-2.2245,-2.2089,-2.1997,-2.1741,-2.183,-2.2008,-2.2264,-2.253,-2.2706,-2.3057,-2.3503,-2.3937,-2.4196,-2.4368,-2.4368,-2.4464,-2.455,-2.455,-2.455,-2.4519,-2.4488,-2.4322,-1.8201,-1.8201,-1.8121,-1.8112,-1.8121,-1.804,-1.8031,-1.8031,-1.8031,-1.8031,-1.7959,-1.787,-1.7781,-1.7716,-1.7727,-1.7629,-1.7688,-1.8037,-1.8381,-1.8271,-1.8455,-1.853,-1.8505,-1.8785,-1.8913,-1.9067,-1.9428,-1.9557,-1.9374,-1.9434,-1.9346,-1.92,-1.9609,-1.972,-1.9686,-1.9962,-2.0138,-2.0095,-1.9787,-1.9468,-1.9185,-1.8608,-1.8238,-1.8046,-1.7614,-1.7327,-1.7139,-1.6976,-1.7066,-1.7392,-1.7392,-1.74,-1.749,-1.7416,-1.7532,-1.783,-1.7888,-1.8121,-1.8599,-1.887,-1.9075,-1.9324,-1.9567,-1.9694,-1.9809,-1.9966,-2.0085,-2.0201,-2.0292,-2.0292,-2.0292,-2.0292,-2.0382,-2.0473,-2.0718,-2.097,-2.0997,-2.1096,-2.1248,-2.1437,-2.1455,-2.1635,-2.1898,-2.1953,-2.1953,-2.2035,-2.2053,-2.2053,-2.2126,-2.2199,-2.2263,-2.2116,-2.1906,-2.1896,-2.186,-2.1805,-2.1741,-2.1741,-2.183,-2.1998,-2.2344,-2.2618,-2.3057,-2.3503,-2.3677,-2.3851,-2.411,-2.4282,-2.4378,-2.4464,-2.4478,-2.4436,-2.4385,-2.4333,-2.4074,-1.8031,-1.8031,-1.8031,-1.8031,-1.8031,-1.8031,-1.7951,-1.787,-1.7959,-1.7959,-1.787,-1.7781,-1.7619,-1.7538,-1.7481,-1.731,-1.7343,-1.7615,-1.7788,-1.7953,-1.8019,-1.8,-1.8014,-1.8252,-1.843,-1.838,-1.8718,-1.8818,-1.8757,-1.8654,-1.8642,-1.8833,-1.9175,-1.944,-1.974,-2.0065,-2.0292,-2.0249,-1.9971,-1.9647,-1.9348,-1.8654,-1.8118,-1.7836,-1.7343,-1.7057,-1.6894,-1.6812,-1.6902,-1.7147,-1.7147,-1.7212,-1.7441,-1.7375,-1.7546,-1.7965,-1.7997,-1.8181,-1.8543,-1.8779,-1.8975,-1.9129,-1.9318,-1.9494,-1.9667,-1.9745,-1.9853,-2.011,-2.0119,-2.0201,-2.0292,-2.0292,-2.0292,-2.0275,-2.0425,-2.0569,-2.0709,-2.0817,-2.0916,-2.1015,-2.1096,-2.1087,-2.1374,-2.1284,-2.1284,-2.1392,-2.1554,-2.1536,-2.1428,-2.1553,-2.1642,-2.1651,-2.1642,-2.1777,-2.1796,-2.1759,-2.1741,-2.1741,-2.183,-2.1998,-2.2255,-2.2618,-2.2969,-2.3329,-2.3406,-2.357,-2.38,-2.4059,-2.4292,-2.4337,-2.432,-2.426,-2.4178,-2.3981,-2.3743,-1.8031,-1.8031,-1.8031,-1.8031,-1.8031,-1.8031,-1.787,-1.7781,-1.7951,-1.787,-1.7708,-1.77,-1.7546,-1.7383,-1.731,-1.7229,-1.7057,-1.727,-1.7343,-1.7441,-1.7596,-1.7644,-1.7669,-1.7994,-1.8054,-1.8021,-1.8209,-1.8275,-1.8267,-1.8316,-1.8469,-1.8649,-1.8982,-1.9452,-1.9627,-1.9968,-2.0201,-2.011,-1.9903,-1.957,-1.9223,-1.8674,-1.8189,-1.775,-1.7231,-1.7004,-1.6964,-1.6818,-1.6836,-1.7122,-1.6876,-1.7127,-1.7467,-1.7363,-1.7586,-1.8016,-1.8104,-1.8295,-1.8551,-1.8847,-1.9076,-1.9133,-1.9389,-1.9579,-1.9546,-1.9571,-1.9671,-1.9845,-1.9936,-2.0019,-2.0201,-2.0292,-2.0292,-2.0257,-2.0009,-2.0009,-2.0271,-2.0503,-2.0558,-2.0718,-2.0889,-2.0854,-2.0988,-2.0997,-2.0997,-2.1186,-2.1293,-2.1383,-2.1374,-2.1553,-2.1562,-2.1562,-2.1651,-2.1731,-2.1741,-2.1741,-2.1731,-2.1731,-2.1909,-2.2087,-2.2264,-2.2618,-2.2969,-2.3232,-2.3319,-2.3414,-2.3564,-2.3872,-2.3988,-2.4026,-2.3969,-2.395,-2.3846,-2.3567,-2.3308,-1.8031,-1.8031,-1.8031,-1.8031,-1.8031,-1.8031,-1.787,-1.77,-1.787,-1.7797,-1.7554,-1.7465,-1.7392,-1.7139,-1.6976,-1.682,-1.682,-1.6902,-1.6984,-1.7221,-1.7392,-1.7392,-1.7392,-1.7663,-1.7671,-1.7573,-1.7598,-1.7565,-1.754,-1.7733,-1.7754,-1.7838,-1.8555,-1.8905,-1.9109,-1.9563,-1.9762,-1.9762,-1.9671,-1.9637,-1.9406,-1.8816,-1.8483,-1.8225,-1.7547,-1.7504,-1.7645,-1.7115,-1.6964,-1.7314,-1.7343,-1.7247,-1.7387,-1.7578,-1.7842,-1.8113,-1.8249,-1.8458,-1.8888,-1.9052,-1.9257,-1.9356,-1.9314,-1.9379,-1.9579,-1.9387,-1.9387,-1.9662,-1.9845,-2.0019,-2.0201,-2.0292,-2.0292,-2.0266,-2.018,-2.0236,-2.0451,-1.9981,-2.0034,-2.0526,-2.041,-2.0323,-2.115,-2.0826,-2.0916,-2.1006,-2.1195,-2.1302,-2.1383,-2.1472,-2.1562,-2.1562,-2.1651,-2.1731,-2.1731,-2.1713,-2.1667,-2.1612,-2.1771,-2.1951,-2.2214,-2.2349,-2.2631,-2.2911,-2.3144,-2.3258,-2.3283,-2.3422,-2.3487,-2.3586,-2.367,-2.3732,-2.3619,-2.3267,-2.3091,-1.8031,-1.8031,-1.8031,-1.8031,-1.7959,-1.787,-1.7781,-1.77,-1.7708,-1.7635,-1.7392,-1.731,-1.7221,-1.7049,-1.6812,-1.673,-1.673,-1.673,-1.6738,-1.6976,-1.7139,-1.7147,-1.6976,-1.7245,-1.736,-1.7343,-1.7147,-1.7064,-1.7258,-1.7351,-1.7544,-1.7618,-1.833,-1.8775,-1.9003,-1.9389,-1.9571,-1.9587,-1.9487,-1.9387,-1.933,-1.8864,-1.8378,-1.8258,-1.7802,-1.7706,-1.7873,-1.7539,-1.7435,-1.7656,-1.773,-1.758,-1.7342,-1.7445,-1.7715,-1.7993,-1.824,-1.8441,-1.8723,-1.8915,-1.9096,-1.9212,-1.9112,-1.9112,-1.9204,-1.9112,-1.9196,-1.9379,-1.9563,-1.9745,-2.0019,-2.0102,-2.011,-2.0249,-2.0129,-2.0202,-2.0335,-1.9875,-1.9808,-2.0419,-2.0243,-2.0286,-2.0497,-2.0628,-2.0744,-2.0835,-2.1006,-2.1195,-2.1284,-2.1374,-2.1562,-2.1562,-2.1651,-2.1731,-2.1731,-2.1686,-2.1585,-2.1563,-2.1618,-2.1701,-2.1807,-2.1969,-2.2131,-2.2504,-2.2773,-2.267,-2.2655,-2.2822,-2.3142,-2.339,-2.3546,-2.3557,-2.3588,-2.3515,-2.3339,-1.8031,-1.8031,-1.8031,-1.7959,-1.7959,-1.7789,-1.77,-1.7538,-1.7473,-1.74,-1.731,-1.7139,-1.7057,-1.6968,-1.6812,-1.6738,-1.673,-1.673,-1.673,-1.673,-1.6976,-1.6894,-1.6812,-1.6918,-1.7193,-1.7262,-1.7024,-1.704,-1.7371,-1.7429,-1.7754,-1.797,-1.8402,-1.8814,-1.9139,-1.9296,-1.9404,-1.9404,-1.9204,-1.9096,-1.908,-1.864,-1.8295,-1.8209,-1.8018,-1.8018,-1.8057,-1.7922,-1.785,-1.7954,-1.8089,-1.7882,-1.7564,-1.7509,-1.7612,-1.7969,-1.8295,-1.8528,-1.8616,-1.8776,-1.892,-1.8928,-1.8928,-1.892,-1.9012,-1.902,-1.9104,-1.9196,-1.9379,-1.9563,-1.9837,-2.0019,-2.011,-2.0158,-2.0001,-2.0009,-2.0129,-1.9966,-2.0021,-2.0399,-2.0179,-2.003,-2.0309,-2.0564,-2.0564,-2.0654,-2.0916,-2.1096,-2.1186,-2.1365,-2.1463,-2.1562,-2.1642,-2.1731,-2.1731,-2.1493,-2.1507,-2.1516,-2.1453,-2.1466,-2.1482,-2.162,-2.18,-2.2152,-2.232,-2.2251,-2.2237,-2.2351,-2.2665,-2.3206,-2.3361,-2.3298,-2.3453,-2.3753,-2.3608,-1.8031,-1.8031,-1.8031,-1.7951,-1.7781,-1.77,-1.7538,-1.7294,-1.731,-1.7147,-1.6894,-1.6976,-1.6976,-1.6812,-1.673,-1.673,-1.673,-1.673,-1.673,-1.673,-1.6812,-1.673,-1.673,-1.6828,-1.7147,-1.7445,-1.7366,-1.7374,-1.7699,-1.7977,-1.8049,-1.8247,-1.8632,-1.8872,-1.8888,-1.892,-1.902,-1.902,-1.892,-1.8912,-1.8888,-1.874,-1.8653,-1.8518,-1.8319,-1.8433,-1.8587,-1.8185,-1.7994,-1.8443,-1.8081,-1.7842,-1.785,-1.8216,-1.8446,-1.847,-1.8557,-1.8688,-1.8819,-1.9023,-1.9196,-1.9396,-1.9396,-1.9396,-1.9396,-1.9404,-1.9387,-1.9288,-1.9471,-1.9662,-2.0201,-2.011,-2.0201,-2.0266,-2.024,-2.0279,-2.0378,-2.0142,-2.0021,-2.0477,-2.0197,-1.9864,-2.0202,-2.0473,-2.0564,-2.0744,-2.1015,-2.1195,-2.1374,-2.1463,-2.1642,-2.1642,-2.1642,-2.1731,-2.1731,-2.1401,-2.125,-2.1323,-2.1306,-2.1248,-2.1269,-2.1322,-2.1442,-2.168,-2.184,-2.1814,-2.1828,-2.193,-2.2342,-2.2941,-2.296,-2.2936,-2.3484,-2.3981,-2.3846,-1.8031,-1.7959,-1.787,-1.7781,-1.77,-1.7448,-1.7383,-1.7221,-1.7139,-1.6976,-1.6894,-1.6894,-1.6812,-1.673,-1.673,-1.673,-1.673,-1.673,-1.673,-1.673,-1.673,-1.673,-1.673,-1.673,-1.7167,-1.7556,-1.762,-1.7707,-1.8025,-1.8192,-1.8319,-1.8375,-1.8653,-1.8819,-1.8827,-1.8827,-1.8827,-1.8827,-1.8827,-1.8827,-1.8827,-1.8827,-1.8827,-1.8764,-1.8684,-1.8776,-1.8792,-1.8664,-1.8406,-1.8608,-1.8512,-1.8335,-1.8414,-1.8541,-1.8676,-1.8438,-1.8486,-1.8573,-1.8787,-1.8875,-1.9104,-1.9288,-1.9379,-1.9479,-1.9579,-1.9587,-1.9587,-1.9487,-1.9487,-1.9762,-2.0019,-2.011,-2.0201,-2.0292,-2.0292,-2.0382,-2.0348,-2.0202,-2.0253,-2.0413,-2.0081,-1.9949,-2.0271,-2.0464,-2.0654,-2.0835,-2.1105,-2.1293,-2.1472,-2.1562,-2.1731,-2.1713,-2.1686,-2.1566,-2.1493,-2.1259,-2.1013,-2.1072,-2.1106,-2.1043,-2.1076,-2.1014,-2.1016,-2.1074,-2.1193,-2.1391,-2.1392,-2.1479,-2.2119,-2.2676,-2.2878,-2.3205,-2.3795,-2.4126,-2.4022,-1.7883,-1.7951,-1.7781,-1.7619,-1.7538,-1.7212,-1.7139,-1.7147,-1.6902,-1.6812,-1.6968,-1.6812,-1.673,-1.673,-1.673,-1.673,-1.673,-1.673,-1.673,-1.673,-1.673,-1.673,-1.673,-1.6818,-1.7096,-1.7676,-1.7755,-1.7993,-1.8335,-1.8438,-1.8414,-1.8502,-1.8732,-1.8827,-1.8827,-1.8827,-1.8827,-1.8827,-1.8827,-1.8827,-1.8827,-1.8827,-1.8827,-1.8827,-1.8827,-1.8819,-1.8812,-1.8764,-1.874,-1.878,-1.878,-1.8796,-1.8819,-1.8827,-1.8565,-1.8144,-1.8263,-1.8375,-1.8584,-1.8736,-1.9104,-1.9471,-1.9379,-1.9471,-1.9662,-1.9762,-1.9671,-1.9679,-1.9679,-1.9762,-2.0019,-2.0019,-2.011,-2.0201,-2.0382,-2.0382,-2.0473,-2.0339,-2.0413,-2.0352,-1.9966,-2.0116,-2.0421,-2.0645,-2.0826,-2.1015,-2.1293,-2.1374,-2.1562,-2.1651,-2.1722,-2.1695,-2.1612,-2.141,-2.1296,-2.1059,-2.0885,-2.0825,-2.0833,-2.0745,-2.0711,-2.0674,-2.0684,-2.0762,-2.0811,-2.0958,-2.1023,-2.1306,-2.1926,-2.2562,-2.2969,-2.3484,-2.4074,-2.4353,-2.4333,-1.7644,-1.7772,-1.7691,-1.7456,-1.7196,-1.7115,-1.6968,-1.6812,-1.673,-1.673,-1.6812,-1.6738,-1.673,-1.673,-1.673,-1.673,-1.673,-1.673,-1.673,-1.673,-1.673,-1.673,-1.673,-1.673,-1.7104,-1.7604,-1.7723,-1.8168,-1.8494,-1.8637,-1.8732,-1.8756,-1.8764,-1.8827,-1.8827,-1.8827,-1.8827,-1.8827,-1.8827,-1.8827,-1.8827,-1.8827,-1.8827,-1.8827,-1.8827,-1.8827,-1.8827,-1.8827,-1.8827,-1.8827,-1.8827,-1.8827,-1.8827,-1.8827,-1.8812,-1.8732,-1.8748,-1.8856,-1.9007,-1.9055,-1.9196,-1.9563,-1.9745,-1.9928,-2.0027,-2.0027,-1.9936,-2.0209,-2.0027,-1.9928,-2.011,-2.0201,-2.0292,-2.0382,-2.0473,-2.0564,-2.0654,-2.0654,-2.0645,-2.0546,-2.0381,-2.0425,-2.0654,-2.0826,-2.1006,-2.1284,-2.1472,-2.1553,-2.1596,-2.1569,-2.1493,-2.1392,-2.1273,-2.1167,-2.1013,-2.0782,-2.0752,-2.0628,-2.0569,-2.0487,-2.0566,-2.0576,-2.0576,-2.0693,-2.0644,-2.0741,-2.0916,-2.1318,-2.1944,-2.251,-2.3103,-2.366,-2.4343,-2.4488,-2.4529,-1.6826,-1.7077,-1.6843,-1.6738,-1.675,-1.6669,-1.6629,-1.6706,-1.673,-1.673,-1.673,-1.673,-1.673,-1.673,-1.673,-1.673,-1.673,-1.673,-1.673,-1.673,-1.673,-1.673,-1.673,-1.6754,-1.7048,-1.7374,-1.754,-1.7691,-1.82,-1.8637,-1.8827,-1.8804,-1.8812,-1.8827,-1.8696,-1.8819,-1.8827,-1.8827,-1.8827,-1.8827,-1.8827,-1.8827,-1.8827,-1.8827,-1.8827,-1.8827,-1.8827,-1.8827,-1.8827,-1.8827,-1.8827,-1.8827,-1.8827,-1.8827,-1.8819,-1.8819,-1.8819,-1.8819,-1.8912,-1.9012,-1.9196,-1.9471,-1.9662,-1.9853,-2.0119,-2.0201,-2.011,-2.0292,-2.0192,-2.0192,-2.0292,-2.0292,-2.0382,-2.0564,-2.0645,-2.0744,-2.0835,-2.0826,-2.0826,-2.0826,-2.0736,-2.0835,-2.0835,-2.0925,-2.1069,-2.1293,-2.1391,-2.1471,-2.1469,-2.1447,-2.1227,-2.0952,-2.0824,-2.0752,-2.0578,-2.0383,-2.0504,-2.0451,-2.0426,-2.04,-2.0528,-2.0576,-2.0576,-2.0654,-2.0731,-2.0829,-2.0926,-2.1399,-2.1936,-2.2654,-2.3238,-2.3722,-2.4188,-2.4436,-2.4457,-1.6085,-1.618,-1.6068,-1.6207,-1.6444,-1.6285,-1.6412,-1.6714,-1.673,-1.673,-1.673,-1.673,-1.673,-1.673,-1.673,-1.673,-1.673,-1.673,-1.673,-1.673,-1.673,-1.673,-1.673,-1.6762,-1.6929,-1.727,-1.7326,-1.7533,-1.7874,-1.8216,-1.8486,-1.8565,-1.8462,-1.8482,-1.8577,-1.8493,-1.8509,-1.8743,-1.8735,-1.8827,-1.8827,-1.8827,-1.8827,-1.8827,-1.8827,-1.8827,-1.8827,-1.8827,-1.8827,-1.8827,-1.8827,-1.8827,-1.8827,-1.8827,-1.8827,-1.8796,-1.874,-1.8716,-1.878,-1.8827,-1.892,-1.9196,-1.9471,-1.9845,-2.0201,-2.0292,-2.0292,-2.0292,-2.0292,-2.0292,-2.0292,-2.0292,-2.0382,-2.0555,-2.0736,-2.0916,-2.1015,-2.1105,-2.1105,-2.1105,-2.1015,-2.1096,-2.1105,-2.1015,-2.106,-2.1248,-2.1309,-2.1371,-2.1277,-2.1154,-2.0943,-2.064,-2.0513,-2.0477,-2.0374,-2.0267,-2.0263,-2.0261,-2.0312,-2.042,-2.0576,-2.0576,-2.0576,-2.0654,-2.0819,-2.0906,-2.1071,-2.1527,-2.1987,-2.2431,-2.2919,-2.3443,-2.3898,-2.4157,-2.4219,-1.5476,-1.5328,-1.578,-1.6097,-1.6182,-1.6206,-1.6397,-1.6722,-1.673,-1.673,-1.673,-1.673,-1.673,-1.673,-1.673,-1.673,-1.673,-1.673,-1.673,-1.673,-1.673,-1.673,-1.673,-1.6778,-1.6897,-1.7183,-1.7199,-1.739,-1.7652,-1.7699,-1.7842,-1.785,-1.7985,-1.7935,-1.8002,-1.8135,-1.8284,-1.854,-1.8703,-1.8827,-1.8827,-1.8827,-1.8827,-1.8827,-1.8827,-1.8827,-1.8827,-1.8827,-1.8827,-1.8827,-1.8827,-1.8827,-1.8827,-1.8827,-1.8827,-1.8788,-1.8629,-1.8637,-1.8756,-1.878,-1.8988,-1.9279,-1.9563,-1.9928,-2.0292,-2.0292,-2.0292,-2.0292,-2.0292,-2.0292,-2.0292,-2.0292,-2.0464,-2.0736,-2.0916,-2.1105,-2.1293,-2.1293,-2.1383,-2.1293,-2.1284,-2.1374,-2.1463,-2.1383,-2.1087,-2.1244,-2.1085,-2.1039,-2.0897,-2.078,-2.0576,-2.0439,-2.0273,-2.0207,-2.0223,-2.017,-2.0182,-2.0272,-2.0362,-2.042,-2.0576,-2.0576,-2.0654,-2.0731,-2.0819,-2.0974,-2.1138,-2.1396,-2.1744,-2.2104,-2.26,-2.3185,-2.3474,-2.3608,-2.3588,-1.5284,-1.5229,-1.5154,-1.5447,-1.588,-1.588,-1.6206,-1.6683,-1.673,-1.673,-1.6656,-1.673,-1.673,-1.6648,-1.673,-1.673,-1.673,-1.673,-1.673,-1.673,-1.673,-1.673,-1.673,-1.6754,-1.6818,-1.6937,-1.6961,-1.6976,-1.7088,-1.7207,-1.7143,-1.7215,-1.7525,-1.7795,-1.7905,-1.8013,-1.8218,-1.8344,-1.8624,-1.8827,-1.8827,-1.8827,-1.8827,-1.8827,-1.8827,-1.8827,-1.8827,-1.8827,-1.8827,-1.8827,-1.8827,-1.8827,-1.8827,-1.8827,-1.8827,-1.8819,-1.8637,-1.8669,-1.8724,-1.8784,-1.8969,-1.9538,-1.9837,-2.0019,-2.0292,-2.0292,-2.0292,-2.0292,-2.0292,-2.0292,-2.0292,-2.0473,-2.0645,-2.0826,-2.1105,-2.1293,-2.1472,-2.1482,-2.1562,-2.1472,-2.1553,-2.1642,-2.1741,-2.183,-2.1475,-2.1209,-2.0934,-2.0677,-2.0568,-2.0338,-2.0218,-2.0108,-2.0031,-2.0071,-2.0085,-2.0103,-2.0108,-2.0274,-2.043,-2.0528,-2.0615,-2.0751,-2.0829,-2.0819,-2.0809,-2.0974,-2.1128,-2.1215,-2.1531,-2.2039,-2.2487,-2.308,-2.3163,-2.3091,-2.3039,-1.5133,-1.5062,-1.4784,-1.512,-1.5634,-1.5674,-1.6015,-1.6524,-1.6609,-1.6574,-1.6492,-1.6574,-1.6566,-1.6574,-1.6566,-1.6566,-1.6648,-1.6648,-1.6648,-1.673,-1.673,-1.673,-1.673,-1.6738,-1.6746,-1.673,-1.673,-1.677,-1.681,-1.6746,-1.6794,-1.6953,-1.7183,-1.7421,-1.7628,-1.7968,-1.8205,-1.8292,-1.853,-1.8819,-1.8827,-1.8827,-1.8827,-1.8827,-1.8827,-1.8827,-1.8827,-1.8827,-1.8827,-1.8827,-1.8827,-1.8827,-1.8827,-1.8827,-1.8827,-1.8796,-1.874,-1.8724,-1.8824,-1.8951,-1.9134,-1.9712,-1.9837,-2.0019,-2.0201,-2.0292,-2.0292,-2.0292,-2.0292,-2.0292,-2.0382,-2.0564,-2.0835,-2.1015,-2.1203,-2.1392,-2.1562,-2.1651,-2.1651,-2.1642,-2.1731,-2.1731,-2.1738,-2.1799,-2.177,-2.1312,-2.0763,-2.0625,-2.0476,-2.0135,-1.9767,-1.9746,-1.9767,-1.985,-2.0029,-2.0177,-2.0352,-2.0498,-2.0586,-2.0605,-2.0684,-2.085,-2.0878,-2.0741,-2.0809,-2.0974,-2.1128,-2.1282,-2.1588,-2.2035,-2.2381,-2.2656,-2.2563,-2.249,-2.2573,-1.507,-1.4944,-1.4872,-1.5185,-1.561,-1.5674,-1.5872,-1.623,-1.6338,-1.6332,-1.6191,-1.6273,-1.6304,-1.6237,-1.6409,-1.6402,-1.6484,-1.6566,-1.6648,-1.6648,-1.6648,-1.6648,-1.673,-1.673,-1.673,-1.673,-1.673,-1.673,-1.673,-1.673,-1.673,-1.6762,-1.6945,-1.702,-1.6994,-1.7601,-1.7913,-1.7998,-1.8569,-1.8703,-1.8827,-1.8827,-1.8827,-1.8827,-1.8827,-1.8827,-1.8827,-1.8827,-1.8804,-1.8732,-1.8804,-1.8796,-1.8748,-1.8804,-1.8819,-1.8819,-1.864,-1.8648,-1.878,-1.9063,-1.9446,-1.9828,-2.0019,-2.011,-2.0201,-2.0292,-2.0292,-2.0292,-2.0292,-2.0382,-2.0564,-2.0744,-2.1015,-2.1203,-2.1392,-2.1482,-2.1651,-2.1731,-2.1731,-2.1731,-2.1731,-2.1713,-2.1682,-2.1738,-2.1842,-2.1457,-2.0772,-2.051,-2.0382,-1.9993,-1.9537,-1.9711,-1.9794,-1.9942,-2.0177,-2.0411,-2.0596,-2.0674,-2.0752,-2.0791,-2.0898,-2.1085,-2.1056,-2.0752,-2.0908,-2.1153,-2.1218,-2.1359,-2.1558,-2.1716,-2.1788,-2.1937,-2.1921,-2.1886,-2.1973,-1.5007,-1.4872,-1.4721,-1.4992,-1.5324,-1.5348,-1.5539,-1.5833,-1.5913,-1.5928,-1.5971,-1.6082,-1.6223,-1.6257,-1.6229,-1.6304,-1.6402,-1.6394,-1.6484,-1.6566,-1.6648,-1.6648,-1.673,-1.673,-1.673,-1.673,-1.673,-1.673,-1.673,-1.673,-1.673,-1.6762,-1.6913,-1.7151,-1.7273,-1.7668,-1.7945,-1.8229,-1.853,-1.8827,-1.8827,-1.8827,-1.8827,-1.8827,-1.8827,-1.8827,-1.8827,-1.8827,-1.8748,-1.8621,-1.8684,-1.8716,-1.8629,-1.8744,-1.908,-1.9096,-1.9018,-1.9248,-1.9455,-1.9646,-1.9828,-2.0019,-2.011,-2.0201,-2.0292,-2.0292,-2.0292,-2.0292,-2.0292,-2.0473,-2.0654,-2.0826,-2.1096,-2.1293,-2.1482,-2.1562,-2.1731,-2.1731,-2.1731,-2.1731,-2.1731,-2.183,-2.1924,-2.1845,-2.1929,-2.1608,-2.1061,-2.09,-2.0771,-1.9984,-1.9417,-1.9743,-1.9863,-2.0098,-2.0342,-2.0566,-2.0615,-2.0615,-2.0781,-2.0937,-2.1074,-2.135,-2.1263,-2.1017,-2.1135,-2.1332,-2.1288,-2.1282,-2.1282,-2.1369,-2.1502,-2.1578,-2.1619,-2.1553,-2.145,-1.4792,-1.4792,-1.4649,-1.4776,-1.4998,-1.5125,-1.5372,-1.5549,-1.5578,-1.5551,-1.5591,-1.5653,-1.5823,-1.5894,-1.6067,-1.6101,-1.6304,-1.6484,-1.6484,-1.6566,-1.664,-1.6648,-1.673,-1.673,-1.673,-1.673,-1.673,-1.673,-1.673,-1.673,-1.673,-1.6794,-1.6984,-1.7111,-1.735,-1.7723,-1.8097,-1.8375,-1.8621,-1.8827,-1.8827,-1.8827,-1.8827,-1.8827,-1.8827,-1.8827,-1.8827,-1.8788,-1.8724,-1.8581,-1.8541,-1.8621,-1.8731,-1.883,-1.9198,-1.933,-1.9479,-1.9662,-1.9837,-1.9837,-2.0019,-2.0192,-2.0292,-2.0292,-2.0292,-2.0292,-2.0292,-2.0292,-2.0292,-2.0473,-2.0654,-2.0916,-2.1096,-2.1383,-2.1562,-2.1651,-2.1731,-2.1731,-2.1731,-2.1731,-2.1741,-2.1919,-2.2031,-2.2058,-2.2053,-2.1684,-2.1296,-2.1182,-2.0938,-2.0111,-1.9469,-1.9706,-2.0029,-2.0177,-2.0498,-2.0732,-2.0742,-2.0596,-2.0889,-2.1279,-2.1318,-2.1504,-2.143,-2.1223,-2.1223,-2.1224,-2.1113,-2.1128,-2.1205,-2.1205,-2.1205,-2.1282,-2.1349,-2.1282,-2.1138,-1.4553,-1.4545,-1.4553,-1.4537,-1.4609,-1.4982,-1.5249,-1.538,-1.5233,-1.5122,-1.5042,-1.5296,-1.5404,-1.534,-1.5663,-1.5936,-1.6167,-1.6453,-1.6574,-1.6656,-1.6648,-1.6648,-1.673,-1.673,-1.673,-1.673,-1.673,-1.673,-1.673,-1.673,-1.673,-1.6754,-1.6873,-1.7064,-1.7405,-1.7779,-1.8105,-1.8263,-1.851,-1.8629,-1.8589,-1.8645,-1.8605,-1.8613,-1.8661,-1.8708,-1.874,-1.8764,-1.8764,-1.8661,-1.8526,-1.8771,-1.8854,-1.8872,-1.9175,-1.9472,-1.9662,-1.9853,-1.9936,-1.9928,-2.0027,-2.0292,-2.0292,-2.0292,-2.0292,-2.0292,-2.0292,-2.0292,-2.0382,-2.0564,-2.0645,-2.0916,-2.1195,-2.1383,-2.1562,-2.1651,-2.1731,-2.1731,-2.1731,-2.1731,-2.1741,-2.1882,-2.1901,-2.1945,-2.1873,-2.1457,-2.1108,-2.09,-2.0611,-2.0056,-1.9585,-1.9784,-2.002,-2.0264,-2.0527,-2.0722,-2.0819,-2.0693,-2.1455,-2.1855,-2.1836,-2.1689,-2.1572,-2.1406,-2.1221,-2.1095,-2.0937,-2.0974,-2.1051,-2.1051,-2.0974,-2.1061,-2.1128,-2.1128,-2.1051,-1.4214,-1.3607,-1.3956,-1.4128,-1.4183,-1.4577,-1.4783,-1.4846,-1.4751,-1.477,-1.4857,-1.4932,-1.5104,-1.5373,-1.5548,-1.5797,-1.604,-1.6261,-1.6453,-1.6566,-1.6648,-1.6648,-1.673,-1.673,-1.673,-1.673,-1.673,-1.6648,-1.673,-1.673,-1.673,-1.6746,-1.6921,-1.7127,-1.735,-1.7699,-1.7826,-1.7993,-1.8255,-1.8295,-1.8224,-1.82,-1.82,-1.8247,-1.8422,-1.8486,-1.8565,-1.8716,-1.8692,-1.8486,-1.8621,-1.8784,-1.8783,-1.9142,-1.9621,-1.9985,-2.0119,-2.0119,-2.0201,-2.0201,-2.0201,-2.0292,-2.0292,-2.0292,-2.0292,-2.0292,-2.0292,-2.0382,-2.0473,-2.0645,-2.0826,-2.1105,-2.1284,-2.1472,-2.1651,-2.1651,-2.1731,-2.1731,-2.1722,-2.1603,-2.1612,-2.1604,-2.1649,-2.1577,-2.141,-2.1137,-2.0874,-2.0548,-2.0323,-1.9789,-1.9613,-1.9803,-2.002,-2.0186,-2.0284,-2.0458,-2.0632,-2.0835,-2.1516,-2.1958,-2.1724,-2.1607,-2.1705,-2.1491,-2.1033,-2.084,-2.0703,-2.0809,-2.0886,-2.0809,-2.0731,-2.0819,-2.0906,-2.0896,-2.0886,-1.3964,-1.3424,-1.3762,-1.4041,-1.4204,-1.4462,-1.4618,-1.4688,-1.4696,-1.4694,-1.477,-1.495,-1.5056,-1.5278,-1.5587,-1.5828,-1.5998,-1.6308,-1.6476,-1.6566,-1.6632,-1.6648,-1.673,-1.6648,-1.6648,-1.6648,-1.6648,-1.6648,-1.6648,-1.6648,-1.673,-1.6754,-1.7,-1.704,-1.7151,-1.735,-1.7437,-1.758,-1.7731,-1.7866,-1.7866,-1.7858,-1.7962,-1.7954,-1.8176,-1.8303,-1.8446,-1.8661,-1.8541,-1.8454,-1.87,-1.8902,-1.9036,-1.9563,-1.9793,-2.0056,-2.0223,-2.0266,-2.0292,-2.0292,-2.0292,-2.0292,-2.0292,-2.0292,-2.0382,-2.0382,-2.0473,-2.0564,-2.0736,-2.0907,-2.1096,-2.1195,-2.1374,-2.1562,-2.1651,-2.1731,-2.1731,-2.1731,-2.1621,-2.1465,-2.1388,-2.1272,-2.12,-2.1137,-2.1016,-2.0688,-2.0316,-1.9984,-1.9864,-1.9706,-1.9594,-1.9724,-1.9863,-2.0098,-2.0205,-2.0351,-2.0582,-2.0922,-2.1327,-2.1632,-2.1395,-2.1477,-2.1627,-2.1247,-2.0722,-2.0566,-2.0489,-2.0566,-2.0654,-2.0576,-2.0498,-2.0654,-2.0731,-2.0722,-2.0644,-1.3805,-1.3423,-1.3843,-1.4088,-1.4454,-1.4528,-1.4637,-1.4897,-1.4587,-1.4637,-1.4793,-1.504,-1.5126,-1.5245,-1.561,-1.5802,-1.599,-1.618,-1.6413,-1.6624,-1.6537,-1.6635,-1.6714,-1.6648,-1.6648,-1.6566,-1.6566,-1.6648,-1.6566,-1.6566,-1.673,-1.673,-1.6762,-1.681,-1.6881,-1.708,-1.7127,-1.7064,-1.7326,-1.7564,-1.7676,-1.7906,-1.8176,-1.8089,-1.8184,-1.8327,-1.8526,-1.8565,-1.8486,-1.8688,-1.891,-1.9043,-1.9447,-1.9802,-1.9911,-1.9958,-2.0052,-2.0198,-2.0257,-2.0292,-2.0292,-2.0292,-2.0292,-2.0382,-2.0473,-2.0473,-2.0473,-2.0645,-2.0826,-2.1006,-2.1195,-2.1374,-2.1562,-2.1562,-2.1651,-2.1642,-2.1731,-2.1695,-2.1575,-2.1392,-2.124,-2.1087,-2.0689,-2.0625,-2.0531,-2.0142,-1.9839,-1.951,-1.9454,-1.9497,-1.9576,-1.9636,-1.9706,-1.9872,-2.0068,-2.0251,-2.0678,-2.0966,-2.1226,-2.1313,-2.1135,-2.1308,-2.153,-2.105,-2.0574,-2.042,-2.0333,-2.0411,-2.042,-2.0342,-2.0342,-2.0489,-2.0566,-2.0479,-2.0489,-1.321,-1.2439,-1.2893,-1.3222,-1.3479,-1.4008,-1.4175,-1.4081,-1.4229,-1.4452,-1.4889,-1.4797,-1.4889,-1.5154,-1.5461,-1.571,-1.5748,-1.5936,-1.6191,-1.6385,-1.6427,-1.6514,-1.669,-1.6648,-1.6648,-1.6648,-1.6648,-1.6648,-1.6648,-1.6648,-1.673,-1.673,-1.673,-1.673,-1.6738,-1.6905,-1.6841,-1.668,-1.6913,-1.7104,-1.7135,-1.7056,-1.7104,-1.7334,-1.7548,-1.7946,-1.8216,-1.8518,-1.8712,-1.9055,-1.9031,-1.9266,-1.9435,-1.9711,-1.9749,-1.9698,-1.9855,-2.0078,-2.0223,-2.0292,-2.0292,-2.0382,-2.0473,-2.0564,-2.0564,-2.0473,-2.0564,-2.0736,-2.0916,-2.1105,-2.1284,-2.1463,-2.1651,-2.1651,-2.1651,-2.1651,-2.1731,-2.1621,-2.1511,-2.1379,-2.1207,-2.0809,-2.0384,-2.0116,-1.9931,-1.9765,-1.9537,-1.932,-1.932,-1.939,-1.9478,-1.9478,-1.9469,-1.9557,-1.9831,-2.0074,-2.0381,-2.0614,-2.0895,-2.0881,-2.0828,-2.0776,-2.0742,-2.0723,-2.0521,-2.0241,-2.0186,-2.0264,-2.0186,-2.0108,-2.0108,-2.0255,-2.0255,-2.0255,-2.0255,-1.2935,-1.2369,-1.2514,-1.2868,-1.3208,-1.3623,-1.3851,-1.3932,-1.3763,-1.3985,-1.4561,-1.4691,-1.482,-1.5086,-1.5354,-1.5487,-1.5518,-1.5697,-1.5909,-1.6067,-1.6265,-1.644,-1.6511,-1.6648,-1.6492,-1.6492,-1.6492,-1.6492,-1.6648,-1.673,-1.673,-1.673,-1.673,-1.673,-1.673,-1.673,-1.673,-1.673,-1.673,-1.673,-1.6762,-1.6841,-1.7064,-1.7302,-1.7517,-1.7811,-1.8169,-1.8505,-1.8773,-1.9125,-1.9257,-1.9354,-1.9495,-1.9766,-1.9787,-1.9701,-1.9778,-2.0078,-2.0223,-2.0292,-2.0382,-2.0473,-2.0555,-2.0645,-2.0419,-2.0427,-2.0826,-2.1015,-2.1284,-2.1463,-2.1463,-2.1642,-2.1651,-2.1651,-2.1741,-2.1731,-2.171,-2.166,-2.1636,-2.1652,-2.1183,-2.0486,-2.0116,-1.9786,-1.962,-1.9546,-1.9301,-1.9292,-1.9292,-1.9292,-1.9381,-1.939,-1.939,-1.939,-1.9645,-1.9799,-2.0,-2.0301,-2.0505,-2.0358,-2.025,-1.9991,-1.986,-2.0052,-2.0169,-2.0046,-1.9951,-2.0029,-1.9951,-1.9794,-1.9872,-1.9942,-1.9942,-2.002,-2.002,-1.2781,-1.2593,-1.248,-1.2753,-1.3257,-1.3367,-1.3535,-1.3808,-1.3496,-1.3491,-1.3962,-1.45,-1.4835,-1.5131,-1.5301,-1.5389,-1.5435,-1.5507,-1.5686,-1.5921,-1.611,-1.6277,-1.6421,-1.6566,-1.6492,-1.6409,-1.6327,-1.6492,-1.6648,-1.673,-1.673,-1.673,-1.673,-1.673,-1.673,-1.673,-1.673,-1.673,-1.673,-1.673,-1.6865,-1.7024,-1.7231,-1.7477,-1.7715,-1.7874,-1.8161,-1.8394,-1.8588,-1.8953,-1.9321,-1.923,-1.9304,-1.9573,-1.9564,-1.9504,-1.9778,-2.0069,-2.0266,-2.0292,-2.0473,-2.0555,-2.0628,-2.0587,-2.0368,-2.0572,-2.1051,-2.1329,-2.1507,-2.1633,-2.1633,-2.1713,-2.1713,-2.1667,-2.1667,-2.1719,-2.1641,-2.1686,-2.168,-2.1721,-2.11,-2.0301,-1.9996,-1.9728,-1.9473,-1.932,-1.9292,-1.9292,-1.9292,-1.9292,-1.9301,-1.939,-1.939,-1.9478,-1.9557,-1.9683,-1.9846,-1.9893,-2.0047,-1.9897,-1.9794,-1.9636,-1.9636,-1.9715,-1.9794,-1.9794,-1.9715,-1.9794,-1.9636,-1.9636,-1.9627,-1.9706,-1.9794,-1.9794,-1.9706,-1.2341,-1.2157,-1.2319,-1.2583,-1.2815,-1.3065,-1.3032,-1.2825,-1.3251,-1.347,-1.3499,-1.3793,-1.4246,-1.4638,-1.5105,-1.5245,-1.5305,-1.538,-1.5531,-1.5718,-1.5855,-1.6029,-1.6277,-1.6351,-1.6535,-1.6484,-1.6492,-1.6648,-1.673,-1.673,-1.673,-1.673,-1.673,-1.673,-1.673,-1.673,-1.673,-1.673,-1.673,-1.673,-1.673,-1.6818,-1.6826,-1.7016,-1.7223,-1.7427,-1.7766,-1.8094,-1.8374,-1.8796,-1.9115,-1.911,-1.9144,-1.9247,-1.9316,-1.9333,-1.9624,-1.9966,-2.0121,-2.0249,-2.0456,-2.0709,-2.0639,-2.0625,-2.0554,-2.0658,-2.1013,-2.1237,-2.1459,-2.1569,-2.1587,-2.1658,-2.1649,-2.1502,-2.1438,-2.1475,-2.15,-2.1509,-2.1586,-2.1513,-2.1175,-2.0652,-2.0316,-1.9928,-1.9338,-1.9292,-1.9301,-1.9301,-1.9381,-1.9301,-1.9292,-1.9381,-1.9469,-1.9301,-1.9381,-1.9557,-1.9613,-1.9711,-1.9711,-1.9655,-1.9627,-1.9469,-1.9469,-1.9539,-1.9548,-1.9548,-1.9557,-1.9548,-1.9469,-1.9469,-1.9381,-1.946,-1.9548,-1.9636,-1.9548]},{"header":{"parameterUnit":"m.s-1","parameterCategory":1,"la1":31.0,"la2":29.5877,"lo1":-88.7671,"lo2":-86.6584,"dy":0.0162,"dx":0.0185,"nx":115,"ny":88,"refTime":"2023-07-12T06:00:00:Z","depth":0,"parameterNumber":3,"parameterNumberName":"V-component_of_WINDS"},"data":[0.0,0.0,0.0,0.0,0.0,0.0,0.0,0.0,0.0,0.0,0.0,0.0,0.0,0.0,0.0,0.0,0.0,0.0,0.0,0.0,0.0,0.0,0.0,0.0,0.0,0.0,0.0,0.0,0.0,0.0,0.0,0.0,0.0,0.0,0.0,0.0,0.0,0.0,0.0,0.0,0.0,0.0,0.0,0.0,0.0,0.0,0.0,0.0,0.0,0.0,0.0,0.0,0.0,0.0,0.0,0.0,0.0,0.0,0.0,0.0,0.0,0.0,0.0,0.0,0.0,0.0,0.0,0.0,0.0,0.0,0.0,0.0,0.0,0.0,0.0,0.0,0.0,0.0,0.0,0.0,0.0,0.0,0.0,0.0,0.0,0.0,0.0,0.0,0.0,0.0,0.0,0.0,0.0,0.0,0.0,0.0,0.0,0.0,0.0,0.0,0.0,0.0,0.0,0.0,0.0,0.0,0.0,0.0,0.0,0.0,0.0,0.0,0.0,0.0,0.0,0.0,0.0,0.0,0.0,0.0,0.0,0.0,0.0,0.0,0.0,0.0,0.0,0.0,0.0,0.0,0.0,0.0,0.0,0.0,0.0,0.0,0.0,0.0,0.0,0.0,0.0,0.0,0.0,0.0,0.0,0.0,0.0,0.0,0.0,0.0,0.0,0.0,0.0,0.0,0.0,0.0,0.0,0.0,0.0,0.0,0.0,0.0,0.0,0.0,0.0,0.0,0.0,0.0,0.0,0.0,0.0,0.0,0.0,0.0,0.0,0.0,0.0,0.0,0.0,0.0,0.0,0.0,0.0,0.0,0.0,0.0,0.0,0.0,0.0,0.0,0.0,0.0,0.0,0.0,0.0,0.0,0.0,0.0,0.0,0.0,0.0,0.0,0.0,0.0,0.0,0.0,0.0,0.0,0.0,0.0,0.0,0.0,0.0,0.0,0.0,0.0,0.0,0.0,0.0,0.0,0.0,0.0,0.0,0.0,0.0,0.0,0.0,0.0,0.0,0.0,0.0,0.0,0.0,0.0,0.0,0.0,0.0,0.0,0.0,0.0,0.0,0.0,0.0,0.0,0.0,0.0,0.0,0.0,0.0,0.0,0.0,0.0,0.0,0.0,0.0,0.0,0.0,0.0,0.0,0.0,0.0,0.0,0.0,0.0,0.0,0.0,0.0,0.0,0.0,0.0,0.0,0.0,0.0,0.0,0.0,0.0,0.0,0.0,0.0,0.0,0.0,0.0,0.0,0.0,0.0,0.0,0.0,0.0,0.0,0.0,0.0,0.0,0.0,0.0,0.0,0.0,0.0,0.0,0.0,0.0,0.0,0.0,0.0,0.0,0.0,0.0,0.0,0.0,0.0,0.0,0.0,0.0,0.0,0.0,0.0,0.0,0.0,0.0,0.0,0.0,0.0,0.0,0.0,0.0,0.0,0.0,0.0,0.0,0.0,0.0,0.0,0.0,0.0,0.0,0.0,0.0,0.0,0.0,0.0,0.0,0.0,0.0,0.0,0.0,0.0,0.0,0.0,0.0,0.0,0.0,0.0,0.0,0.0,0.0,0.0,0.0,0.0,0.0,0.0,0.0,0.0,0.0,0.0,0.0,0.0,0.0,0.0,0.0,0.0,0.0,0.0,0.0,0.0,0.0,0.0,0.0,0.0,0.0,0.0,0.0,0.0,0.0,0.0,0.0,0.0,0.0,0.0,0.0,0.0,0.0,0.0,0.0,0.0,0.0,0.0,0.0,0.0,0.0,0.0,0.0,0.0,0.0,0.0,0.0,0.0,0.0,0.0,0.0,0.0,0.0,0.0,0.0,0.0,0.0,0.0,0.0,0.0,0.0,0.0,0.0,0.0,0.0,0.0,0.0,0.0,0.0,0.0,0.0,0.0,0.0,0.0,0.0,0.0,0.0,0.0,0.0,0.0,0.0,0.0,0.0,0.0,0.0,0.0,0.0,0.0,0.0,0.0,0.0,0.0,0.0,0.0,0.0,0.0,0.0,0.0,0.0,0.0,0.0,0.0,0.0,0.0,0.0,0.0,0.0,0.0,0.0,0.0,0.0,0.0,0.0,0.0,0.0,0.0,0.0,0.0,0.0,0.0,0.0,0.0,0.0,0.0,0.0,0.0,0.0,0.0,0.0,0.0,0.0,0.0,0.0,0.0,0.0,0.0,0.0,0.0,0.0,0.0,0.0,0.0,0.0,0.0,0.0,0.0,0.0,0.0,0.0,0.0,0.0,0.0,0.0,0.0,0.0,0.0,0.0,0.0,0.0,0.0,0.0,0.0,0.0,0.0,0.0,0.0,0.0,0.0,0.0,0.0,0.0,0.0,0.0,0.0,0.0,0.0,0.0,0.0,0.0,0.0,0.0,0.0,0.0,0.0,0.0,0.0,0.0,0.0,0.0,0.0,0.0,0.0,0.0,0.0,0.0,0.0,0.0,0.0,0.0,0.0,0.0,0.0,0.0,0.0,0.0,0.0,0.0,0.0,0.0,0.0,0.0,0.0,0.0,0.0,0.0,0.0,0.0,0.0,0.0,0.0,0.0,0.0,0.0,0.0,0.0,0.0,0.0,0.0,0.0,0.0,0.0,0.0,0.0,0.0,0.0,0.0,0.0,0.0,0.0,0.0,0.0,0.0,0.0,0.0,0.0,0.0,0.0,0.0,0.0,0.0,0.0,0.0,0.0,0.0,0.0,0.0,0.0,0.0,0.0,0.0,0.0,0.0,0.0,0.0,0.0,0.0,0.0,0.0,0.0,0.0,0.0,0.0,0.0,0.0,0.0,0.0,0.0,0.0,0.0,0.0,0.0,0.0,0.0,0.0,0.0,0.0,0.0,0.0,0.0,0.0,0.0,0.0,0.0,0.0,0.0,0.0,0.0,0.0,0.0,0.0,0.0,0.0,0.0,0.0,0.0,0.0,0.0,0.0,0.0,0.0,0.0,0.0,0.0,0.0,0.0,0.0,0.0,0.0,0.0,0.0,0.0,0.0,0.0,0.0,0.0,0.0,0.0,0.0,0.0,0.0,0.0,0.0,0.0,0.0,0.0,0.0,0.0,0.0,0.0,0.0,0.0,0.0,0.0,0.0,0.0,0.0,0.0,0.0,0.0,0.0,0.0,0.0,0.0,0.0,0.0,0.0,0.0,0.0,0.0,0.0,0.0,0.0,0.0,0.0,0.0,0.0,0.0,0.0,0.0,0.0,0.0,0.0,0.0,0.0,0.0,0.0,0.0,0.0,0.0,0.0,0.0,0.0,0.0,0.0,0.0,0.0,0.0,0.0,0.0,0.0,0.0,0.0,0.0,0.0,0.0,0.0,0.0,0.0,0.0,0.0,0.0,0.0,0.0,0.0,0.0,0.0,0.0,0.0,0.0,0.0,0.0,0.0,0.0,0.0,0.0,0.0,0.0,0.0,0.0,0.0,0.0,0.0,0.0,0.0,0.0,0.0,0.0,0.0,0.0,0.0,0.0,0.0,0.0,0.0,0.0,0.0,0.0,0.0,0.0,0.0,0.0,0.0,0.0,0.0,0.0,0.0,0.0,0.0,0.0,0.0,0.0,0.0,0.0,0.0,0.0,0.0,0.0,0.0,0.0,0.0,0.0,0.0,0.0,0.0,0.0,0.0,0.0,0.0,0.0,0.0,0.0,0.0,0.0,0.0,0.0,0.0,0.0,0.0,0.0,0.0,0.0,0.0,0.0,0.0,0.0,0.0,0.0,0.0,0.0,0.0,0.0,0.0,0.0,0.0,0.0,0.0,0.0,0.0,0.0,0.0,0.0,0.0,0.0,0.0,0.0,0.0,0.0,0.0,0.0,0.0,0.0,0.0,0.0,0.0,0.0,0.0,0.0,0.0,0.0,0.0,0.0,0.0,0.0,0.0,0.0,0.0,0.0,0.0,0.0,0.0,0.0,0.0,0.0,0.0,0.0,0.0,0.0,0.0,0.0,0.0,0.0,0.0,0.0,0.0,0.0,0.0,0.0,0.0,0.0,0.0,0.0,0.0,0.0,0.0,0.0,0.0,0.0,0.0,0.0,0.0,0.0,0.0,0.0,0.0,0.0,0.0,0.0,0.0,0.0,0.0,0.0,0.0,0.0,0.0,0.0,0.0,0.0,0.0,0.0,0.0,0.0,0.0,0.0,0.0,0.0,0.0,0.0,0.0,0.0,0.0,0.0,0.0,0.0,0.0,0.0,0.0,0.0,0.0,0.0,0.0,0.0,0.0,0.0,0.0,0.0,0.0,0.0,0.0,0.0,-2.0974,0.0,0.0,0.0,0.0,0.0,0.0,0.0,0.0,0.0,0.0,0.0,0.0,0.0,0.0,0.0,0.0,0.0,0.0,0.0,0.0,0.0,0.0,0.0,0.0,0.0,0.0,0.0,0.0,0.0,0.0,0.0,0.0,0.0,0.0,0.0,0.0,0.0,0.0,0.0,0.0,0.0,0.0,0.0,0.0,0.0,0.0,0.0,0.0,0.0,0.0,0.0,0.0,0.0,0.0,0.0,0.0,0.0,0.0,0.0,0.0,0.0,0.0,0.0,0.0,0.0,0.0,0.0,0.0,0.0,0.0,0.0,0.0,0.0,0.0,0.0,0.0,0.0,0.0,0.0,0.0,0.0,0.0,0.0,0.0,0.0,0.0,0.0,0.0,0.0,0.0,0.0,0.0,0.0,0.0,0.0,0.0,0.0,0.0,0.0,0.0,0.0,0.0,0.0,0.0,0.0,0.0,0.0,0.0,0.0,0.0,-2.144,-2.0777,-2.1287,-2.1334,-2.0826,0.0,0.0,0.0,0.0,0.0,0.0,0.0,0.0,0.0,0.0,0.0,0.0,0.0,0.0,0.0,0.0,0.0,0.0,0.0,0.0,0.0,0.0,0.0,0.0,0.0,0.0,0.0,0.0,0.0,0.0,0.0,0.0,0.0,0.0,0.0,0.0,0.0,0.0,0.0,0.0,0.0,0.0,0.0,0.0,0.0,0.0,0.0,0.0,0.0,0.0,0.0,0.0,0.0,0.0,0.0,0.0,0.0,0.0,0.0,0.0,0.0,0.0,0.0,0.0,0.0,0.0,0.0,0.0,0.0,0.0,0.0,0.0,0.0,0.0,0.0,0.0,0.0,0.0,0.0,0.0,0.0,0.0,0.0,0.0,0.0,0.0,0.0,0.0,0.0,0.0,0.0,0.0,0.0,0.0,0.0,0.0,0.0,0.0,0.0,0.0,0.0,0.0,0.0,0.0,0.0,0.0,0.0,0.0,0.0,0.0,0.0,0.0,-2.1337,-2.1435,-2.1145,0.0,0.0,0.0,0.0,0.0,0.0,0.0,0.0,0.0,0.0,0.0,0.0,0.0,0.0,0.0,0.0,0.0,0.0,0.0,0.0,0.0,0.0,0.0,0.0,0.0,0.0,0.0,0.0,0.0,0.0,0.0,0.0,0.0,0.0,0.0,0.0,0.0,0.0,0.0,0.0,0.0,0.0,0.0,0.0,0.0,0.0,0.0,0.0,0.0,0.0,0.0,0.0,0.0,0.0,0.0,0.0,0.0,0.0,0.0,0.0,0.0,0.0,0.0,0.0,0.0,0.0,0.0,0.0,0.0,0.0,0.0,0.0,0.0,0.0,0.0,0.0,0.0,0.0,0.0,0.0,0.0,0.0,0.0,0.0,0.0,0.0,0.0,0.0,0.0,0.0,0.0,0.0,0.0,0.0,0.0,0.0,0.0,0.0,0.0,0.0,0.0,0.0,0.0,0.0,0.0,0.0,0.0,0.0,0.0,0.0,-2.1011,-2.2591,-2.2254,0.0,-2.2294,0.0,0.0,0.0,0.0,0.0,0.0,0.0,0.0,0.0,0.0,0.0,0.0,0.0,0.0,0.0,0.0,0.0,0.0,0.0,0.0,0.0,0.0,0.0,0.0,0.0,0.0,0.0,0.0,0.0,0.0,0.0,0.0,0.0,0.0,0.0,0.0,0.0,0.0,0.0,0.0,0.0,0.0,0.0,0.0,0.0,0.0,0.0,0.0,0.0,0.0,0.0,0.0,0.0,0.0,0.0,0.0,0.0,0.0,0.0,0.0,0.0,0.0,0.0,0.0,0.0,0.0,0.0,0.0,0.0,0.0,0.0,0.0,0.0,0.0,0.0,0.0,0.0,0.0,0.0,0.0,0.0,0.0,0.0,0.0,0.0,0.0,0.0,0.0,0.0,0.0,0.0,0.0,0.0,0.0,0.0,0.0,0.0,0.0,0.0,0.0,0.0,0.0,0.0,0.0,0.0,0.0,0.0,0.0,0.0,0.0,-2.1644,-2.2772,-2.2313,-2.1972,0.0,0.0,0.0,0.0,0.0,0.0,0.0,0.0,0.0,0.0,0.0,0.0,0.0,0.0,0.0,0.0,0.0,0.0,0.0,0.0,0.0,0.0,0.0,0.0,0.0,0.0,0.0,0.0,0.0,0.0,0.0,0.0,0.0,0.0,0.0,0.0,0.0,0.0,0.0,0.0,0.0,0.0,0.0,0.0,0.0,0.0,0.0,0.0,0.0,0.0,0.0,0.0,0.0,0.0,0.0,0.0,0.0,0.0,0.0,0.0,0.0,0.0,0.0,0.0,0.0,0.0,0.0,0.0,0.0,0.0,0.0,0.0,0.0,0.0,0.0,0.0,0.0,0.0,0.0,0.0,0.0,0.0,0.0,0.0,0.0,0.0,0.0,0.0,0.0,0.0,0.0,0.0,0.0,0.0,0.0,0.0,0.0,0.0,0.0,0.0,0.0,0.0,0.0,0.0,0.0,0.0,0.0,0.0,0.0,0.0,-2.1977,-2.2088,-2.2715,-2.242,-2.2058,-2.1659,0.0,0.0,0.0,0.0,0.0,0.0,0.0,0.0,0.0,0.0,0.0,0.0,0.0,0.0,0.0,0.0,0.0,0.0,0.0,0.0,0.0,0.0,0.0,0.0,0.0,0.0,0.0,0.0,0.0,0.0,0.0,0.0,0.0,0.0,0.0,0.0,0.0,0.0,0.0,0.0,0.0,0.0,0.0,0.0,0.0,0.0,0.0,0.0,0.0,0.0,0.0,0.0,0.0,0.0,0.0,0.0,0.0,0.0,0.0,0.0,0.0,0.0,0.0,0.0,0.0,0.0,0.0,0.0,0.0,0.0,0.0,0.0,0.0,0.0,0.0,0.0,0.0,0.0,0.0,0.0,0.0,0.0,0.0,0.0,0.0,0.0,0.0,0.0,0.0,0.0,0.0,0.0,0.0,0.0,0.0,0.0,0.0,0.0,0.0,0.0,0.0,0.0,0.0,0.0,0.0,0.0,0.0,0.0,-2.3511,-2.229,-2.2067,-2.2969,-2.2879,-2.2659,0.0,0.0,0.0,0.0,0.0,0.0,0.0,0.0,0.0,0.0,0.0,0.0,0.0,0.0,0.0,0.0,0.0,0.0,0.0,0.0,0.0,0.0,0.0,0.0,0.0,0.0,0.0,0.0,0.0,0.0,0.0,0.0,0.0,0.0,0.0,0.0,0.0,0.0,0.0,0.0,0.0,0.0,0.0,0.0,0.0,0.0,0.0,0.0,0.0,0.0,0.0,0.0,0.0,0.0,0.0,0.0,0.0,0.0,0.0,0.0,0.0,0.0,0.0,0.0,0.0,0.0,0.0,0.0,0.0,0.0,0.0,0.0,0.0,0.0,0.0,0.0,0.0,0.0,0.0,0.0,0.0,0.0,0.0,0.0,0.0,0.0,0.0,0.0,0.0,0.0,0.0,0.0,0.0,0.0,0.0,0.0,0.0,0.0,0.0,0.0,0.0,0.0,0.0,0.0,0.0,0.0,0.0,0.0,0.0,-2.289,-2.2456,-2.24,-2.2839,-2.2349,-2.2091,0.0,0.0,0.0,0.0,0.0,0.0,0.0,0.0,0.0,0.0,0.0,0.0,0.0,0.0,0.0,0.0,0.0,0.0,0.0,0.0,0.0,0.0,0.0,0.0,0.0,0.0,0.0,0.0,0.0,0.0,0.0,0.0,0.0,0.0,0.0,0.0,0.0,0.0,0.0,0.0,0.0,0.0,0.0,0.0,0.0,0.0,0.0,0.0,0.0,0.0,0.0,0.0,0.0,0.0,0.0,0.0,0.0,0.0,0.0,0.0,0.0,0.0,0.0,0.0,0.0,0.0,0.0,0.0,0.0,0.0,0.0,0.0,0.0,0.0,0.0,0.0,0.0,0.0,0.0,0.0,0.0,0.0,0.0,0.0,0.0,0.0,0.0,0.0,0.0,0.0,0.0,0.0,0.0,0.0,0.0,0.0,0.0,0.0,0.0,0.0,0.0,0.0,0.0,0.0,0.0,0.0,0.0,0.0,0.0,-2.238,0.0,-2.2442,-2.2485,-2.1959,-2.1631,0.0,0.0,0.0,0.0,0.0,0.0,0.0,0.0,0.0,0.0,0.0,0.0,0.0,0.0,0.0,0.0,0.0,0.0,0.0,0.0,0.0,0.0,0.0,0.0,0.0,0.0,0.0,0.0,0.0,0.0,0.0,0.0,0.0,0.0,0.0,0.0,0.0,0.0,0.0,0.0,0.0,0.0,0.0,0.0,0.0,0.0,0.0,0.0,0.0,0.0,0.0,0.0,0.0,0.0,0.0,0.0,0.0,0.0,0.0,0.0,0.0,0.0,0.0,0.0,0.0,0.0,0.0,0.0,0.0,0.0,0.0,0.0,0.0,0.0,0.0,0.0,0.0,0.0,0.0,0.0,0.0,0.0,0.0,0.0,0.0,0.0,0.0,0.0,0.0,0.0,0.0,0.0,0.0,0.0,0.0,0.0,0.0,0.0,0.0,0.0,0.0,0.0,0.0,0.0,0.0,0.0,0.0,0.0,-2.2101,-2.2081,-2.2072,-2.2052,-2.192,-2.1839,-2.1299,0.0,0.0,0.0,0.0,0.0,0.0,0.0,0.0,0.0,0.0,0.0,0.0,0.0,0.0,0.0,0.0,0.0,0.0,0.0,0.0,0.0,0.0,0.0,0.0,0.0,0.0,0.0,0.0,0.0,0.0,0.0,0.0,0.0,0.0,0.0,0.0,0.0,0.0,0.0,0.0,0.0,0.0,0.0,0.0,0.0,0.0,0.0,0.0,0.0,0.0,0.0,0.0,0.0,0.0,0.0,0.0,0.0,0.0,0.0,0.0,0.0,0.0,0.0,0.0,0.0,0.0,0.0,0.0,0.0,0.0,0.0,0.0,0.0,0.0,0.0,0.0,0.0,0.0,0.0,0.0,0.0,0.0,0.0,0.0,0.0,0.0,0.0,0.0,0.0,0.0,0.0,0.0,0.0,0.0,0.0,0.0,0.0,0.0,0.0,0.0,0.0,0.0,0.0,0.0,0.0,0.0,0.0,0.0,0.0,-2.1053,-2.1219,-2.1803,-2.2665,-2.16,-2.1193,0.0,0.0,0.0,0.0,0.0,0.0,0.0,0.0,0.0,0.0,0.0,0.0,0.0,0.0,0.0,0.0,0.0,0.0,0.0,0.0,0.0,0.0,0.0,0.0,0.0,0.0,0.0,0.0,0.0,0.0,0.0,0.0,0.0,0.0,0.0,0.0,0.0,0.0,0.0,0.0,0.0,0.0,0.0,0.0,0.0,0.0,0.0,0.0,0.0,0.0,0.0,0.0,0.0,0.0,0.0,0.0,0.0,0.0,0.0,0.0,0.0,0.0,0.0,0.0,0.0,0.0,0.0,0.0,0.0,0.0,0.0,0.0,0.0,0.0,0.0,0.0,0.0,0.0,0.0,0.0,0.0,0.0,0.0,0.0,0.0,0.0,0.0,0.0,0.0,0.0,0.0,0.0,0.0,0.0,0.0,0.0,0.0,0.0,0.0,0.0,0.0,0.0,0.0,0.0,0.0,0.0,0.0,0.0,0.0,-2.0564,-2.1119,-2.1807,-2.2501,-2.1475,-2.1211,-2.1848,0.0,0.0,0.0,0.0,0.0,0.0,0.0,0.0,0.0,0.0,0.0,0.0,0.0,0.0,0.0,0.0,0.0,0.0,0.0,0.0,0.0,0.0,0.0,0.0,0.0,0.0,0.0,0.0,0.0,0.0,0.0,0.0,0.0,0.0,0.0,0.0,0.0,0.0,0.0,0.0,0.0,0.0,0.0,0.0,0.0,0.0,0.0,0.0,0.0,0.0,0.0,0.0,0.0,0.0,0.0,0.0,0.0,0.0,0.0,0.0,0.0,0.0,0.0,0.0,0.0,0.0,0.0,0.0,0.0,0.0,0.0,0.0,0.0,0.0,0.0,0.0,0.0,0.0,0.0,0.0,0.0,0.0,0.0,0.0,0.0,0.0,0.0,0.0,0.0,0.0,0.0,0.0,0.0,0.0,0.0,0.0,0.0,0.0,0.0,0.0,0.0,0.0,0.0,0.0,0.0,0.0,0.0,0.0,-2.0408,-2.1611,-2.2017,-2.1596,-2.151,-2.1399,0.0,0.0,0.0,0.0,0.0,0.0,0.0,0.0,0.0,0.0,0.0,0.0,0.0,0.0,0.0,0.0,0.0,0.0,0.0,0.0,0.0,0.0,0.0,0.0,0.0,0.0,0.0,0.0,0.0,0.0,0.0,0.0,0.0,0.0,0.0,0.0,0.0,0.0,0.0,0.0,0.0,0.0,0.0,0.0,0.0,0.0,0.0,0.0,0.0,0.0,0.0,0.0,0.0,0.0,0.0,0.0,0.0,0.0,0.0,0.0,0.0,0.0,0.0,0.0,0.0,0.0,0.0,0.0,0.0,0.0,0.0,0.0,0.0,0.0,0.0,0.0,0.0,0.0,0.0,0.0,0.0,0.0,0.0,0.0,0.0,0.0,0.0,0.0,0.0,0.0,0.0,0.0,0.0,0.0,0.0,0.0,0.0,0.0,0.0,0.0,0.0,0.0,0.0,0.0,0.0,0.0,0.0,0.0,0.0,-2.0617,-2.1812,-2.2545,-2.2546,-2.1579,-2.133,0.0,0.0,0.0,0.0,0.0,0.0,0.0,0.0,0.0,0.0,0.0,0.0,0.0,0.0,0.0,0.0,0.0,0.0,0.0,0.0,0.0,0.0,0.0,0.0,0.0,0.0,0.0,0.0,0.0,0.0,0.0,0.0,0.0,0.0,0.0,0.0,0.0,0.0,0.0,0.0,0.0,0.0,0.0,0.0,0.0,0.0,0.0,0.0,0.0,0.0,0.0,0.0,0.0,0.0,0.0,0.0,0.0,0.0,0.0,0.0,0.0,0.0,0.0,0.0,0.0,0.0,0.0,0.0,0.0,0.0,0.0,0.0,0.0,0.0,0.0,0.0,0.0,0.0,0.0,0.0,0.0,0.0,0.0,0.0,0.0,0.0,0.0,0.0,0.0,0.0,0.0,0.0,0.0,0.0,0.0,0.0,0.0,0.0,0.0,0.0,0.0,0.0,0.0,0.0,0.0,0.0,0.0,0.0,-2.0842,-2.0775,-2.1711,-2.2353,-2.2527,-2.18,-2.1758,0.0,0.0,0.0,0.0,0.0,0.0,0.0,0.0,0.0,0.0,0.0,0.0,0.0,0.0,0.0,0.0,0.0,0.0,0.0,0.0,0.0,0.0,0.0,0.0,0.0,0.0,0.0,0.0,0.0,0.0,0.0,0.0,0.0,0.0,0.0,0.0,0.0,0.0,0.0,0.0,0.0,0.0,0.0,0.0,0.0,0.0,0.0,0.0,0.0,0.0,0.0,0.0,0.0,0.0,0.0,0.0,0.0,0.0,0.0,0.0,0.0,0.0,0.0,0.0,0.0,0.0,0.0,0.0,0.0,0.0,0.0,0.0,0.0,0.0,0.0,0.0,0.0,0.0,0.0,0.0,0.0,0.0,0.0,0.0,0.0,0.0,0.0,0.0,0.0,0.0,0.0,0.0,0.0,0.0,0.0,0.0,0.0,0.0,0.0,0.0,0.0,0.0,0.0,0.0,0.0,0.0,0.0,0.0,-2.1177,-2.0959,-2.1578,-2.1967,-2.2021,-2.2009,-2.2284,0.0,0.0,0.0,0.0,0.0,0.0,0.0,0.0,0.0,0.0,0.0,0.0,0.0,0.0,0.0,0.0,0.0,0.0,0.0,0.0,0.0,0.0,0.0,0.0,0.0,0.0,0.0,0.0,0.0,0.0,0.0,0.0,0.0,0.0,0.0,0.0,0.0,0.0,0.0,0.0,0.0,0.0,0.0,0.0,0.0,0.0,0.0,0.0,0.0,0.0,0.0,0.0,0.0,0.0,0.0,0.0,0.0,0.0,0.0,0.0,0.0,0.0,0.0,0.0,0.0,0.0,0.0,0.0,0.0,0.0,0.0,0.0,0.0,0.0,0.0,0.0,0.0,0.0,0.0,0.0,0.0,0.0,0.0,0.0,0.0,0.0,0.0,0.0,0.0,0.0,0.0,0.0,0.0,0.0,0.0,0.0,0.0,0.0,0.0,0.0,0.0,0.0,0.0,0.0,0.0,0.0,0.0,0.0,-2.1258,-2.1242,-2.2402,-2.2911,-2.2842,-2.1818,-2.1589,0.0,0.0,0.0,0.0,0.0,0.0,0.0,0.0,0.0,0.0,0.0,0.0,0.0,0.0,0.0,0.0,0.0,0.0,0.0,0.0,0.0,0.0,0.0,0.0,0.0,0.0,0.0,0.0,0.0,0.0,0.0,0.0,0.0,0.0,0.0,0.0,0.0,0.0,0.0,0.0,0.0,0.0,0.0,0.0,0.0,0.0,0.0,0.0,-2.3557,0.0,0.0,0.0,0.0,0.0,0.0,0.0,0.0,0.0,0.0,0.0,0.0,0.0,0.0,0.0,0.0,0.0,0.0,0.0,0.0,0.0,0.0,0.0,0.0,0.0,0.0,0.0,0.0,0.0,0.0,0.0,0.0,0.0,0.0,0.0,0.0,0.0,0.0,0.0,0.0,0.0,0.0,0.0,0.0,0.0,0.0,0.0,0.0,0.0,0.0,0.0,0.0,0.0,0.0,0.0,0.0,0.0,0.0,0.0,-2.1064,-2.0861,-2.1871,-2.238,-2.2308,-2.2349,-2.2476,0.0,0.0,0.0,0.0,0.0,0.0,0.0,0.0,0.0,0.0,0.0,0.0,0.0,0.0,0.0,0.0,0.0,0.0,0.0,0.0,0.0,0.0,0.0,0.0,0.0,0.0,0.0,0.0,0.0,0.0,0.0,0.0,0.0,0.0,0.0,0.0,0.0,0.0,0.0,0.0,0.0,0.0,0.0,0.0,0.0,0.0,0.0,0.0,0.0,0.0,0.0,0.0,0.0,0.0,0.0,0.0,0.0,0.0,0.0,0.0,0.0,0.0,0.0,0.0,0.0,0.0,0.0,0.0,0.0,0.0,0.0,0.0,0.0,0.0,0.0,0.0,0.0,0.0,0.0,0.0,0.0,0.0,0.0,0.0,0.0,0.0,0.0,0.0,0.0,0.0,0.0,0.0,0.0,0.0,0.0,0.0,0.0,0.0,0.0,0.0,0.0,0.0,0.0,0.0,0.0,0.0,0.0,-2.0143,-2.069,-2.0525,-2.1144,-2.1581,-2.1531,-2.3039,-2.384,-2.3824,0.0,0.0,0.0,0.0,0.0,0.0,0.0,0.0,0.0,0.0,0.0,0.0,0.0,0.0,0.0,0.0,0.0,0.0,0.0,0.0,0.0,0.0,0.0,0.0,0.0,0.0,0.0,0.0,0.0,0.0,0.0,0.0,0.0,0.0,0.0,0.0,0.0,0.0,-2.3886,-2.4343,0.0,0.0,0.0,0.0,0.0,0.0,0.0,0.0,-2.419,0.0,0.0,0.0,0.0,0.0,0.0,0.0,0.0,0.0,0.0,0.0,0.0,0.0,0.0,0.0,0.0,0.0,0.0,0.0,0.0,0.0,0.0,0.0,0.0,0.0,0.0,0.0,0.0,0.0,0.0,0.0,0.0,0.0,0.0,0.0,0.0,0.0,0.0,0.0,0.0,0.0,0.0,0.0,0.0,0.0,0.0,0.0,0.0,0.0,0.0,0.0,0.0,0.0,0.0,0.0,0.0,-1.9422,-1.9722,-2.0258,-2.1102,-2.1527,-2.1931,-2.2218,-2.3382,-2.4153,-2.4464,0.0,0.0,0.0,0.0,0.0,0.0,0.0,0.0,0.0,0.0,0.0,0.0,0.0,0.0,0.0,0.0,0.0,0.0,0.0,0.0,0.0,0.0,0.0,0.0,0.0,0.0,0.0,0.0,0.0,0.0,0.0,0.0,0.0,0.0,0.0,0.0,0.0,0.0,0.0,-2.4379,-2.4313,0.0,0.0,0.0,0.0,0.0,0.0,0.0,0.0,-2.4704,0.0,0.0,0.0,0.0,0.0,0.0,0.0,0.0,0.0,0.0,0.0,0.0,0.0,0.0,0.0,0.0,0.0,0.0,0.0,0.0,0.0,0.0,0.0,0.0,0.0,0.0,0.0,0.0,0.0,0.0,0.0,0.0,0.0,0.0,0.0,0.0,0.0,0.0,0.0,0.0,0.0,0.0,0.0,0.0,0.0,0.0,0.0,0.0,0.0,0.0,0.0,0.0,0.0,0.0,0.0,-1.9605,-2.0162,-2.0769,-2.1441,-2.1892,-2.2302,-2.2548,-2.3886,-2.4646,0.0,0.0,0.0,0.0,0.0,0.0,0.0,0.0,0.0,0.0,0.0,0.0,0.0,0.0,0.0,0.0,0.0,0.0,0.0,0.0,0.0,0.0,0.0,0.0,0.0,0.0,0.0,0.0,0.0,0.0,0.0,0.0,0.0,0.0,0.0,0.0,0.0,0.0,0.0,0.0,-2.4708,-2.4912,-2.4656,0.0,0.0,0.0,0.0,0.0,0.0,-2.5129,-2.5581,0.0,0.0,0.0,0.0,0.0,0.0,0.0,0.0,0.0,0.0,0.0,0.0,0.0,0.0,0.0,0.0,0.0,0.0,0.0,0.0,0.0,0.0,0.0,0.0,0.0,0.0,0.0,0.0,0.0,0.0,0.0,0.0,0.0,0.0,0.0,0.0,0.0,0.0,0.0,0.0,0.0,0.0,0.0,0.0,0.0,0.0,0.0,0.0,0.0,0.0,0.0,0.0,0.0,0.0,0.0,-1.9831,-2.0773,-2.1398,-2.1793,-2.2269,-2.2714,-2.3096,-2.4623,-2.5253,0.0,0.0,0.0,0.0,0.0,0.0,0.0,0.0,0.0,0.0,0.0,0.0,0.0,0.0,0.0,0.0,0.0,0.0,0.0,0.0,0.0,0.0,0.0,0.0,0.0,0.0,0.0,0.0,0.0,0.0,0.0,0.0,0.0,0.0,0.0,0.0,0.0,0.0,0.0,0.0,0.0,-2.5735,-2.5179,-2.5717,0.0,0.0,0.0,0.0,-2.5753,-2.6261,0.0,0.0,0.0,0.0,0.0,0.0,0.0,0.0,0.0,0.0,0.0,0.0,0.0,0.0,0.0,0.0,0.0,0.0,0.0,0.0,0.0,0.0,0.0,0.0,0.0,0.0,0.0,0.0,0.0,0.0,0.0,0.0,0.0,0.0,0.0,0.0,0.0,0.0,0.0,0.0,0.0,0.0,0.0,0.0,0.0,0.0,0.0,0.0,0.0,0.0,0.0,0.0,0.0,0.0,0.0,0.0,-2.0482,-2.0815,-2.1421,-2.2413,-2.2603,-2.3212,-2.433,-2.546,-2.6102,0.0,0.0,0.0,0.0,0.0,0.0,0.0,0.0,0.0,0.0,0.0,0.0,0.0,0.0,0.0,0.0,0.0,0.0,0.0,0.0,0.0,0.0,0.0,0.0,0.0,0.0,0.0,0.0,0.0,0.0,0.0,0.0,0.0,0.0,0.0,0.0,0.0,0.0,0.0,0.0,0.0,-2.6863,-2.5932,-2.6531,-2.6732,0.0,0.0,-2.6155,-2.6155,-2.7066,0.0,0.0,0.0,0.0,0.0,0.0,0.0,0.0,0.0,0.0,0.0,0.0,0.0,0.0,0.0,0.0,0.0,0.0,0.0,0.0,0.0,0.0,0.0,0.0,0.0,0.0,0.0,0.0,0.0,0.0,0.0,0.0,0.0,0.0,0.0,0.0,0.0,0.0,0.0,0.0,0.0,0.0,0.0,0.0,0.0,0.0,0.0,0.0,0.0,0.0,0.0,0.0,0.0,0.0,0.0,-2.1594,-2.1902,-2.2604,-2.3237,-2.3775,-2.4225,-2.4848,-2.5573,-2.6,-2.6245,0.0,0.0,0.0,0.0,0.0,0.0,0.0,0.0,0.0,0.0,0.0,0.0,0.0,0.0,0.0,0.0,0.0,0.0,0.0,0.0,0.0,0.0,0.0,0.0,0.0,0.0,0.0,0.0,0.0,0.0,0.0,0.0,0.0,0.0,0.0,0.0,0.0,0.0,0.0,0.0,0.0,0.0,-2.7076,-2.734,0.0,0.0,0.0,-2.6802,-2.7088,0.0,0.0,0.0,0.0,0.0,0.0,0.0,0.0,0.0,0.0,0.0,0.0,0.0,0.0,0.0,0.0,0.0,0.0,0.0,0.0,0.0,0.0,0.0,0.0,0.0,0.0,0.0,0.0,0.0,0.0,0.0,0.0,0.0,0.0,0.0,0.0,0.0,0.0,0.0,0.0,0.0,0.0,0.0,0.0,0.0,0.0,0.0,0.0,0.0,0.0,0.0,0.0,0.0,0.0,0.0,0.0,0.0,-2.3379,-2.4297,-2.4891,-2.4969,-2.5627,-2.6183,-2.6731,-2.6737,0.0,0.0,0.0,0.0,0.0,0.0,0.0,0.0,0.0,0.0,0.0,0.0,0.0,0.0,0.0,0.0,0.0,0.0,0.0,0.0,0.0,0.0,0.0,0.0,0.0,0.0,0.0,-2.4927,0.0,0.0,0.0,0.0,0.0,0.0,0.0,0.0,0.0,0.0,0.0,0.0,0.0,0.0,-2.8173,-2.7893,-2.7953,-2.8268,0.0,0.0,-2.749,-2.7914,-2.8412,-2.8529,0.0,0.0,0.0,0.0,0.0,0.0,0.0,0.0,0.0,0.0,0.0,0.0,0.0,0.0,0.0,0.0,0.0,0.0,0.0,0.0,0.0,0.0,0.0,0.0,0.0,0.0,0.0,0.0,0.0,0.0,0.0,0.0,0.0,0.0,0.0,0.0,0.0,0.0,0.0,0.0,0.0,0.0,0.0,0.0,0.0,0.0,0.0,0.0,0.0,0.0,0.0,0.0,0.0,0.0,-2.362,-2.4502,-2.5172,-2.5578,-2.5742,-2.6126,-2.6744,-2.7604,-2.8101,-2.8091,0.0,0.0,0.0,0.0,0.0,0.0,0.0,0.0,0.0,0.0,0.0,0.0,0.0,0.0,0.0,0.0,0.0,0.0,0.0,0.0,0.0,0.0,0.0,0.0,0.0,0.0,0.0,0.0,0.0,0.0,0.0,0.0,0.0,0.0,0.0,0.0,0.0,0.0,0.0,0.0,0.0,-2.8607,-2.8032,-2.8338,-2.8843,0.0,-2.8766,-2.8349,-2.8326,-2.9301,-2.9457,-2.773,0.0,0.0,0.0,0.0,0.0,0.0,0.0,0.0,0.0,0.0,0.0,0.0,0.0,0.0,0.0,0.0,0.0,0.0,0.0,0.0,0.0,0.0,0.0,0.0,0.0,0.0,0.0,0.0,0.0,0.0,0.0,0.0,0.0,0.0,0.0,0.0,0.0,0.0,0.0,0.0,0.0,0.0,0.0,0.0,0.0,0.0,0.0,0.0,0.0,0.0,0.0,0.0,0.0,-2.5077,-2.5006,-2.6419,-2.7015,-2.6854,-2.7078,-2.7615,-2.8546,-2.8202,-2.8019,0.0,0.0,0.0,0.0,0.0,0.0,0.0,0.0,0.0,0.0,0.0,0.0,0.0,0.0,0.0,0.0,0.0,0.0,0.0,0.0,0.0,0.0,0.0,0.0,0.0,0.0,0.0,0.0,-2.5486,-2.5087,-2.6075,0.0,0.0,0.0,0.0,0.0,0.0,0.0,0.0,0.0,0.0,-2.8723,-2.8799,-2.8962,0.0,0.0,-2.9635,-2.9039,-2.9425,-2.9836,-2.9784,-2.8765,-2.8791,0.0,0.0,0.0,0.0,0.0,0.0,0.0,0.0,0.0,0.0,0.0,0.0,0.0,0.0,0.0,0.0,0.0,0.0,0.0,0.0,0.0,0.0,0.0,0.0,0.0,0.0,0.0,0.0,0.0,0.0,0.0,0.0,0.0,0.0,0.0,0.0,0.0,0.0,0.0,0.0,0.0,0.0,0.0,0.0,0.0,0.0,0.0,0.0,0.0,0.0,0.0,0.0,-2.6565,-2.6218,-2.7575,-2.8118,-2.7881,-2.7786,-2.8228,-2.9156,-2.8503,-2.8137,0.0,0.0,0.0,0.0,0.0,0.0,0.0,0.0,0.0,0.0,0.0,0.0,0.0,0.0,0.0,0.0,0.0,0.0,0.0,0.0,0.0,0.0,0.0,0.0,0.0,0.0,0.0,0.0,-2.6828,-2.6323,-2.6997,0.0,0.0,0.0,0.0,0.0,0.0,0.0,0.0,0.0,0.0,-2.9,-2.9222,-2.9455,-2.9925,-3.0908,-3.018,-2.9658,-3.0051,-3.0064,-2.9941,-2.9366,0.0,0.0,0.0,0.0,0.0,0.0,0.0,0.0,0.0,0.0,0.0,0.0,0.0,0.0,0.0,0.0,0.0,0.0,0.0,0.0,0.0,0.0,0.0,0.0,0.0,0.0,0.0,0.0,0.0,0.0,-2.7625,0.0,0.0,0.0,0.0,0.0,0.0,0.0,0.0,0.0,0.0,0.0,0.0,0.0,0.0,0.0,0.0,0.0,0.0,0.0,0.0,0.0,0.0,-2.7908,-2.8505,-2.8546,-2.8638,-2.8776,-2.8214,-2.845,-2.956,-2.9153,-2.8811,-2.8595,0.0,0.0,0.0,0.0,0.0,0.0,0.0,0.0,0.0,0.0,0.0,0.0,0.0,0.0,0.0,0.0,0.0,0.0,0.0,0.0,0.0,0.0,0.0,0.0,0.0,0.0,-2.895,-2.8803,-2.8332,0.0,0.0,0.0,0.0,0.0,0.0,0.0,0.0,0.0,0.0,-2.871,-2.9544,-2.9358,-2.9915,-3.0493,-3.0908,-3.0503,-3.0077,-3.0077,-3.0077,-2.9941,0.0,0.0,0.0,0.0,0.0,0.0,0.0,0.0,0.0,0.0,0.0,0.0,0.0,0.0,0.0,0.0,0.0,0.0,0.0,0.0,0.0,0.0,0.0,0.0,0.0,0.0,0.0,-2.8919,-2.922,0.0,0.0,0.0,0.0,0.0,0.0,0.0,0.0,0.0,0.0,0.0,-3.0896,-3.1258,0.0,0.0,0.0,0.0,0.0,0.0,0.0,0.0,0.0,0.0,0.0,0.0,-2.7434,-2.7592,-2.8433,-2.9099,-2.9324,-2.8753,-2.8956,-3.0068,-2.9619,-2.929,-2.9057,0.0,0.0,0.0,0.0,0.0,0.0,0.0,0.0,0.0,0.0,0.0,0.0,0.0,0.0,0.0,0.0,0.0,0.0,0.0,0.0,0.0,0.0,0.0,0.0,0.0,-2.9459,0.0,0.0,0.0,0.0,0.0,0.0,0.0,0.0,0.0,0.0,0.0,-2.9026,-2.9226,-2.9623,-2.9922,-2.9849,-3.042,-3.0839,0.0,0.0,0.0,0.0,0.0,0.0,0.0,0.0,0.0,0.0,0.0,0.0,0.0,0.0,-3.2758,-3.1302,-3.023,-2.9881,-3.101,0.0,0.0,0.0,0.0,0.0,0.0,0.0,0.0,0.0,0.0,0.0,0.0,0.0,0.0,-2.9943,0.0,-3.0286,0.0,0.0,0.0,0.0,0.0,0.0,0.0,0.0,-3.1354,-3.1597,-3.1482,-3.1973,-3.1603,0.0,-3.0877,-3.0424,0.0,0.0,0.0,0.0,0.0,0.0,0.0,0.0,-2.8228,-2.8121,-2.8996,-2.9602,-2.9822,-2.9227,-2.9454,-3.0404,-2.9828,-2.9351,-2.9005,-2.8368,-2.8212,0.0,0.0,0.0,0.0,0.0,0.0,0.0,0.0,0.0,0.0,0.0,0.0,0.0,0.0,0.0,0.0,0.0,0.0,0.0,0.0,0.0,0.0,0.0,-3.0113,0.0,0.0,0.0,0.0,0.0,0.0,0.0,0.0,0.0,-3.0737,-3.0484,-3.0473,-3.0539,-3.0437,-3.0481,-3.0619,0.0,0.0,0.0,0.0,0.0,0.0,0.0,-3.1727,-3.1817,-3.2132,-3.2381,-3.2564,-3.3688,-3.4541,-3.4189,0.0,0.0,-3.2622,-3.1523,-3.124,-3.2303,-3.2022,-3.1809,-3.2407,-3.2244,-3.1901,0.0,0.0,0.0,0.0,0.0,0.0,0.0,0.0,-2.9999,-3.0694,0.0,-3.1288,0.0,0.0,0.0,0.0,0.0,-3.1774,0.0,0.0,-3.1543,-3.1772,-3.1614,-3.1629,-3.1483,-3.1455,-3.1946,-3.1797,-3.1058,-2.9535,0.0,0.0,0.0,0.0,0.0,0.0,-3.0083,-3.004,-3.0083,-3.0158,-3.0297,-2.9736,-2.9885,-3.0763,-2.9862,-2.9104,-2.8569,-2.8688,-2.8606,-2.8262,-2.9546,0.0,0.0,0.0,0.0,0.0,0.0,0.0,0.0,0.0,0.0,0.0,0.0,0.0,0.0,0.0,0.0,0.0,0.0,0.0,0.0,-3.0849,0.0,0.0,0.0,0.0,0.0,0.0,0.0,0.0,0.0,0.0,-3.1952,-3.1366,-3.1184,-3.136,0.0,0.0,0.0,0.0,-3.1673,-3.2382,-3.2296,-3.2405,-3.3232,-3.3143,-3.3052,-3.3312,0.0,0.0,-3.3397,-3.4835,-3.5616,-3.4393,-3.4311,-3.4337,-3.4741,-3.4133,-3.3726,-3.3798,-3.3223,-3.2789,-3.2761,-3.2875,-3.2624,-3.2357,0.0,0.0,0.0,0.0,-3.2303,-3.2539,-3.2788,-3.2788,-3.2713,-3.2622,-3.2597,0.0,0.0,0.0,0.0,0.0,0.0,-3.2303,-3.252,-3.2619,-3.2777,-3.3081,-3.3096,-3.2976,-3.2856,-3.2572,-3.2243,-3.1931,-3.1042,-3.0147,-2.9435,0.0,0.0,0.0,0.0,-2.9709,-2.9633,-3.017,-3.0522,-3.0642,-3.0453,-3.0631,-3.1161,-3.0056,-2.946,-2.9402,-2.8743,-2.8549,-2.9054,-2.9226,0.0,0.0,0.0,0.0,0.0,0.0,0.0,0.0,0.0,0.0,0.0,0.0,0.0,0.0,0.0,0.0,0.0,0.0,0.0,-3.2587,-3.1664,-3.1205,0.0,0.0,0.0,0.0,0.0,0.0,0.0,0.0,0.0,-3.3662,-3.3161,-3.3127,0.0,0.0,-3.319,-3.3429,-3.3477,-3.337,-3.3139,-3.301,0.0,-3.2684,-3.291,-3.3187,-3.3273,-3.414,-3.4957,-3.5386,-3.6603,-3.7195,-3.5971,-3.6052,-3.6073,-3.5409,-3.4266,-3.3705,-3.4329,-3.4131,-3.3879,-3.4153,-3.4235,-3.4177,-3.4465,-3.3603,-3.3025,-3.2898,-3.3216,-3.3411,-3.3546,-3.3693,-3.3693,-3.3617,-3.345,-3.3031,-3.2824,-3.2686,-3.245,0.0,0.0,0.0,-3.2461,-3.2817,-3.2962,-3.3196,-3.3456,-3.3713,-3.3593,-3.3231,-3.2841,-3.2392,-3.1946,-3.1559,-3.1233,-3.0925,0.0,0.0,-2.9565,-2.9973,-3.028,-3.0409,-3.0689,-3.0998,-3.1396,-3.1205,-3.0939,-3.069,-2.9968,-2.9606,-2.9561,-2.8961,-2.9039,-2.9816,-2.989,-3.0228,0.0,0.0,0.0,0.0,0.0,0.0,0.0,0.0,0.0,0.0,0.0,-3.2465,-3.267,0.0,0.0,0.0,-3.2165,-3.2287,-3.2691,-3.2213,0.0,0.0,0.0,0.0,0.0,0.0,0.0,-3.4452,-3.4782,-3.4928,-3.4996,-3.4911,-3.4905,-3.4895,-3.4612,-3.4469,-3.4781,0.0,-3.4367,-3.4329,-3.3973,-3.3706,-3.364,-3.39,-3.4043,-3.4115,-3.5082,-3.5812,-3.5985,-3.6809,-3.7137,-3.6394,-3.6319,-3.6283,-3.5639,-3.4721,-3.4288,-3.4868,-3.4706,-3.4572,-3.4854,-3.4935,-3.4868,-3.5522,-3.5435,-3.3502,-3.2912,-3.3135,-3.3148,-3.3175,-3.3276,-3.3349,-3.3597,-3.401,-3.2972,-3.2782,-3.329,-3.2675,0.0,-3.253,-3.253,-3.2536,-3.2486,-3.31,-3.3334,-3.3206,-3.3874,-3.3756,-3.3107,-3.3046,-3.2611,-3.1968,-3.1835,-3.2105,-3.272,-3.1812,-3.1353,-3.1294,-3.1294,-3.156,-3.2106,-3.153,-3.1531,-3.2184,-3.1795,-3.1027,-3.0021,-2.9969,-2.9796,-2.948,-2.9524,-2.9906,-3.0631,-3.1112,-3.1198,-3.079,0.0,0.0,0.0,0.0,0.0,0.0,0.0,0.0,0.0,0.0,0.0,0.0,0.0,0.0,0.0,-3.2178,0.0,-3.1854,-3.269,0.0,0.0,0.0,-3.4537,-3.3908,-3.4257,-3.454,-3.4698,0.0,0.0,-3.5819,-3.6335,-3.6344,-3.5204,-3.5192,-3.548,-3.5784,-3.5253,-3.4996,-3.5511,-3.4996,-3.4739,-3.5139,-3.5267,-3.5224,-3.5454,-3.6085,-3.6263,-3.5809,-3.6221,-3.6276,-3.5753,-3.5609,-3.5579,-3.5534,-3.5424,-3.5439,-3.5228,-3.5082,-3.492,-3.5001,-3.5001,-3.5001,-3.4349,-3.4258,-3.3421,-3.3663,-3.4622,-3.4118,-3.4023,-3.4171,-3.4229,-3.3956,-3.3571,-3.3306,-3.3023,-3.281,-3.278,-3.3053,-3.3575,-3.3811,-3.4203,-3.4675,-3.5039,-3.5102,-3.5007,-3.5165,-3.532,-3.5519,-3.5033,-3.4955,-3.5211,-3.4726,-3.4554,-3.4638,-3.4114,-3.3469,-3.2807,-3.2868,-3.2928,-3.2968,-3.2452,-3.2005,-3.1721,-3.1687,-3.1634,-3.147,-3.1359,-3.1358,-3.1479,-3.1323,-3.1166,-3.1015,-3.1258,-3.1356,-3.1237,-3.1209,0.0,0.0,0.0,0.0,0.0,0.0,0.0,0.0,0.0,-3.3141,-3.2507,0.0,-3.3465,0.0,-3.2946,-3.344,-3.4472,-3.4163,0.0,0.0,-3.5473,-3.5545,-3.5383,-3.5501,-3.5345,-3.4927,-3.5016,-3.5104,-3.5171,-3.5437,-3.5466,-3.5215,-3.6522,-3.7334,-3.7064,-3.6877,-3.6532,-3.5805,-3.5415,-3.5114,-3.4961,-3.5175,-3.5436,-3.5555,-3.6104,-3.6439,-3.6291,-3.6813,-3.6985,-3.6402,-3.6252,-3.6058,-3.5594,-3.5489,-3.5489,-3.5424,-3.5374,-3.5359,-3.5359,-3.5359,-3.5294,-3.4958,-3.4897,-3.448,-3.4708,-3.5368,-3.4281,-3.3925,-3.416,-3.4395,-3.4361,-3.4074,-3.3764,-3.3284,-3.2804,-3.3395,-3.3849,-3.4265,-3.4946,-3.546,-3.5828,-3.6188,-3.6316,-3.6277,-3.647,-3.6549,-3.6483,-3.6102,-3.5959,-3.595,-3.5601,-3.557,-3.5799,-3.5587,-3.5354,-3.5095,-3.4424,-3.4166,-3.4334,-3.3964,-3.3449,-3.2788,-3.2536,-3.2259,-3.1936,-3.1732,-3.1804,-3.2104,-3.171,-3.172,-3.2207,-3.2073,-3.21,-3.2262,-3.2133,-3.2221,0.0,0.0,0.0,0.0,0.0,0.0,0.0,0.0,0.0,0.0,0.0,-3.3842,-3.3818,-3.3939,-3.4463,-3.5514,-3.5145,-3.5091,-3.5821,-3.5681,-3.5614,-3.5614,-3.5533,-3.5333,-3.5045,-3.5318,-3.5392,-3.5207,-3.5785,-3.6089,-3.5836,-3.6984,-3.7664,-3.7097,-3.704,-3.6773,-3.6094,-3.5725,-3.5414,-3.5016,-3.5279,-3.5489,-3.5534,-3.5804,-3.6043,-3.6058,-3.6327,-3.6432,-3.6133,-3.6043,-3.5938,-3.5579,-3.5489,-3.5489,-3.5489,-3.5489,-3.5489,-3.5489,-3.5489,-3.5439,-3.6013,-3.5952,-3.5689,-3.5561,-3.5468,-3.416,-3.3651,-3.3898,-3.433,-3.4678,-3.4977,-3.4326,-3.3818,-3.341,-3.434,-3.4856,-3.5091,-3.608,-3.6564,-3.6694,-3.7221,-3.7404,-3.7436,-3.7939,-3.7705,-3.7038,-3.6966,-3.6606,-3.5919,-3.5903,-3.6206,-3.6781,-3.6756,-3.7042,-3.751,-3.5902,-3.531,-3.5618,-3.5508,-3.4999,-3.413,-3.3646,-3.2956,-3.2034,-3.1833,-3.1901,-3.219,-3.1611,-3.199,-3.3548,-3.3116,-3.2994,-3.3343,-3.3206,-3.3134,0.0,-3.3235,0.0,0.0,0.0,0.0,0.0,0.0,0.0,0.0,-3.4423,-3.414,-3.5233,-3.5016,-3.5133,-3.5706,-3.5604,-3.5534,-3.5624,-3.5478,-3.5347,-3.5347,-3.52,-3.517,-3.5213,-3.5718,-3.5985,-3.5574,-3.6552,-3.7045,-3.6663,-3.7083,-3.7293,-3.6693,-3.6537,-3.6522,-3.6469,-3.5944,-3.5614,-3.5554,-3.5569,-3.5554,-3.5569,-3.5599,-3.5554,-3.5599,-3.5614,-3.5599,-3.5584,-3.5614,-3.5584,-3.5554,-3.5554,-3.5569,-3.5554,-3.5619,-3.5554,-3.5489,-3.5489,-3.5489,-3.4889,-3.5007,-3.4926,-3.4938,-3.5007,-3.4758,-3.4649,-3.4665,-3.4789,-3.5065,-3.5443,-3.5124,-3.526,-3.578,-3.5771,-3.6249,-3.7159,-3.7604,-3.8157,-3.8685,-3.9046,-3.9182,-3.9199,-3.9332,-3.9262,-3.9129,-3.897,-3.8867,-3.8735,-3.8735,-3.8801,-3.8933,-3.863,-3.8553,-3.8635,0.0,0.0,0.0,-3.59,-3.518,-3.3192,-3.3884,-3.3842,-3.3051,-3.303,0.0,-3.3414,-3.3018,-3.2971,-3.3416,-3.3431,0.0,0.0,0.0,0.0,0.0,0.0,0.0,0.0,0.0,0.0,0.0,-3.6715,-3.5909,-3.5127,-3.5084,-3.5354,-3.5936,-3.5839,-3.5758,-3.5958,-3.5767,-3.5864,-3.6406,-3.6349,-3.6231,-3.6231,-3.6216,-3.6037,-3.5499,-3.5544,-3.5589,-3.5594,-3.628,-3.6803,-3.6727,-3.7337,-3.7591,-3.6985,-3.6646,-3.6349,-3.5939,-3.5872,-3.591,-3.591,-3.5925,-3.5861,-3.5925,-3.5925,-3.5925,-3.5861,-3.5861,-3.5925,-3.5925,-3.591,-3.5925,-3.5925,-3.5925,-3.5861,-3.591,-3.5925,-3.5797,-3.5554,-3.5489,-3.5489,-3.5641,0.0,-3.5848,-3.5966,0.0,-3.6358,-3.6473,-3.6457,-3.5938,-3.6047,-3.6545,-3.6451,-3.6476,-3.6607,-3.6987,-3.7505,-3.8077,-3.8838,-3.9309,-3.9644,-3.9781,-3.9596,-3.9261,-3.9193,-3.8906,-3.8521,-3.8888,-3.9004,-3.8968,-3.9406,-3.959,-3.959,-3.9451,-3.9329,-3.9295,-3.8562,-3.7505,-3.6206,-3.6206,-3.5619,-3.4497,-3.4637,-3.4491,-3.3899,0.0,0.0,0.0,0.0,0.0,0.0,0.0,0.0,0.0,0.0,0.0,-3.4687,-3.5018,-3.5304,-3.5577,-3.6404,-3.7102,-3.7516,-3.7714,-3.7183,-3.5603,-3.5825,-3.6168,-3.6415,-3.6274,-3.6085,-3.61,-3.5958,-3.5967,-3.6315,-3.631,-3.6245,-3.6245,-3.6245,-3.611,-3.5823,-3.5748,-3.5733,-3.5733,-3.6039,-3.633,-3.6345,-3.6682,-3.6964,-3.6596,-3.6647,-3.6537,-3.5952,-3.5894,-3.5988,-3.5988,-3.5988,-3.5988,-3.5988,-3.5988,-3.5988,-3.5988,-3.5988,-3.5988,-3.5988,-3.5988,-3.5988,-3.5988,-3.5988,-3.5988,-3.5988,-3.5988,-3.5988,-3.5812,-3.5748,-3.5748,-3.6723,-3.6831,-3.7178,-3.7358,-3.7417,-3.8001,-3.8206,-3.81,0.0,0.0,0.0,-3.7789,-3.7666,-3.738,-3.8201,-3.8621,-3.879,-3.9682,-4.0087,-4.007,-3.9868,-3.943,-3.8824,-3.8606,-3.8204,-3.7653,-3.8321,-3.8606,-3.8521,-3.9326,-3.9662,-3.9562,-3.9697,-3.9647,-3.931,-3.8623,-3.7786,-3.6854,-3.6423,-3.6124,-3.5794,-3.549,-3.511,-3.4594,-3.4566,-3.46,-3.4772,-3.4134,-3.4261,-3.5228,-3.5061,-3.5164,-3.5644,-3.5915,-3.6062,-3.6062,-3.6062,-3.6114,-3.6224,-3.6593,-3.7047,-3.7568,-3.8408,-3.8212,-3.6569,-3.6761,-3.6892,-3.6876,-3.6523,-3.6336,-3.6352,-3.6226,-3.61,-3.61,-3.6037,-3.6037,-3.5988,-3.5988,-3.6004,-3.5988,-3.5973,-3.5988,-3.5988,-3.6174,-3.6204,-3.625,-3.6572,-3.6389,-3.6344,-3.6584,-3.6615,-3.6143,-3.61,-3.61,-3.6115,-3.6115,-3.61,-3.61,-3.61,-3.61,-3.61,-3.61,-3.61,-3.6178,-3.6115,-3.6163,-3.6163,-3.6163,-3.61,-3.6085,-3.6085,-3.61,-3.61,-3.61,-3.5973,-3.6892,-3.7194,-3.7594,-3.7886,-3.8001,-3.8511,-3.8607,-3.8415,-3.845,-3.8389,-3.8197,-3.8525,-3.9007,-3.9615,-3.9391,-3.9476,-3.9868,-4.0037,-4.0087,0.0,-3.9544,-3.9205,-3.8954,-3.836,-3.8343,-3.8704,-3.8756,-3.8774,-3.8841,-3.948,-3.9547,-3.911,-3.9665,-3.9345,-3.8033,-3.732,-3.6485,-3.5596,-3.6684,-3.6586,-3.5114,-3.588,-3.5877,-3.4991,-3.4745,-3.4686,-3.4684,-3.415,-3.4165,-3.4925,-3.5035,-3.541,-3.6071,-3.6174,-3.6259,-3.6259,-3.6259,-3.6509,-3.7048,-3.7158,-3.7534,-3.8321,-3.8952,-3.8978,-3.8221,-3.7921,-3.7637,-3.7488,-3.7134,-3.6862,-3.6862,-3.6723,-3.66,-3.6414,-3.6289,-3.6148,-3.61,-3.6115,-3.61,-3.61,-3.5988,-3.6037,-3.6131,-3.659,-3.6993,-3.7097,-3.7413,-3.7843,-3.7277,-3.6718,-3.6364,-3.6241,-3.6352,-3.6429,-3.6429,-3.6445,-3.646,-3.6429,-3.6445,-3.6475,-3.6429,-3.6429,-3.6492,-3.66,-3.6538,-3.66,-3.66,-3.66,-3.6538,-3.6429,-3.6429,-3.6429,-3.6429,-3.6414,-3.6289,-3.7417,-3.7637,-3.8157,-3.8383,-3.8511,-3.9028,-3.9122,-3.8957,-3.948,-3.916,-3.84,-3.9125,-3.9597,-3.9727,-3.9784,-3.9918,-4.0188,-4.0121,-4.0087,-4.0104,-3.9799,-3.9427,-3.8937,-3.8275,-3.7885,-3.777,-3.777,-3.777,-3.7838,-3.8563,-3.8969,-3.9039,-3.9715,-3.9172,-3.7492,-3.739,-3.6847,-3.5735,-3.6131,-3.5991,-3.5228,-3.5761,-3.5869,-3.5424,-3.5504,-3.5506,-3.5523,-3.5265,-3.5332,-3.5658,-3.5734,-3.5872,-3.6216,-3.6301,-3.649,-3.6887,-3.6542,-3.6646,-3.7352,-3.7737,-3.835,-3.9443,-3.9851,-3.9885,-3.9594,-3.8723,-3.8181,-3.8108,-3.7828,-3.7492,-3.7358,-3.7358,-3.7254,-3.7013,-3.7042,-3.7103,-3.7042,-3.7042,-3.7042,-3.7042,-3.7042,-3.7058,-3.7058,-3.7385,-3.7512,-3.7436,-3.7732,-3.7826,-3.7712,-3.7398,-3.6921,-3.6569,-3.6677,-3.6754,-3.677,-3.7126,-3.7157,-3.6816,-3.7126,-3.7157,-3.6863,-3.6754,-3.6816,-3.6862,-3.6862,-3.6877,-3.6862,-3.6862,-3.6816,-3.6816,-3.6754,-3.6754,-3.6754,-3.6616,-3.6352,-3.7946,-3.7931,-3.8488,-3.8813,-3.9007,-3.9508,-3.9581,-3.9333,-4.0112,-3.9679,-3.855,-3.9455,-3.9795,-3.9699,-3.9863,-4.0085,-4.0288,-4.0188,-4.0171,-4.0137,-3.9832,-3.9357,-3.8781,-3.7933,-3.7238,-3.6847,-3.6922,-3.6968,-3.7053,-3.7792,-3.8576,-3.9231,-3.9729,-3.9064,-3.7365,-3.7643,-3.72,-3.6061,-3.5739,-3.556,-3.556,-3.5756,-3.5905,-3.5905,-3.6122,-3.6208,-3.6208,-3.6318,-3.6343,-3.6343,-3.636,-3.636,-3.6343,-3.6301,-3.6559,-3.7094,-3.6861,-3.6947,-3.7724,-3.8332,-3.9123,-4.0158,-4.0431,-4.0485,-4.0419,-3.9542,-3.8903,-3.8723,-3.8463,-3.8197,-3.7969,-3.7969,-3.7985,-3.7695,-3.7828,-3.7927,-3.7985,-3.7943,-3.7943,-3.8001,-3.7985,-3.7927,-3.7943,-3.7943,-3.7844,-3.7583,-3.7519,-3.7711,-3.787,-3.8001,-3.7754,-3.7358,-3.715,-3.7225,-3.7212,-3.748,-3.762,-3.7212,-3.7541,-3.7496,-3.7214,-3.7121,-3.7181,-3.7225,-3.7225,-3.7225,-3.7181,-3.7225,-3.7165,-3.706,-3.6984,-3.7044,-3.6938,-3.6816,-3.6538,-3.8144,-3.7838,-3.8297,-3.8841,-3.9353,-3.9932,-3.9927,-3.959,-4.0192,-3.9774,-3.8745,-3.9213,-3.9836,-4.0229,-3.9768,-3.9887,-4.0468,-4.0355,-4.032,-4.0231,-3.9003,-3.8338,-3.8201,-3.7021,-3.6627,-3.699,-3.7041,-3.699,-3.7086,-3.7837,-3.8589,-3.9307,-3.946,-3.8986,-3.8111,-3.7513,-3.683,-3.6053,-3.6079,-3.6079,-3.5975,-3.6079,-3.6165,-3.6182,-3.6233,-3.6301,-3.6301,-3.6402,-3.6485,-3.6485,-3.6502,-3.6485,-3.6444,-3.636,-3.6335,-3.6473,-3.7111,-3.7906,-3.8607,-3.9107,-3.9431,-3.9603,-4.0223,-4.0534,-4.0517,-4.037,-4.0087,-3.961,-3.9119,-3.8882,-3.8717,-3.875,-3.8678,-3.8407,-3.8367,-3.827,-3.8311,-3.8157,-3.8157,-3.8238,-3.8399,-3.8254,-3.8294,-3.8237,-3.8075,-3.8059,-3.8042,-3.81,-3.8214,-3.8383,-3.8463,-3.8294,-3.8084,-3.7886,-3.786,-3.7567,-3.7753,-3.7833,-3.7599,-3.7603,-3.7555,-3.7669,-3.7786,-3.77,-3.7801,-3.7844,-3.7743,-3.7801,-3.7711,-3.7345,-3.7285,-3.7314,-3.7105,-3.6999,-3.6862,-3.8325,-3.8233,-3.8706,-3.8814,-3.8828,-3.9494,-3.9727,-3.9568,-4.0401,-4.0414,-3.9957,-3.9709,-3.9765,-4.0023,-4.0052,-4.026,-4.0583,-4.0485,-4.0197,-3.9819,-3.9187,-3.8657,-3.8128,-3.7216,-3.6935,-3.7141,-3.6764,-3.6568,-3.6818,-3.7751,-3.8077,-3.7813,-3.9162,-3.9076,-3.7298,-3.7614,-3.7322,-3.6225,-3.6233,-3.6233,-3.6174,-3.6233,-3.6276,-3.6293,-3.6343,-3.6419,-3.6444,-3.6544,-3.662,-3.6602,-3.6602,-3.6602,-3.6502,-3.6444,-3.6592,-3.7041,-3.7863,-3.8668,-3.9413,-3.956,-3.9812,-4.0259,-4.0586,-4.0728,-4.0728,-4.0728,-4.0566,-4.0254,-3.9952,-3.9696,-3.9418,-3.9487,-3.9418,-3.9135,-3.9169,-3.9222,-3.9152,-3.9044,-3.9044,-3.9115,-3.9532,-3.9743,-3.9649,-3.9522,-3.9286,-3.9029,-3.8898,-3.8821,-3.9023,-3.9169,-3.9206,-3.9206,-3.9044,-3.8827,-3.8544,-3.8715,-3.8642,-3.8537,-3.8585,-3.8663,-3.818,-3.8132,-3.8164,-3.8107,-3.8205,-3.8262,-3.8164,-3.8164,-3.8148,-3.7817,-3.7817,-3.7902,-3.7669,-3.7669,-3.7551,-3.8137,-3.8151,-3.8475,-3.8389,-3.81,-3.8848,-3.9221,-3.937,-4.0169,-4.056,-4.0526,-4.0164,-4.0008,-4.0077,-4.0216,-4.0408,-4.071,-4.0631,-4.0189,-3.9551,-3.9264,-3.8751,-3.8025,-3.7227,-3.6945,-3.6947,-3.6526,-3.6353,-3.6558,-3.7524,-3.7627,-3.7129,-3.8877,-3.8843,-3.6991,-3.7696,-3.7558,-3.654,-3.6402,-3.6402,-3.6402,-3.6402,-3.6402,-3.6385,-3.6485,-3.6544,-3.6544,-3.6684,-3.6742,-3.6742,-3.6725,-3.6684,-3.6585,-3.6561,-3.6891,-3.7662,-3.8443,-3.9207,-3.9954,-4.0089,-4.0343,-4.0879,-4.0948,-4.0965,-4.0982,-4.0935,-4.0888,-4.0728,-4.0583,-4.0337,-4.0054,-4.0104,-4.0054,-3.9747,-3.9918,-3.9986,-3.9918,-3.9884,-3.9884,-3.9986,-4.0473,-4.1096,-4.1194,-4.0996,-4.0634,-4.0394,-4.0007,-3.9787,-3.9964,-3.9932,-3.9781,-3.9816,-3.9833,-3.9625,-3.9218,-3.9194,-3.9397,-3.9281,-3.9253,-3.9135,-3.8832,-3.8688,-3.856,-3.8544,-3.8616,-3.8616,-3.8544,-3.8544,-3.856,-3.8488,-3.8432,-3.8375,-3.8132,-3.8189,-3.8132,-3.7682,-3.7229,-3.7194,-3.7374,-3.7577,-3.8201,-3.8511,-3.8698,-3.9422,-3.975,-3.9853,-4.0504,-4.0784,-4.0745,-4.0129,-4.0181,-4.0819,-4.0693,-4.0294,-3.9738,-3.8917,-3.816,-3.7603,-3.6757,-3.6404,-3.649,-3.6558,-3.6589,-3.6765,-3.7283,-3.7534,-3.7568,-3.8264,-3.8212,-3.7491,-3.7482,-3.7214,-3.6707,-3.6643,-3.6661,-3.6643,-3.6643,-3.6602,-3.6544,-3.6602,-3.6702,-3.6684,-3.6748,-3.6788,-3.6829,-3.6788,-3.6788,-3.6788,-3.6725,-3.7073,-3.7906,-3.8614,-3.9338,-4.0193,-4.0767,-4.1094,-4.1146,-4.1163,-4.1134,-4.1076,-4.1093,-4.1029,-4.0888,-4.0888,-4.0728,-4.0485,-4.0485,-4.0468,-4.037,-4.0337,-4.0355,-4.0436,-4.0271,-4.0337,-4.0489,-4.1086,-4.1801,-4.2413,-4.2252,-4.2008,-4.1789,-4.1314,-4.0927,-4.0912,-4.0544,-4.0324,-4.0307,-4.0256,-4.0155,-3.9746,-3.9637,-3.9551,-3.9501,-3.9481,-3.9268,-3.9181,-3.9148,-3.904,-3.8985,-3.9056,-3.904,-3.8914,-3.8914,-3.8985,-3.8876,-3.8655,-3.8488,-3.8544,-3.8448,-3.8448,-3.7359,-3.7175,-3.6766,-3.6646,-3.6801,-3.7516,-3.787,-3.8009,-3.8814,-3.9143,-3.9292,-4.0047,-4.0394,-4.0394,-4.0585,-4.0718,-4.0849,-4.0417,-3.9824,-3.9222,-3.8822,-3.8088,-3.7106,-3.7074,-3.6918,-3.6648,-3.6988,-3.7213,-3.7359,-3.7966,-3.7871,-3.7349,-3.8166,-3.8166,-3.7297,-3.7446,-3.7366,-3.6789,-3.6719,-3.6719,-3.6702,-3.6725,-3.6748,-3.6708,-3.6748,-3.6748,-3.6766,-3.6851,-3.693,-3.6948,-3.6948,-3.6891,-3.6811,-3.6788,-3.7138,-3.793,-3.8657,-3.9425,-4.0211,-4.0854,-4.1209,-4.1209,-4.1209,-4.1226,-4.118,-4.1134,-4.1105,-4.1047,-4.1047,-4.0935,-4.084,-4.0776,-4.0728,-4.0648,-4.06,-4.0551,-4.0502,-4.0436,-4.0436,-4.0673,-4.1493,-4.2603,-4.3183,-4.3316,-4.3059,-4.2617,-4.2311,-4.2175,-4.2124,-4.1937,-4.1716,-4.1733,-4.1426,-4.1086,-4.0985,-4.0425,-4.007,-4.0037,-3.9952,-3.9746,-3.9677,-3.952,-3.9415,-3.9272,-3.9379,-3.9325,-3.9148,-3.9094,-3.9218,-3.9164,-3.8892,-3.8838,-3.9018,-3.8838,-3.8892,-3.6877,-3.6895,-3.6542,-3.6343,-3.6412,-3.6972,-3.7282,-3.7411,-3.8122,-3.8495,-3.8677,-3.9355,-3.9685,-3.9825,-4.0468,-4.0596,-4.0285,-4.0019,-3.9683,-3.9259,-3.8972,-3.8321,-3.7641,-3.7878,-3.7835,-3.753,-3.7793,-3.7992,-3.807,-3.8529,-3.8278,-3.7505,-3.8451,-3.8459,-3.7624,-3.7753,-3.762,-3.7184,-3.6928,-3.6823,-3.6806,-3.6811,-3.6869,-3.6869,-3.6869,-3.6869,-3.6851,-3.693,-3.697,-3.697,-3.697,-3.697,-3.6869,-3.6869,-3.7079,-3.7679,-3.838,-3.9126,-3.9913,-4.0577,-4.1101,-4.1328,-4.1318,-4.1318,-4.1255,-4.1255,-4.1226,-4.1152,-4.1123,-4.1059,-4.0995,-4.0995,-4.0918,-4.0793,-4.0745,-4.0728,-4.0631,-4.0631,-4.0888,-4.1437,-4.2226,-4.3237,-4.4146,-4.4299,-4.4074,-4.3648,-4.3373,-4.315,-4.3133,-4.2911,-4.2791,-4.2706,-4.2073,-4.1663,-4.1406,-4.0895,-4.0372,-4.0238,-4.0205,-4.0104,-3.9935,-3.9833,-3.9677,-3.9537,-3.9484,-3.9432,-3.9395,-3.9342,-3.9288,-3.9288,-3.9218,-3.911,-3.9235,-3.9288,-3.9218,-3.6335,-3.6395,-3.6444,-3.6502,-3.652,-3.6672,-3.6737,-3.6911,-3.7502,-3.7798,-3.7945,-3.8599,-3.8929,-3.9086,-3.9765,-3.9712,-3.9286,-3.9596,-3.9842,-3.9861,-3.9181,-3.8816,-3.8699,-3.8719,-3.8798,-3.8781,-3.8842,-3.8877,-3.8921,-3.8964,-3.8851,-3.8781,-3.886,-3.892,-3.892,-3.836,-3.8076,-3.7947,-3.7439,-3.7093,-3.6987,-3.7005,-3.697,-3.697,-3.697,-3.6987,-3.6987,-3.697,-3.697,-3.697,-3.697,-3.697,-3.697,-3.697,-3.6987,-3.7163,-3.7742,-3.8497,-3.9252,-4.0007,-4.0718,-4.1157,-4.1455,-4.1375,-4.1251,-4.1373,-4.138,-4.1209,-4.1209,-4.1192,-4.1209,-4.1163,-4.1071,-4.0935,-4.0871,-4.0888,-4.0888,-4.0888,-4.144,-4.2561,-4.3009,-4.3785,-4.4819,-4.4869,-4.461,-4.449,-4.4111,-4.363,-4.3579,-4.3186,-4.2877,-4.2706,-4.2311,-4.183,-4.157,-4.126,-4.0822,-4.0453,-4.0355,-4.0255,-4.0037,-3.9884,-3.9781,-3.9694,-3.9501,-3.9448,-3.9342,-3.9288,-3.9288,-3.9288,-3.9288,-3.9288,-3.9288,-3.9288,-3.9288,-3.6585,-3.6585,-3.6602,-3.6643,-3.6661,-3.6684,-3.6725,-3.6783,-3.7027,-3.7138,-3.7358,-3.8006,-3.8338,-3.8531,-3.9178,-3.9388,-3.9196,-3.932,-3.912,-3.8796,-3.8893,-3.8534,-3.7959,-3.8139,-3.8587,-3.9111,-3.9608,-3.9853,-3.9853,-3.9853,-3.9608,-3.9241,-3.9213,-3.9196,-3.9248,-3.8975,-3.8912,-3.8848,-3.8146,-3.776,-3.7707,-3.7233,-3.6987,-3.697,-3.697,-3.7009,-3.7087,-3.7009,-3.697,-3.697,-3.697,-3.697,-3.697,-3.697,-3.697,-3.704,-3.769,-3.8164,-3.8497,-3.9217,-3.9796,-4.0112,-4.0533,-4.0797,-4.0858,-4.1297,-4.1453,-4.1363,-4.1318,-4.1318,-4.1209,-4.1209,-4.1163,-4.1029,-4.1047,-4.0982,-4.0935,-4.0918,-4.1336,-4.2112,-4.2354,-4.2837,-4.3595,-4.3872,-4.3941,-4.3941,-4.3614,-4.3477,-4.3391,-4.3237,-4.3081,-4.3012,-4.2442,-4.1943,-4.1736,-4.1392,-4.0882,-4.06,-4.0502,-4.0404,-4.0188,-3.9986,-3.9952,-3.9746,-3.9606,-3.9448,-3.9342,-3.9288,-3.9288,-3.9288,-3.9288,-3.9288,-3.9288,-3.9288,-3.9288,-3.6719,-3.6702,-3.6725,-3.6725,-3.6725,-3.6806,-3.6846,-3.6869,-3.6869,-3.6926,-3.711,-3.7461,-3.7672,-3.7888,-3.8515,-3.8673,-3.8556,-3.8888,-3.8601,-3.7918,-3.8681,-3.8688,-3.8322,-3.8678,-3.9126,-3.9608,-4.0359,-4.0682,-4.062,-4.0647,-4.0464,-4.0106,-4.0104,-4.0139,-4.0026,-3.9841,-3.9743,-3.9638,-3.8954,-3.8409,-3.8151,-3.7734,-3.7365,-3.714,-3.7105,-3.7143,-3.7164,-3.7143,-3.7087,-3.7105,-3.7105,-3.7105,-3.7048,-3.7087,-3.7105,-3.7154,-3.7431,-3.7817,-3.8128,-3.8918,-3.9463,-3.9796,-4.0463,-4.0902,-4.099,-4.1411,-4.1542,-4.1515,-4.1471,-4.1408,-4.1363,-4.1346,-4.1318,-4.1215,-4.1169,-4.1105,-4.1012,-4.0982,-4.1328,-4.1916,-4.2092,-4.2437,-4.2973,-4.3232,-4.3232,-4.3232,-4.3232,-4.3232,-4.3232,-4.3249,-4.318,-4.2957,-4.2457,-4.2112,-4.194,-4.1509,-4.0909,-4.0745,-4.06,-4.0502,-4.0337,-4.0188,-4.0087,-3.9798,-3.959,-3.9432,-3.9325,-3.9342,-3.9288,-3.9288,-3.9288,-3.9288,-3.9288,-3.9288,-3.9222,-3.6702,-3.6725,-3.6788,-3.6829,-3.6811,-3.6948,-3.6987,-3.6987,-3.697,-3.6987,-3.7005,-3.7097,-3.7119,-3.7281,-3.7875,-3.7822,-3.7457,-3.8579,-3.8497,-3.7865,-3.8397,-3.9115,-3.948,-3.9656,-3.9754,-3.9983,-4.0656,-4.1031,-4.0822,-4.0919,-4.1241,-4.0857,-4.1051,-4.1402,-4.1025,-4.0736,-4.0533,-4.0446,-3.9779,-3.9083,-3.8549,-3.8249,-3.8011,-3.7418,-3.7312,-3.7297,-3.7297,-3.7297,-3.7297,-3.7297,-3.7259,-3.7203,-3.7164,-3.722,-3.722,-3.7232,-3.7196,-3.7686,-3.8222,-3.8901,-3.955,-4.0147,-4.0832,-4.1552,-4.1358,-4.1446,-4.1604,-4.1604,-4.1604,-4.156,-4.156,-4.156,-4.1515,-4.1408,-4.1272,-4.1209,-4.1209,-4.1152,-4.1371,-4.1843,-4.2054,-4.2196,-4.2783,-4.2886,-4.2904,-4.2904,-4.2869,-4.28,-4.28,-4.2696,-4.2973,-4.2595,-4.1992,-4.1836,-4.1543,-4.1371,-4.0888,-4.084,-4.0745,-4.0583,-4.0436,-4.0337,-4.0138,-3.9901,-3.9642,-3.9484,-3.9379,-3.9379,-3.9342,-3.9288,-3.9288,-3.9288,-3.9239,-3.9189,-3.8924,-3.6908,-3.6908,-3.6948,-3.693,-3.6948,-3.6987,-3.697,-3.697,-3.697,-3.697,-3.7027,-3.7048,-3.7069,-3.7143,-3.7376,-3.7379,-3.7503,-3.8245,-3.8536,-3.8091,-3.8262,-3.8204,-3.8151,-3.8515,-3.8778,-3.8877,-3.9613,-3.9876,-3.9944,-4.0067,-4.0109,-4.0028,-4.0654,-4.0883,-4.0813,-4.1156,-4.1288,-4.12,-4.0569,-4.0137,-3.9775,-3.8795,-3.8236,-3.8047,-3.7559,-3.737,-3.7392,-3.7466,-3.7447,-3.7297,-3.7297,-3.7314,-3.7294,-3.735,-3.7598,-3.8019,-3.8143,-3.8422,-3.8994,-3.9341,-3.9546,-3.9621,-4.0567,-4.083,-4.084,-4.1393,-4.164,-4.1648,-4.1604,-4.1604,-4.1604,-4.1604,-4.156,-4.1515,-4.1328,-4.1157,-4.1209,-4.118,-4.1256,-4.14,-4.1435,-4.1561,-4.1622,-4.1726,-4.1726,-4.166,-4.1695,-4.1695,-4.1833,-4.175,-4.1871,-4.1595,-4.1198,-4.1181,-4.1112,-4.1009,-4.0888,-4.0888,-4.084,-4.0728,-4.0517,-4.0387,-4.0138,-3.9901,-3.9798,-3.9694,-3.9537,-3.9432,-3.9395,-3.9342,-3.9172,-3.9106,-3.9023,-3.8941,-3.8526,-3.697,-3.697,-3.697,-3.697,-3.697,-3.697,-3.7009,-3.7048,-3.7027,-3.7027,-3.7048,-3.7069,-3.7147,-3.7185,-3.7276,-3.7334,-3.7405,-3.7775,-3.7931,-3.7853,-3.7778,-3.7527,-3.7347,-3.784,-3.8209,-3.832,-3.9024,-3.9453,-3.9547,-3.9552,-3.9752,-4.0159,-4.0429,-4.0757,-4.1155,-4.1367,-4.1604,-4.1516,-4.1174,-4.0961,-4.0563,-3.9552,-3.8854,-3.8468,-3.7836,-3.7429,-3.7503,-3.754,-3.7521,-3.741,-3.741,-3.7552,-3.7833,-3.7907,-3.828,-3.8968,-3.9039,-3.9213,-3.954,-3.9817,-4.0005,-4.0105,-4.0729,-4.11,-4.1233,-4.1629,-4.1858,-4.1692,-4.171,-4.1648,-4.1604,-4.1604,-4.1604,-4.1569,-4.1191,-4.1031,-4.1311,-4.13,-4.1272,-4.1244,-4.118,-4.1163,-4.1059,-4.1105,-4.1105,-4.1093,-4.1185,-4.1151,-4.1163,-4.0965,-4.0918,-4.0935,-4.0918,-4.0957,-4.0991,-4.0922,-4.0888,-4.0888,-4.084,-4.0728,-4.0566,-4.0387,-4.0188,-4.0003,-3.9935,-3.9816,-3.961,-3.9454,-3.9448,-3.9329,-3.911,-3.8825,-3.8692,-3.8377,-3.7996,-3.697,-3.697,-3.697,-3.697,-3.697,-3.697,-3.7048,-3.7069,-3.7009,-3.7048,-3.7126,-3.7108,-3.7203,-3.7279,-3.7334,-3.7372,-3.7429,-3.7461,-3.7405,-3.7403,-3.7309,-3.72,-3.7253,-3.7725,-3.8064,-3.821,-3.9049,-3.9191,-3.9173,-3.9279,-3.9833,-4.0223,-4.0477,-4.1011,-4.1382,-4.163,-4.1648,-4.1692,-4.1727,-4.1495,-4.099,-4.0276,-3.9682,-3.9174,-3.8251,-3.7968,-3.7879,-3.7773,-3.7593,-3.7571,-3.7683,-3.802,-3.8552,-3.877,-3.9269,-3.9761,-3.9957,-3.9913,-4.001,-4.0648,-4.0908,-4.1032,-4.158,-4.1987,-4.1917,-4.197,-4.1945,-4.1841,-4.1797,-4.1736,-4.1648,-4.1604,-4.1604,-4.1534,-4.1025,-4.1025,-4.1332,-4.1348,-4.1233,-4.1328,-4.122,-4.115,-4.1192,-4.1209,-4.1209,-4.1134,-4.1123,-4.1076,-4.1059,-4.0965,-4.0982,-4.0982,-4.0935,-4.0871,-4.0888,-4.0888,-4.0871,-4.0871,-4.0776,-4.068,-4.0583,-4.0387,-4.0188,-4.0037,-3.9986,-3.9749,-3.9411,-3.9339,-3.9337,-3.9016,-3.8546,-3.8328,-3.8162,-3.7715,-3.7301,-3.697,-3.697,-3.697,-3.697,-3.697,-3.697,-3.7048,-3.7108,-3.7048,-3.7105,-3.722,-3.7241,-3.7297,-3.7392,-3.7466,-3.7558,-3.7558,-3.7521,-3.7484,-3.7354,-3.7297,-3.7297,-3.7297,-3.745,-3.7468,-3.7686,-3.7739,-3.7884,-3.8046,-3.8688,-3.8958,-3.937,-4.0481,-4.1008,-4.1215,-4.1715,-4.1902,-4.1902,-4.1945,-4.1874,-4.1616,-4.1049,-4.0557,-4.0224,-3.918,-3.8857,-3.8943,-3.8217,-3.7879,-3.8213,-3.85,-3.8736,-3.8823,-3.9251,-3.9839,-4.0446,-4.0749,-4.0976,-4.1446,-4.1564,-4.1771,-4.1747,-4.1895,-4.2037,-4.1987,-4.2055,-4.2055,-4.1927,-4.1841,-4.1736,-4.1648,-4.1604,-4.1604,-4.1552,-4.1376,-4.1262,-4.1243,-4.0517,-4.0403,-4.0944,-4.0936,-4.0761,-4.1065,-4.1318,-4.1272,-4.1226,-4.1152,-4.114,-4.1076,-4.1029,-4.0982,-4.0982,-4.0935,-4.0871,-4.0871,-4.0836,-4.075,-4.0647,-4.0517,-4.022,-4.0075,-4.0112,-3.9797,-3.9884,-4.0087,-3.9682,-3.8941,-3.8789,-3.8705,-3.8301,-3.8065,-3.798,-3.7798,-3.7235,-3.6953,-3.697,-3.697,-3.697,-3.697,-3.7027,-3.7048,-3.7069,-3.7108,-3.7126,-3.7182,-3.7297,-3.7334,-3.7354,-3.7411,-3.754,-3.7577,-3.7577,-3.7577,-3.7594,-3.7466,-3.7392,-3.741,-3.7466,-3.7408,-3.7441,-3.7836,-3.7625,-3.7662,-3.8089,-3.8518,-3.8946,-3.934,-4.0455,-4.1197,-4.1458,-4.1817,-4.197,-4.2005,-4.203,-4.2055,-4.1931,-4.1392,-4.0798,-4.0531,-3.975,-3.9536,-3.9676,-3.9162,-3.893,-3.9195,-3.959,-3.9486,-3.895,-3.9182,-3.9789,-4.0414,-4.0967,-4.1176,-4.1563,-4.1991,-4.2145,-4.2157,-4.2181,-4.2181,-4.2139,-4.2181,-4.2121,-4.2037,-4.1952,-4.1866,-4.1736,-4.1675,-4.1692,-4.1516,-4.1271,-4.1192,-4.1235,-4.0525,-4.0166,-4.0954,-4.0823,-4.0911,-4.1111,-4.1373,-4.138,-4.1335,-4.1226,-4.1152,-4.1105,-4.1059,-4.0982,-4.0982,-4.0935,-4.0871,-4.0871,-4.0784,-4.0595,-4.0341,-4.0023,-3.9555,-3.9139,-3.9228,-3.9316,-3.9374,-3.9445,-3.8873,-3.827,-3.817,-3.8137,-3.8169,-3.805,-3.7882,-3.7748,-3.7632,-3.735,-3.697,-3.697,-3.697,-3.7027,-3.7027,-3.7087,-3.7108,-3.7185,-3.7259,-3.7314,-3.7334,-3.7392,-3.7429,-3.7449,-3.754,-3.7594,-3.7577,-3.7577,-3.7577,-3.7577,-3.7466,-3.7503,-3.754,-3.7557,-3.7947,-3.8772,-3.8237,-3.8272,-3.8788,-3.9147,-3.9643,-4.0125,-4.0851,-4.1522,-4.1997,-4.2097,-4.209,-4.209,-4.2139,-4.2145,-4.211,-4.1622,-4.1092,-4.0659,-4.0232,-4.0232,-4.0321,-4.0018,-3.9857,-4.0089,-4.0628,-4.0164,-3.945,-3.9325,-3.9557,-4.036,-4.1092,-4.1372,-4.1569,-4.1925,-4.2246,-4.2264,-4.2264,-4.2246,-4.2205,-4.2222,-4.2163,-4.2121,-4.2037,-4.1952,-4.1823,-4.1736,-4.1692,-4.1561,-4.1007,-4.1025,-4.1271,-4.0937,-4.0823,-4.1138,-4.092,-4.0841,-4.1182,-4.1471,-4.1471,-4.1426,-4.1272,-4.118,-4.1134,-4.1041,-4.1012,-4.0982,-4.0918,-4.0871,-4.0871,-4.0422,-4.0238,-3.9834,-3.9512,-3.8926,-3.8359,-3.8214,-3.8336,-3.8563,-3.8466,-3.7964,-3.7564,-3.7382,-3.7535,-3.7869,-3.7751,-3.7284,-3.7533,-3.8013,-3.7781,-3.697,-3.697,-3.697,-3.7009,-3.7069,-3.7108,-3.7185,-3.7299,-3.7334,-3.741,-3.7503,-3.7466,-3.7466,-3.754,-3.7577,-3.7577,-3.7577,-3.7577,-3.7577,-3.7577,-3.754,-3.7577,-3.7577,-3.7576,-3.8289,-3.9182,-3.9004,-3.9022,-3.9753,-4.0378,-4.0538,-4.0985,-4.1604,-4.2139,-4.2175,-4.2246,-4.2222,-4.2222,-4.2246,-4.2228,-4.2175,-4.2091,-4.1895,-4.1591,-4.1145,-4.1159,-4.1261,-4.0606,-4.0178,-4.0704,-4.0374,-4.0075,-4.0092,-4.0913,-4.1431,-4.1484,-4.168,-4.1729,-4.1777,-4.1985,-4.2121,-4.2072,-4.2072,-4.2072,-4.2072,-4.209,-4.2055,-4.2079,-4.1995,-4.1927,-4.1648,-4.1692,-4.1648,-4.1552,-4.1499,-4.1349,-4.1323,-4.1069,-4.0823,-4.1296,-4.0955,-4.0727,-4.1192,-4.1515,-4.1471,-4.138,-4.1244,-4.1152,-4.1059,-4.1012,-4.0918,-4.0918,-4.0918,-4.0871,-4.0871,-4.025,-3.9755,-3.9272,-3.8836,-3.8333,-3.7784,-3.7305,-3.7326,-3.755,-3.7638,-3.7405,-3.7057,-3.6678,-3.7,-3.7436,-3.7103,-3.6704,-3.7582,-3.8377,-3.8162,-3.697,-3.7027,-3.7048,-3.7069,-3.7108,-3.7206,-3.7279,-3.7354,-3.7392,-3.7466,-3.7503,-3.7503,-3.754,-3.7577,-3.7577,-3.7577,-3.7577,-3.7577,-3.7577,-3.7577,-3.7577,-3.7577,-3.7577,-3.7577,-3.8558,-3.9432,-3.9575,-3.9771,-4.0485,-4.086,-4.1145,-4.127,-4.1895,-4.2269,-4.2287,-4.2287,-4.2287,-4.2287,-4.2287,-4.2287,-4.2287,-4.2287,-4.2287,-4.2144,-4.1966,-4.1925,-4.1961,-4.1675,-4.1341,-4.1551,-4.1337,-4.1181,-4.1359,-4.1645,-4.1948,-4.1413,-4.152,-4.1716,-4.1706,-4.1902,-4.2163,-4.2079,-4.2037,-4.2012,-4.1987,-4.2005,-4.2005,-4.203,-4.203,-4.1902,-4.1736,-4.1692,-4.1648,-4.1604,-4.1604,-4.156,-4.149,-4.1192,-4.1297,-4.1393,-4.0946,-4.0902,-4.1332,-4.1498,-4.1426,-4.1335,-4.1198,-4.1123,-4.1029,-4.0982,-4.0871,-4.0836,-4.0784,-4.056,-4.0422,-3.9772,-3.9107,-3.8608,-3.8077,-3.7575,-3.7063,-3.6581,-3.64,-3.6502,-3.6523,-3.6679,-3.6316,-3.5924,-3.6451,-3.7003,-3.697,-3.7135,-3.8079,-3.8609,-3.8444,-3.6869,-3.7009,-3.7069,-3.7147,-3.7185,-3.7337,-3.7392,-3.741,-3.7521,-3.754,-3.7449,-3.754,-3.7577,-3.7577,-3.7577,-3.7577,-3.7577,-3.7577,-3.7577,-3.7577,-3.7577,-3.7577,-3.7577,-3.7773,-3.8397,-3.97,-3.9878,-4.0414,-4.1181,-4.1413,-4.1359,-4.1556,-4.2073,-4.2287,-4.2287,-4.2287,-4.2287,-4.2287,-4.2287,-4.2287,-4.2287,-4.2287,-4.2287,-4.2287,-4.2287,-4.2269,-4.2251,-4.2144,-4.2091,-4.218,-4.218,-4.2216,-4.2269,-4.2287,-4.1698,-4.0753,-4.102,-4.127,-4.1497,-4.1836,-4.2163,-4.1995,-4.2037,-4.1995,-4.1927,-4.1902,-4.1945,-4.1962,-4.1962,-4.1902,-4.1736,-4.1736,-4.1692,-4.1648,-4.156,-4.156,-4.1515,-4.1472,-4.1393,-4.127,-4.0937,-4.1016,-4.141,-4.1408,-4.1318,-4.1244,-4.1123,-4.1059,-4.0982,-4.0935,-4.0853,-4.0802,-4.0647,-4.0267,-3.9841,-3.9193,-3.8465,-3.7763,-3.72,-3.6667,-3.6237,-3.5808,-3.5825,-3.596,-3.5864,-3.5937,-3.5513,-3.5459,-3.6133,-3.6638,-3.6937,-3.7582,-3.8526,-3.8974,-3.8941,-3.6376,-3.7052,-3.7091,-3.7223,-3.7301,-3.7339,-3.7449,-3.754,-3.7577,-3.7577,-3.754,-3.7594,-3.7577,-3.7577,-3.7577,-3.7577,-3.7577,-3.7577,-3.7577,-3.7577,-3.7577,-3.7577,-3.7577,-3.7577,-3.8415,-3.9539,-3.9807,-4.0806,-4.1538,-4.1859,-4.2073,-4.2126,-4.2144,-4.2287,-4.2287,-4.2287,-4.2287,-4.2287,-4.2287,-4.2287,-4.2287,-4.2287,-4.2287,-4.2287,-4.2287,-4.2287,-4.2287,-4.2287,-4.2287,-4.2287,-4.2287,-4.2287,-4.2287,-4.2287,-4.2251,-4.2073,-4.2109,-4.2103,-4.1949,-4.2056,-4.2121,-4.1952,-4.1866,-4.178,-4.1754,-4.1754,-4.1797,-4.1666,-4.1754,-4.178,-4.1692,-4.1648,-4.1604,-4.156,-4.1515,-4.1471,-4.1426,-4.1426,-4.1408,-4.1436,-4.1103,-4.1191,-4.1426,-4.1318,-4.1226,-4.1105,-4.1029,-4.0965,-4.0832,-4.078,-4.0422,-4.0233,-4.0008,-3.96,-3.9107,-3.8476,-3.7826,-3.7024,-3.6542,-3.6027,-3.5802,-3.5639,-3.5639,-3.5661,-3.5577,-3.5566,-3.5508,-3.5656,-3.5985,-3.6554,-3.7153,-3.8048,-3.8957,-3.9189,-3.9255,-3.508,-3.5804,-3.5915,-3.6308,-3.6754,-3.679,-3.713,-3.7523,-3.7577,-3.7577,-3.7577,-3.7577,-3.7577,-3.7577,-3.7577,-3.7577,-3.7577,-3.7577,-3.7577,-3.7577,-3.7577,-3.7577,-3.7577,-3.763,-3.829,-3.9022,-3.9397,-3.9736,-4.0877,-4.1859,-4.2287,-4.2234,-4.2251,-4.2287,-4.2239,-4.2269,-4.2287,-4.2287,-4.2287,-4.2287,-4.2287,-4.2287,-4.2287,-4.2287,-4.2287,-4.2287,-4.2287,-4.2287,-4.2287,-4.2287,-4.2287,-4.2287,-4.2287,-4.2287,-4.2269,-4.2269,-4.2269,-4.2269,-4.2228,-4.2205,-4.2121,-4.1995,-4.1927,-4.1858,-4.171,-4.1648,-4.1692,-4.1604,-4.1631,-4.1631,-4.1604,-4.1604,-4.156,-4.1471,-4.1408,-4.138,-4.1335,-4.1318,-4.1318,-4.1318,-4.1363,-4.1335,-4.1335,-4.129,-4.1128,-4.0903,-4.0874,-4.081,-4.059,-4.0336,-3.9922,-3.9405,-3.9163,-3.8825,-3.8298,-3.7737,-3.7182,-3.6519,-3.6287,-3.5875,-3.5735,-3.5639,-3.5639,-3.5594,-3.5549,-3.5537,-3.5525,-3.579,-3.615,-3.6787,-3.7552,-3.8148,-3.8709,-3.9106,-3.9139,-3.3723,-3.4306,-3.4853,-3.5563,-3.6292,-3.6364,-3.6863,-3.7541,-3.7577,-3.7577,-3.7577,-3.7577,-3.7577,-3.7577,-3.7577,-3.7577,-3.7577,-3.7577,-3.7577,-3.7577,-3.7577,-3.7577,-3.7577,-3.7648,-3.8023,-3.879,-3.8915,-3.9379,-4.0146,-4.0913,-4.152,-4.1698,-4.1466,-4.1757,-4.1971,-4.2029,-4.2065,-4.2346,-4.2328,-4.2287,-4.2287,-4.2287,-4.2287,-4.2287,-4.2287,-4.2287,-4.2287,-4.2287,-4.2287,-4.2287,-4.2287,-4.2287,-4.2287,-4.2287,-4.2287,-4.2216,-4.2091,-4.2037,-4.218,-4.2287,-4.2246,-4.2121,-4.1995,-4.1841,-4.1648,-4.1604,-4.1604,-4.1604,-4.1604,-4.1604,-4.1604,-4.1604,-4.156,-4.1453,-4.1363,-4.1272,-4.1244,-4.1198,-4.1198,-4.1198,-4.1244,-4.118,-4.1198,-4.1244,-4.1111,-4.0816,-4.0718,-4.0619,-4.0227,-3.9784,-3.9388,-3.8819,-3.8377,-3.8109,-3.772,-3.7134,-3.6556,-3.6178,-3.5902,-3.5728,-3.5639,-3.5639,-3.5639,-3.5594,-3.552,-3.5492,-3.5417,-3.5827,-3.6233,-3.6603,-3.7037,-3.77,-3.8245,-3.8659,-3.8758,-3.2629,-3.2871,-3.4427,-3.5527,-3.6345,-3.6399,-3.6827,-3.7559,-3.7577,-3.7577,-3.7577,-3.7577,-3.7577,-3.7577,-3.7577,-3.7577,-3.7577,-3.7577,-3.7577,-3.7577,-3.7577,-3.7577,-3.7577,-3.7684,-3.7951,-3.8594,-3.8629,-3.9058,-3.9646,-3.9753,-4.0075,-4.0092,-4.0396,-4.076,-4.1157,-4.1461,-4.1801,-4.2136,-4.2257,-4.2287,-4.2287,-4.2287,-4.2287,-4.2287,-4.2287,-4.2287,-4.2287,-4.2287,-4.2287,-4.2287,-4.2287,-4.2287,-4.2287,-4.2287,-4.2287,-4.2198,-4.1841,-4.1859,-4.2126,-4.218,-4.2151,-4.2061,-4.1952,-4.178,-4.1604,-4.1604,-4.1604,-4.1604,-4.1604,-4.1604,-4.1604,-4.1604,-4.1498,-4.1363,-4.1272,-4.1198,-4.1123,-4.1123,-4.1076,-4.1123,-4.1105,-4.1059,-4.1012,-4.1076,-4.0724,-4.0377,-3.9865,-3.9779,-3.9301,-3.8877,-3.8698,-3.8239,-3.773,-3.7411,-3.7247,-3.6764,-3.6222,-3.6014,-3.5807,-3.5728,-3.5639,-3.5639,-3.5594,-3.5549,-3.552,-3.5429,-3.5354,-3.5609,-3.5833,-3.6071,-3.6522,-3.7285,-3.7566,-3.7781,-3.7748,-3.259,-3.2659,-3.3446,-3.4492,-3.5667,-3.5667,-3.6399,-3.747,-3.7577,-3.7577,-3.7631,-3.7577,-3.7577,-3.7613,-3.7577,-3.7577,-3.7577,-3.7577,-3.7577,-3.7577,-3.7577,-3.7577,-3.7577,-3.763,-3.7773,-3.8041,-3.8094,-3.813,-3.838,-3.8647,-3.8504,-3.8665,-3.9361,-3.9968,-4.0453,-4.0939,-4.1403,-4.1689,-4.2078,-4.2287,-4.2287,-4.2287,-4.2287,-4.2287,-4.2287,-4.2287,-4.2287,-4.2287,-4.2287,-4.2287,-4.2287,-4.2287,-4.2287,-4.2287,-4.2287,-4.2269,-4.1859,-4.193,-4.2055,-4.1943,-4.1624,-4.1899,-4.1823,-4.1736,-4.1604,-4.1604,-4.1604,-4.1604,-4.1604,-4.1604,-4.1604,-4.1515,-4.1408,-4.1318,-4.1198,-4.1123,-4.1029,-4.1047,-4.0982,-4.1029,-4.0965,-4.0918,-4.0888,-4.084,-4.0388,-3.9888,-3.937,-3.8888,-3.8481,-3.805,-3.7826,-3.7619,-3.7084,-3.6774,-3.661,-3.6266,-3.5905,-3.5834,-3.5745,-3.5735,-3.5707,-3.5583,-3.5537,-3.552,-3.5503,-3.5429,-3.5337,-3.5308,-3.5482,-3.5789,-3.6339,-3.6936,-3.7069,-3.6953,-3.687,-3.2639,-3.2672,-3.282,-3.3761,-3.5114,-3.5204,-3.5971,-3.7113,-3.7524,-3.7667,-3.7703,-3.7667,-3.7649,-3.7667,-3.7649,-3.7649,-3.7613,-3.7613,-3.7613,-3.7577,-3.7577,-3.7577,-3.7577,-3.7594,-3.7612,-3.7577,-3.7577,-3.7666,-3.7755,-3.7612,-3.7719,-3.8076,-3.8594,-3.9129,-3.9828,-4.0596,-4.1131,-4.1328,-4.1864,-4.2269,-4.2287,-4.2287,-4.2287,-4.2287,-4.2287,-4.2287,-4.2287,-4.2287,-4.2287,-4.2287,-4.2287,-4.2287,-4.2287,-4.2287,-4.2287,-4.2216,-4.2091,-4.2055,-4.2032,-4.1825,-4.1505,-4.1796,-4.1823,-4.1736,-4.1648,-4.1604,-4.1604,-4.1604,-4.1604,-4.1604,-4.156,-4.1471,-4.1335,-4.1244,-4.1169,-4.1093,-4.0982,-4.0935,-4.0935,-4.0918,-4.0871,-4.0871,-4.0668,-4.0569,-4.0096,-3.9456,-3.8642,-3.8184,-3.7909,-3.7472,-3.6982,-3.675,-3.6406,-3.6182,-3.5949,-3.5844,-3.579,-3.5864,-3.5836,-3.587,-3.5825,-3.5751,-3.5621,-3.5566,-3.5503,-3.5429,-3.5337,-3.5245,-3.5402,-3.5608,-3.5991,-3.6257,-3.6108,-3.5992,-3.6125,-3.269,-3.2791,-3.2823,-3.371,-3.5061,-3.5204,-3.565,-3.6453,-3.7131,-3.756,-3.7685,-3.7649,-3.7721,-3.7792,-3.7739,-3.7721,-3.7685,-3.7649,-3.7613,-3.7613,-3.7613,-3.7613,-3.7577,-3.7577,-3.7577,-3.7577,-3.7577,-3.7577,-3.7577,-3.7577,-3.7577,-3.7648,-3.8058,-3.8452,-3.9082,-4.048,-4.1196,-4.1393,-4.1953,-4.2257,-4.2287,-4.2287,-4.2287,-4.2287,-4.2287,-4.2287,-4.2287,-4.2287,-4.2234,-4.2073,-4.2234,-4.2216,-4.2109,-4.2234,-4.2269,-4.2269,-4.1622,-4.164,-4.218,-4.2074,-4.1941,-4.1805,-4.1736,-4.1692,-4.1648,-4.1604,-4.1604,-4.1604,-4.1604,-4.156,-4.1471,-4.138,-4.1244,-4.1169,-4.1093,-4.1047,-4.0935,-4.0871,-4.0871,-4.0871,-4.0871,-4.0836,-4.0565,-4.0246,-3.9812,-3.911,-3.806,-3.758,-3.7538,-3.7016,-3.6551,-3.6303,-3.6079,-3.5975,-3.5844,-3.5711,-3.5673,-3.5808,-3.5943,-3.6011,-3.6197,-3.6337,-3.6106,-3.5763,-3.5672,-3.5732,-3.5488,-3.5198,-3.5352,-3.5438,-3.521,-3.5278,-3.5081,-3.5195,-3.5509,-3.274,-3.2823,-3.287,-3.3476,-3.4418,-3.4472,-3.49,-3.556,-3.5952,-3.6415,-3.695,-3.6987,-3.7309,-3.7613,-3.7774,-3.7721,-3.7721,-3.7703,-3.7685,-3.7649,-3.7613,-3.7613,-3.7577,-3.7577,-3.7577,-3.7577,-3.7577,-3.7577,-3.7577,-3.7577,-3.7577,-3.7648,-3.7987,-3.8522,-3.9024,-3.9917,-4.0542,-4.1185,-4.1864,-4.2287,-4.2287,-4.2287,-4.2287,-4.2287,-4.2287,-4.2287,-4.2287,-4.2287,-4.2109,-4.1823,-4.1966,-4.2037,-4.1841,-4.1854,-4.211,-4.2145,-4.173,-4.1753,-4.1959,-4.1892,-4.1805,-4.1736,-4.1692,-4.1648,-4.1604,-4.1604,-4.1604,-4.1604,-4.1604,-4.1515,-4.1426,-4.1318,-4.118,-4.1123,-4.1047,-4.0982,-4.0871,-4.0871,-4.0871,-4.0871,-4.0871,-4.084,-4.059,-4.0233,-3.9764,-3.9183,-3.8191,-3.79,-3.786,-3.6999,-3.6327,-3.6174,-3.6019,-3.5888,-3.5773,-3.5802,-3.5707,-3.5707,-3.5994,-3.6265,-3.6502,-3.6793,-3.646,-3.6038,-3.606,-3.6034,-3.5605,-3.5245,-3.5245,-3.5215,-3.5088,-3.5041,-3.5108,-3.5171,-3.5349,-3.2838,-3.2838,-3.2902,-3.3187,-3.3687,-3.3972,-3.4526,-3.513,-3.4989,-3.5343,-3.6072,-3.6215,-3.6609,-3.7217,-3.7398,-3.7702,-3.7721,-3.7685,-3.7685,-3.7649,-3.7595,-3.7613,-3.7577,-3.7577,-3.7577,-3.7577,-3.7577,-3.7577,-3.7577,-3.7577,-3.7577,-3.7719,-3.8148,-3.8433,-3.8968,-3.9807,-4.0646,-4.127,-4.1823,-4.2287,-4.2287,-4.2287,-4.2287,-4.2287,-4.2287,-4.2287,-4.2287,-4.2198,-4.2055,-4.1734,-4.1645,-4.1823,-4.1581,-4.1558,-4.1884,-4.1931,-4.2012,-4.1927,-4.1823,-4.1823,-4.1736,-4.1631,-4.1604,-4.1604,-4.1604,-4.1604,-4.1604,-4.1604,-4.1604,-4.1515,-4.1426,-4.1272,-4.118,-4.1076,-4.0982,-4.0935,-4.0871,-4.0871,-4.0871,-4.0871,-4.0888,-4.0793,-4.0577,-4.0206,-3.9785,-3.9119,-3.8418,-3.8213,-3.7969,-3.7041,-3.6233,-3.6105,-3.5949,-3.5844,-3.5864,-3.609,-3.5926,-3.5673,-3.618,-3.6857,-3.6924,-3.7246,-3.6747,-3.6392,-3.6392,-3.6211,-3.5664,-3.5337,-3.5291,-3.5291,-3.5291,-3.5245,-3.5182,-3.5245,-3.5354,-3.288,-3.2862,-3.288,-3.2844,-3.3005,-3.3651,-3.4452,-3.5162,-3.4416,-3.4572,-3.5436,-3.539,-3.5854,-3.6582,-3.6678,-3.7093,-3.7631,-3.7614,-3.7667,-3.7631,-3.7613,-3.7613,-3.7577,-3.7577,-3.7577,-3.7577,-3.7577,-3.7577,-3.7577,-3.7577,-3.7577,-3.763,-3.7898,-3.8326,-3.9093,-3.9932,-4.0663,-4.102,-4.1573,-4.1841,-4.1752,-4.1877,-4.1787,-4.1805,-4.1912,-4.2019,-4.2091,-4.2144,-4.2144,-4.1912,-4.1609,-4.167,-4.1611,-4.141,-4.1594,-4.1757,-4.1927,-4.1858,-4.1797,-4.178,-4.1754,-4.1604,-4.1604,-4.1604,-4.1604,-4.1604,-4.1604,-4.1604,-4.156,-4.1471,-4.1408,-4.1272,-4.1152,-4.1076,-4.0982,-4.0935,-4.0871,-4.0871,-4.0871,-4.0871,-4.0888,-4.0724,-4.0336,-4.0001,-3.946,-3.8909,-3.8277,-3.79,-3.7569,-3.6938,-3.626,-3.6062,-3.5932,-3.5817,-3.5915,-3.6073,-3.6243,-3.6022,-3.7161,-3.7855,-3.7821,-3.7567,-3.7364,-3.7077,-3.6755,-3.6354,-3.5723,-3.5429,-3.5383,-3.5383,-3.5429,-3.54,-3.5337,-3.5337,-3.5383,-3.2304,-3.1482,-3.1905,-3.2107,-3.2232,-3.2934,-3.3398,-3.3541,-3.3327,-3.3766,-3.458,-3.4548,-3.5154,-3.5783,-3.6409,-3.677,-3.7111,-3.7399,-3.7614,-3.7649,-3.7613,-3.7613,-3.7577,-3.7577,-3.7577,-3.7577,-3.7577,-3.7613,-3.7577,-3.7577,-3.7577,-3.7612,-3.8005,-3.8469,-3.8968,-3.9753,-4.0039,-4.0414,-4.1002,-4.1092,-4.0931,-4.0877,-4.0877,-4.0985,-4.1377,-4.152,-4.1698,-4.2037,-4.1984,-4.152,-4.1823,-4.1943,-4.1215,-4.1523,-4.1839,-4.1666,-4.171,-4.171,-4.1648,-4.1648,-4.1648,-4.1604,-4.1604,-4.1604,-4.1604,-4.1604,-4.1604,-4.156,-4.1515,-4.1408,-4.1318,-4.1198,-4.1105,-4.1029,-4.0935,-4.0935,-4.0871,-4.0871,-4.0853,-4.0629,-4.0647,-4.0208,-3.9873,-3.9534,-3.9025,-3.8528,-3.8048,-3.7648,-3.7237,-3.6638,-3.6311,-3.6096,-3.5932,-3.5861,-3.5851,-3.5977,-3.6282,-3.6639,-3.7644,-3.8224,-3.7818,-3.7614,-3.7784,-3.7411,-3.6615,-3.6096,-3.5678,-3.5503,-3.5458,-3.5503,-3.5549,-3.552,-3.5492,-3.5475,-3.5458,-3.2307,-3.1433,-3.2032,-3.2486,-3.2862,-3.3261,-3.3619,-3.3781,-3.3202,-3.3394,-3.4171,-3.4178,-3.4835,-3.5993,-3.6499,-3.6841,-3.7236,-3.7506,-3.7667,-3.7649,-3.7577,-3.7613,-3.7577,-3.7613,-3.7613,-3.7613,-3.7613,-3.7613,-3.7613,-3.7613,-3.7577,-3.763,-3.8183,-3.8272,-3.8522,-3.8968,-3.9165,-3.9486,-3.9825,-4.0128,-4.0128,-4.011,-4.0342,-4.0324,-4.0824,-4.1109,-4.1431,-4.1912,-4.1645,-4.1448,-4.2002,-4.1718,-4.1292,-4.1715,-4.1498,-4.135,-4.1464,-4.1552,-4.1604,-4.1604,-4.1604,-4.1604,-4.1604,-4.1604,-4.156,-4.156,-4.1515,-4.1471,-4.1363,-4.1255,-4.118,-4.1152,-4.1059,-4.0982,-4.0935,-4.0871,-4.0871,-4.0871,-4.0664,-4.0371,-4.0014,-3.9588,-3.925,-3.8929,-3.8505,-3.7905,-3.7418,-3.6999,-3.6775,-3.6483,-3.6277,-3.614,-3.6019,-3.5888,-3.5895,-3.597,-3.6378,-3.6791,-3.7505,-3.7848,-3.7623,-3.7577,-3.7648,-3.6988,-3.6073,-3.5802,-3.5667,-3.5622,-3.5594,-3.5639,-3.5684,-3.5594,-3.5549,-3.5532,-3.5577,-3.2523,-3.1815,-3.2613,-3.3188,-3.4051,-3.402,-3.4483,-3.5094,-3.3548,-3.3462,-3.4225,-3.4181,-3.4996,-3.6134,-3.6552,-3.7001,-3.7218,-3.7434,-3.7524,-3.7559,-3.7363,-3.7362,-3.7541,-3.7613,-3.7613,-3.7649,-3.7649,-3.7613,-3.7649,-3.7649,-3.7577,-3.7577,-3.7648,-3.7755,-3.7916,-3.8362,-3.8469,-3.8326,-3.8915,-3.945,-3.97,-4.0217,-4.0824,-4.0628,-4.0842,-4.1163,-4.1609,-4.1698,-4.152,-4.1729,-4.1736,-4.1547,-4.1467,-4.1515,-4.1051,-4.092,-4.1113,-4.1411,-4.1534,-4.1604,-4.1604,-4.1604,-4.1604,-4.156,-4.1515,-4.1515,-4.1515,-4.1408,-4.1318,-4.1226,-4.1152,-4.1059,-4.0982,-4.0982,-4.0935,-4.0918,-4.0871,-4.0802,-4.0578,-4.0233,-3.9738,-3.9244,-3.8504,-3.8184,-3.7813,-3.7291,-3.6922,-3.65,-3.6396,-3.6285,-3.6242,-3.6165,-3.6105,-3.6036,-3.6017,-3.6161,-3.6548,-3.7058,-3.7517,-3.767,-3.7546,-3.7471,-3.7479,-3.6831,-3.618,-3.5909,-3.5756,-3.5711,-3.5728,-3.5773,-3.5773,-3.5667,-3.5622,-3.565,-3.5667,-3.1502,-3.0405,-3.1127,-3.1921,-3.2744,-3.3201,-3.3597,-3.3785,-3.3319,-3.384,-3.4864,-3.4648,-3.4864,-3.5918,-3.6425,-3.6786,-3.6876,-3.7093,-3.7238,-3.7238,-3.7113,-3.7309,-3.7487,-3.7613,-3.7613,-3.7613,-3.7613,-3.7613,-3.7613,-3.7613,-3.7577,-3.7577,-3.7577,-3.7577,-3.7594,-3.7969,-3.7826,-3.7684,-3.7987,-3.8415,-3.8487,-3.8308,-3.8415,-3.8933,-3.9414,-4.0307,-4.0913,-4.1591,-4.1782,-4.2056,-4.2003,-4.1552,-4.0976,-4.0866,-4.0717,-4.0612,-4.0709,-4.1165,-4.1464,-4.1604,-4.1604,-4.156,-4.1515,-4.1471,-4.1471,-4.1515,-4.1471,-4.1363,-4.1272,-4.1198,-4.1105,-4.1012,-4.0935,-4.0935,-4.0935,-4.0935,-4.0871,-4.0664,-4.0457,-3.9996,-3.9468,-3.8728,-3.7937,-3.7438,-3.7094,-3.6784,-3.6551,-3.6335,-3.6335,-3.6276,-3.6251,-3.6251,-3.6233,-3.6208,-3.6148,-3.6215,-3.658,-3.6808,-3.7121,-3.7285,-3.7382,-3.7098,-3.6848,-3.6814,-3.6457,-3.6144,-3.5861,-3.5817,-3.5861,-3.5905,-3.5905,-3.58,-3.58,-3.58,-3.58,-3.1617,-3.1003,-3.1365,-3.2254,-3.3317,-3.3719,-3.4069,-3.4268,-3.3641,-3.3972,-3.4939,-3.4609,-3.4914,-3.5756,-3.6173,-3.6265,-3.6337,-3.6536,-3.6807,-3.6951,-3.7184,-3.7363,-3.7524,-3.7613,-3.7703,-3.7703,-3.7703,-3.7703,-3.7613,-3.7577,-3.7577,-3.7577,-3.7577,-3.7577,-3.7577,-3.7577,-3.7577,-3.7577,-3.7577,-3.7577,-3.7648,-3.7826,-3.8326,-3.8861,-3.9343,-4.0003,-4.057,-4.1319,-4.1434,-4.1724,-4.1771,-4.1036,-4.0644,-4.0752,-4.0569,-4.0393,-4.0551,-4.1165,-4.1464,-4.1604,-4.156,-4.1515,-4.1453,-4.1408,-4.0954,-4.0971,-4.1318,-4.1244,-4.1105,-4.1012,-4.1012,-4.0918,-4.0935,-4.0935,-4.0888,-4.0871,-4.0617,-4.0311,-4.0057,-3.9671,-3.9015,-3.8126,-3.7438,-3.7016,-3.6706,-3.6569,-3.6301,-3.6284,-3.6284,-3.6284,-3.6259,-3.6276,-3.6276,-3.6276,-3.6182,-3.6277,-3.6456,-3.6625,-3.6802,-3.6727,-3.672,-3.6439,-3.6199,-3.6361,-3.6385,-3.6163,-3.5993,-3.5949,-3.5993,-3.6079,-3.6036,-3.5975,-3.5975,-3.5932,-3.5932,-3.2037,-3.2174,-3.2302,-3.3222,-3.4535,-3.4597,-3.4805,-3.5054,-3.4043,-3.3814,-3.4341,-3.4159,-3.5163,-3.5864,-3.6047,-3.5818,-3.5926,-3.6532,-3.6732,-3.7057,-3.7273,-3.7435,-3.7542,-3.7649,-3.7703,-3.7739,-3.7775,-3.7703,-3.7613,-3.7577,-3.7577,-3.7577,-3.7577,-3.7577,-3.7577,-3.7577,-3.7577,-3.7577,-3.7577,-3.7577,-3.788,-3.8237,-3.8701,-3.9254,-3.9789,-4.0146,-4.0552,-4.0833,-4.0788,-4.0878,-4.0965,-4.0317,-4.0021,-4.013,-4.0112,-3.9989,-4.0551,-4.1148,-4.1552,-4.1604,-4.1515,-4.1453,-4.1373,-4.1066,-4.063,-4.0593,-4.0874,-4.0972,-4.0879,-4.0901,-4.0901,-4.0836,-4.0836,-4.075,-4.075,-4.0634,-4.0277,-3.9941,-3.9723,-3.9388,-3.866,-3.7782,-3.7214,-3.6715,-3.6431,-3.6335,-3.6284,-3.6284,-3.6284,-3.6284,-3.6301,-3.6276,-3.6276,-3.6251,-3.6208,-3.6251,-3.6362,-3.6448,-3.6542,-3.6268,-3.6079,-3.6165,-3.6165,-3.6122,-3.6079,-3.6079,-3.6122,-3.6079,-3.6165,-3.6165,-3.6148,-3.6105,-3.6079,-3.6079,-3.6105,-3.1329,-3.1464,-3.2092,-3.2995,-3.3826,-3.3814,-3.3512,-3.3194,-3.3426,-3.3549,-3.3622,-3.3713,-3.4393,-3.6005,-3.6468,-3.6579,-3.6723,-3.6904,-3.7264,-3.7715,-3.7127,-3.7308,-3.7435,-3.7381,-3.7578,-3.7685,-3.7703,-3.7613,-3.7577,-3.7577,-3.7577,-3.7577,-3.7577,-3.7577,-3.7577,-3.7577,-3.7577,-3.7577,-3.7577,-3.7577,-3.7577,-3.7773,-3.7791,-3.8219,-3.8683,-3.8913,-3.921,-3.9704,-3.9855,-3.9852,-3.9852,-3.9399,-3.9252,-3.9463,-3.9603,-3.9638,-4.0235,-4.0937,-4.1253,-4.1516,-4.148,-4.1311,-4.1171,-4.0697,-4.0339,-4.011,-4.0366,-4.0579,-4.0573,-4.078,-4.0814,-4.0733,-4.0716,-4.044,-4.0319,-3.9967,-3.9598,-3.9615,-3.9551,-3.9213,-3.8797,-3.8036,-3.7418,-3.6895,-3.637,-3.6284,-3.6301,-3.6301,-3.6259,-3.6301,-3.6284,-3.6259,-3.6233,-3.6301,-3.6259,-3.6208,-3.6311,-3.6303,-3.6303,-3.62,-3.6148,-3.6233,-3.6233,-3.6174,-3.6191,-3.6191,-3.6208,-3.6191,-3.6233,-3.6233,-3.6259,-3.6216,-3.6191,-3.6165,-3.6191]}]]